<?xml version="1.0" encoding="UTF-8" standalone="no" ?>
<gpx xmlns="http://www.topografix.com/GPX/1/1" xmlns:xsi="http://www.w3.org/2001/XMLSchema-instance" xsi:schemaLocation="http://www.topografix.com/GPX/1/1 http://www.topografix.com/GPX/1/1/gpx.xsd" version="1.1" creator="VisuGPX - https://www.visugpx.com">
  <metadata>
    <name>boucle Seillons - Saint Martin de Pallières</name>
    <desc><![CDATA[Parcours sans difficultés, un petit peu de route vers Saint Martin. Passage par le hameau de Laval, à découvrir]]></desc>
  </metadata>
  <trk>
    <name><![CDATA[20190414103144-u6zRx]]></name>
    <trkseg>
      <trkpt lat="43.50365" lon="5.88697">
        <ele>309</ele>
      </trkpt>
      <trkpt lat="43.50376" lon="5.88653">
        <ele>311.3</ele>
      </trkpt>
      <trkpt lat="43.50387" lon="5.88641">
        <ele>312</ele>
      </trkpt>
      <trkpt lat="43.504" lon="5.88633">
        <ele>312.6</ele>
      </trkpt>
      <trkpt lat="43.50423" lon="5.88613">
        <ele>317.1</ele>
      </trkpt>
      <trkpt lat="43.50453" lon="5.88597">
        <ele>317.4</ele>
      </trkpt>
      <trkpt lat="43.5048" lon="5.88582">
        <ele>318.3</ele>
      </trkpt>
      <trkpt lat="43.5052" lon="5.88545">
        <ele>321.6</ele>
      </trkpt>
      <trkpt lat="43.50551" lon="5.88515">
        <ele>322.1</ele>
      </trkpt>
      <trkpt lat="43.50573" lon="5.88485">
        <ele>323.9</ele>
      </trkpt>
      <trkpt lat="43.50591" lon="5.88466">
        <ele>323.7</ele>
      </trkpt>
      <trkpt lat="43.50619" lon="5.88442">
        <ele>324.6</ele>
      </trkpt>
      <trkpt lat="43.50647" lon="5.88434">
        <ele>323.4</ele>
      </trkpt>
      <trkpt lat="43.50675" lon="5.88419">
        <ele>323.2</ele>
      </trkpt>
      <trkpt lat="43.50708" lon="5.88408">
        <ele>327.3</ele>
      </trkpt>
      <trkpt lat="43.50731" lon="5.88376">
        <ele>328.1</ele>
      </trkpt>
      <trkpt lat="43.50748" lon="5.88346">
        <ele>326.7</ele>
      </trkpt>
      <trkpt lat="43.50773" lon="5.88303">
        <ele>333.7</ele>
      </trkpt>
      <trkpt lat="43.50792" lon="5.88275">
        <ele>337</ele>
      </trkpt>
      <trkpt lat="43.50809" lon="5.88286">
        <ele>336.6</ele>
      </trkpt>
      <trkpt lat="43.50819" lon="5.88308">
        <ele>334.5</ele>
      </trkpt>
      <trkpt lat="43.50829" lon="5.88334">
        <ele>330.5</ele>
      </trkpt>
      <trkpt lat="43.50832" lon="5.88379">
        <ele>329</ele>
      </trkpt>
      <trkpt lat="43.50846" lon="5.88405">
        <ele>331.4</ele>
      </trkpt>
      <trkpt lat="43.50866" lon="5.88443">
        <ele>336.8</ele>
      </trkpt>
      <trkpt lat="43.50889" lon="5.88451">
        <ele>337.6</ele>
      </trkpt>
      <trkpt lat="43.5092" lon="5.88464">
        <ele>339.8</ele>
      </trkpt>
      <trkpt lat="43.50943" lon="5.88494">
        <ele>341.1</ele>
      </trkpt>
      <trkpt lat="43.50962" lon="5.88499">
        <ele>340.9</ele>
      </trkpt>
      <trkpt lat="43.50976" lon="5.88509">
        <ele>347.3</ele>
      </trkpt>
      <trkpt lat="43.51002" lon="5.88515">
        <ele>345.7</ele>
      </trkpt>
      <trkpt lat="43.5103" lon="5.88524">
        <ele>348.9</ele>
      </trkpt>
      <trkpt lat="43.51054" lon="5.88558">
        <ele>351.3</ele>
      </trkpt>
      <trkpt lat="43.51073" lon="5.88558">
        <ele>115.38</ele>
        <time>2019-04-13T06:20:13Z</time>
      </trkpt>
      <trkpt lat="43.51076" lon="5.88585">
        <ele>128.27</ele>
        <time>2019-04-13T06:20:17Z</time>
      </trkpt>
      <trkpt lat="43.51078" lon="5.8861">
        <ele>142.65</ele>
        <time>2019-04-13T06:20:23Z</time>
      </trkpt>
      <trkpt lat="43.51086" lon="5.88633">
        <ele>173.18</ele>
        <time>2019-04-13T06:20:41Z</time>
      </trkpt>
      <trkpt lat="43.51104" lon="5.88637">
        <ele>186.74</ele>
        <time>2019-04-13T06:20:53Z</time>
      </trkpt>
      <trkpt lat="43.51117" lon="5.88656">
        <ele>202.91</ele>
        <time>2019-04-13T06:21:09Z</time>
      </trkpt>
      <trkpt lat="43.51134" lon="5.88665">
        <ele>215.16</ele>
        <time>2019-04-13T06:21:17Z</time>
      </trkpt>
      <trkpt lat="43.51153" lon="5.88667">
        <ele>222.46</ele>
        <time>2019-04-13T06:21:26Z</time>
      </trkpt>
      <trkpt lat="43.51173" lon="5.88678">
        <ele>230.92</ele>
        <time>2019-04-13T06:21:33Z</time>
      </trkpt>
      <trkpt lat="43.51191" lon="5.88675">
        <ele>234.52</ele>
        <time>2019-04-13T06:21:43Z</time>
      </trkpt>
      <trkpt lat="43.51209" lon="5.88682">
        <ele>238.27</ele>
        <time>2019-04-13T06:21:57Z</time>
      </trkpt>
      <trkpt lat="43.51226" lon="5.88693">
        <ele>245.53</ele>
        <time>2019-04-13T06:22:09Z</time>
      </trkpt>
      <trkpt lat="43.51241" lon="5.88712">
        <ele>250.84</ele>
        <time>2019-04-13T06:22:20Z</time>
      </trkpt>
      <trkpt lat="43.51254" lon="5.88731">
        <ele>256.22</ele>
        <time>2019-04-13T06:22:27Z</time>
      </trkpt>
      <trkpt lat="43.51266" lon="5.88755">
        <ele>263.33</ele>
        <time>2019-04-13T06:22:33Z</time>
      </trkpt>
      <trkpt lat="43.51275" lon="5.88782">
        <ele>269.98</ele>
        <time>2019-04-13T06:22:44Z</time>
      </trkpt>
      <trkpt lat="43.51289" lon="5.88801">
        <ele>276.23</ele>
        <time>2019-04-13T06:23:07Z</time>
      </trkpt>
      <trkpt lat="43.51301" lon="5.88822">
        <ele>281.87</ele>
        <time>2019-04-13T06:23:15Z</time>
      </trkpt>
      <trkpt lat="43.51311" lon="5.88846">
        <ele>288.65</ele>
        <time>2019-04-13T06:23:25Z</time>
      </trkpt>
      <trkpt lat="43.51318" lon="5.8887">
        <ele>295.06</ele>
        <time>2019-04-13T06:23:34Z</time>
      </trkpt>
      <trkpt lat="43.51319" lon="5.88897">
        <ele>303.06</ele>
        <time>2019-04-13T06:23:43Z</time>
      </trkpt>
      <trkpt lat="43.51319" lon="5.88922">
        <ele>309.39</ele>
        <time>2019-04-13T06:23:52Z</time>
      </trkpt>
      <trkpt lat="43.51318" lon="5.88948">
        <ele>316.85</ele>
        <time>2019-04-13T06:24:05Z</time>
      </trkpt>
      <trkpt lat="43.51304" lon="5.88964">
        <ele>321.96</ele>
        <time>2019-04-13T06:24:16Z</time>
      </trkpt>
      <trkpt lat="43.51292" lon="5.88983">
        <ele>328.78</ele>
        <time>2019-04-13T06:24:28Z</time>
      </trkpt>
      <trkpt lat="43.51282" lon="5.89005">
        <ele>336.57</ele>
        <time>2019-04-13T06:24:41Z</time>
      </trkpt>
      <trkpt lat="43.51271" lon="5.89024">
        <ele>342.62</ele>
        <time>2019-04-13T06:24:52Z</time>
      </trkpt>
      <trkpt lat="43.51258" lon="5.89043">
        <ele>347.14</ele>
        <time>2019-04-13T06:25:03Z</time>
      </trkpt>
      <trkpt lat="43.51248" lon="5.89065">
        <ele>352.62</ele>
        <time>2019-04-13T06:25:16Z</time>
      </trkpt>
      <trkpt lat="43.51232" lon="5.89079">
        <ele>357.97</ele>
        <time>2019-04-13T06:25:29Z</time>
      </trkpt>
      <trkpt lat="43.51215" lon="5.89096">
        <ele>361.68</ele>
        <time>2019-04-13T06:25:41Z</time>
      </trkpt>
      <trkpt lat="43.512" lon="5.89113">
        <ele>366.09</ele>
        <time>2019-04-13T06:25:53Z</time>
      </trkpt>
      <trkpt lat="43.51187" lon="5.89132">
        <ele>369.87</ele>
        <time>2019-04-13T06:26:05Z</time>
      </trkpt>
      <trkpt lat="43.51171" lon="5.89144">
        <ele>371.44</ele>
        <time>2019-04-13T06:26:16Z</time>
      </trkpt>
      <trkpt lat="43.51155" lon="5.89156">
        <ele>373.04</ele>
        <time>2019-04-13T06:26:25Z</time>
      </trkpt>
      <trkpt lat="43.5114" lon="5.8917">
        <ele>373.64</ele>
        <time>2019-04-13T06:26:36Z</time>
      </trkpt>
      <trkpt lat="43.51126" lon="5.89187">
        <ele>377.25</ele>
        <time>2019-04-13T06:26:48Z</time>
      </trkpt>
      <trkpt lat="43.51114" lon="5.89208">
        <ele>380.47</ele>
        <time>2019-04-13T06:26:58Z</time>
      </trkpt>
      <trkpt lat="43.51105" lon="5.89232">
        <ele>386.04</ele>
        <time>2019-04-13T06:27:09Z</time>
      </trkpt>
      <trkpt lat="43.51094" lon="5.89253">
        <ele>391.45</ele>
        <time>2019-04-13T06:27:20Z</time>
      </trkpt>
      <trkpt lat="43.51078" lon="5.89276">
        <ele>386.93</ele>
        <time>2019-04-13T06:28:15Z</time>
      </trkpt>
      <trkpt lat="43.51097" lon="5.89277">
        <ele>355.27</ele>
        <time>2019-04-13T06:31:49Z</time>
      </trkpt>
      <trkpt lat="43.51117" lon="5.89281">
        <ele>355.53</ele>
        <time>2019-04-13T06:31:59Z</time>
      </trkpt>
      <trkpt lat="43.51136" lon="5.89288">
        <ele>356.35</ele>
        <time>2019-04-13T06:32:09Z</time>
      </trkpt>
      <trkpt lat="43.51154" lon="5.89293">
        <ele>357.92</ele>
        <time>2019-04-13T06:32:19Z</time>
      </trkpt>
      <trkpt lat="43.51172" lon="5.89297">
        <ele>359.7</ele>
        <time>2019-04-13T06:32:28Z</time>
      </trkpt>
      <trkpt lat="43.51193" lon="5.89306">
        <ele>363.21</ele>
        <time>2019-04-13T06:32:47Z</time>
      </trkpt>
      <trkpt lat="43.51208" lon="5.8932">
        <ele>364.18</ele>
        <time>2019-04-13T06:33:03Z</time>
      </trkpt>
      <trkpt lat="43.51226" lon="5.89331">
        <ele>364.4</ele>
        <time>2019-04-13T06:33:15Z</time>
      </trkpt>
      <trkpt lat="43.51239" lon="5.89351">
        <ele>365.48</ele>
        <time>2019-04-13T06:33:25Z</time>
      </trkpt>
      <trkpt lat="43.5125" lon="5.89373">
        <ele>366.37</ele>
        <time>2019-04-13T06:33:34Z</time>
      </trkpt>
      <trkpt lat="43.51264" lon="5.8939">
        <ele>367.18</ele>
        <time>2019-04-13T06:33:43Z</time>
      </trkpt>
      <trkpt lat="43.51281" lon="5.89401">
        <ele>367.85</ele>
        <time>2019-04-13T06:33:51Z</time>
      </trkpt>
      <trkpt lat="43.51297" lon="5.89415">
        <ele>368.06</ele>
        <time>2019-04-13T06:34:00Z</time>
      </trkpt>
      <trkpt lat="43.51315" lon="5.89417">
        <ele>370.53</ele>
        <time>2019-04-13T06:34:10Z</time>
      </trkpt>
      <trkpt lat="43.51334" lon="5.8942">
        <ele>371.98</ele>
        <time>2019-04-13T06:34:17Z</time>
      </trkpt>
      <trkpt lat="43.51353" lon="5.89424">
        <ele>373.85</ele>
        <time>2019-04-13T06:34:23Z</time>
      </trkpt>
      <trkpt lat="43.51372" lon="5.89428">
        <ele>374.46</ele>
        <time>2019-04-13T06:34:31Z</time>
      </trkpt>
      <trkpt lat="43.5139" lon="5.89435">
        <ele>375.54</ele>
        <time>2019-04-13T06:34:43Z</time>
      </trkpt>
      <trkpt lat="43.51407" lon="5.89451">
        <ele>376.96</ele>
        <time>2019-04-13T06:34:49Z</time>
      </trkpt>
      <trkpt lat="43.51426" lon="5.89469">
        <ele>378.83</ele>
        <time>2019-04-13T06:34:54Z</time>
      </trkpt>
      <trkpt lat="43.51443" lon="5.89481">
        <ele>379.13</ele>
        <time>2019-04-13T06:34:58Z</time>
      </trkpt>
      <trkpt lat="43.51464" lon="5.89484">
        <ele>380.17</ele>
        <time>2019-04-13T06:35:03Z</time>
      </trkpt>
      <trkpt lat="43.51483" lon="5.89487">
        <ele>381.84</ele>
        <time>2019-04-13T06:35:07Z</time>
      </trkpt>
      <trkpt lat="43.51503" lon="5.89498">
        <ele>383.48</ele>
        <time>2019-04-13T06:35:11Z</time>
      </trkpt>
      <trkpt lat="43.51522" lon="5.89507">
        <ele>385.84</ele>
        <time>2019-04-13T06:35:15Z</time>
      </trkpt>
      <trkpt lat="43.5154" lon="5.89514">
        <ele>387.54</ele>
        <time>2019-04-13T06:35:19Z</time>
      </trkpt>
      <trkpt lat="43.51559" lon="5.89526">
        <ele>389.75</ele>
        <time>2019-04-13T06:35:25Z</time>
      </trkpt>
      <trkpt lat="43.51575" lon="5.89548">
        <ele>390.73</ele>
        <time>2019-04-13T06:35:29Z</time>
      </trkpt>
      <trkpt lat="43.51588" lon="5.89567">
        <ele>390.54</ele>
        <time>2019-04-13T06:35:33Z</time>
      </trkpt>
      <trkpt lat="43.516" lon="5.89594">
        <ele>390.32</ele>
        <time>2019-04-13T06:35:37Z</time>
      </trkpt>
      <trkpt lat="43.51603" lon="5.89618">
        <ele>390.02</ele>
        <time>2019-04-13T06:35:45Z</time>
      </trkpt>
      <trkpt lat="43.5162" lon="5.89627">
        <ele>390.92</ele>
        <time>2019-04-13T06:35:55Z</time>
      </trkpt>
      <trkpt lat="43.51639" lon="5.89624">
        <ele>393.52</ele>
        <time>2019-04-13T06:36:04Z</time>
      </trkpt>
      <trkpt lat="43.51659" lon="5.8963">
        <ele>390.99</ele>
        <time>2019-04-13T06:36:12Z</time>
      </trkpt>
      <trkpt lat="43.51674" lon="5.89646">
        <ele>382.43</ele>
        <time>2019-04-13T06:36:19Z</time>
      </trkpt>
      <trkpt lat="43.51695" lon="5.8965">
        <ele>380.74</ele>
        <time>2019-04-13T06:36:25Z</time>
      </trkpt>
      <trkpt lat="43.51713" lon="5.89652">
        <ele>378.09</ele>
        <time>2019-04-13T06:36:31Z</time>
      </trkpt>
      <trkpt lat="43.51733" lon="5.8966">
        <ele>377.33</ele>
        <time>2019-04-13T06:36:36Z</time>
      </trkpt>
      <trkpt lat="43.51754" lon="5.89668">
        <ele>373.66</ele>
        <time>2019-04-13T06:36:42Z</time>
      </trkpt>
      <trkpt lat="43.51773" lon="5.89673">
        <ele>372.41</ele>
        <time>2019-04-13T06:36:47Z</time>
      </trkpt>
      <trkpt lat="43.51793" lon="5.89677">
        <ele>370.31</ele>
        <time>2019-04-13T06:36:52Z</time>
      </trkpt>
      <trkpt lat="43.51812" lon="5.89679">
        <ele>366.94</ele>
        <time>2019-04-13T06:36:57Z</time>
      </trkpt>
      <trkpt lat="43.51831" lon="5.89684">
        <ele>362.17</ele>
        <time>2019-04-13T06:37:02Z</time>
      </trkpt>
      <trkpt lat="43.5185" lon="5.89693">
        <ele>358.91</ele>
        <time>2019-04-13T06:37:07Z</time>
      </trkpt>
      <trkpt lat="43.51869" lon="5.89691">
        <ele>356.74</ele>
        <time>2019-04-13T06:37:12Z</time>
      </trkpt>
      <trkpt lat="43.51888" lon="5.8969">
        <ele>354.02</ele>
        <time>2019-04-13T06:37:17Z</time>
      </trkpt>
      <trkpt lat="43.51909" lon="5.89685">
        <ele>355.25</ele>
        <time>2019-04-13T06:37:23Z</time>
      </trkpt>
      <trkpt lat="43.51929" lon="5.89679">
        <ele>355.09</ele>
        <time>2019-04-13T06:37:29Z</time>
      </trkpt>
      <trkpt lat="43.51948" lon="5.89674">
        <ele>353.97</ele>
        <time>2019-04-13T06:37:34Z</time>
      </trkpt>
      <trkpt lat="43.51968" lon="5.89665">
        <ele>352.39</ele>
        <time>2019-04-13T06:37:39Z</time>
      </trkpt>
      <trkpt lat="43.51988" lon="5.89659">
        <ele>352.84</ele>
        <time>2019-04-13T06:37:44Z</time>
      </trkpt>
      <trkpt lat="43.52006" lon="5.89653">
        <ele>354.21</ele>
        <time>2019-04-13T06:37:50Z</time>
      </trkpt>
      <trkpt lat="43.52026" lon="5.89646">
        <ele>354.03</ele>
        <time>2019-04-13T06:37:56Z</time>
      </trkpt>
      <trkpt lat="43.52043" lon="5.89638">
        <ele>356.9</ele>
        <time>2019-04-13T06:38:01Z</time>
      </trkpt>
      <trkpt lat="43.52062" lon="5.89634">
        <ele>356.66</ele>
        <time>2019-04-13T06:38:05Z</time>
      </trkpt>
      <trkpt lat="43.52079" lon="5.89627">
        <ele>357.87</ele>
        <time>2019-04-13T06:38:09Z</time>
      </trkpt>
      <trkpt lat="43.52098" lon="5.89618">
        <ele>358.86</ele>
        <time>2019-04-13T06:38:15Z</time>
      </trkpt>
      <trkpt lat="43.52117" lon="5.89612">
        <ele>360.32</ele>
        <time>2019-04-13T06:38:21Z</time>
      </trkpt>
      <trkpt lat="43.52137" lon="5.89603">
        <ele>362.1</ele>
        <time>2019-04-13T06:38:28Z</time>
      </trkpt>
      <trkpt lat="43.52153" lon="5.8959">
        <ele>364.27</ele>
        <time>2019-04-13T06:38:33Z</time>
      </trkpt>
      <trkpt lat="43.52173" lon="5.89582">
        <ele>367.77</ele>
        <time>2019-04-13T06:38:38Z</time>
      </trkpt>
      <trkpt lat="43.5219" lon="5.89573">
        <ele>369.84</ele>
        <time>2019-04-13T06:38:43Z</time>
      </trkpt>
      <trkpt lat="43.5221" lon="5.89563">
        <ele>370.93</ele>
        <time>2019-04-13T06:38:47Z</time>
      </trkpt>
      <trkpt lat="43.52232" lon="5.89554">
        <ele>373.12</ele>
        <time>2019-04-13T06:38:51Z</time>
      </trkpt>
      <trkpt lat="43.52254" lon="5.89547">
        <ele>374.93</ele>
        <time>2019-04-13T06:38:55Z</time>
      </trkpt>
      <trkpt lat="43.52274" lon="5.89541">
        <ele>377.12</ele>
        <time>2019-04-13T06:38:59Z</time>
      </trkpt>
      <trkpt lat="43.52294" lon="5.89542">
        <ele>379.82</ele>
        <time>2019-04-13T06:39:04Z</time>
      </trkpt>
      <trkpt lat="43.52313" lon="5.89541">
        <ele>381.05</ele>
        <time>2019-04-13T06:39:08Z</time>
      </trkpt>
      <trkpt lat="43.52333" lon="5.89543">
        <ele>381.45</ele>
        <time>2019-04-13T06:39:12Z</time>
      </trkpt>
      <trkpt lat="43.52355" lon="5.89546">
        <ele>381.6</ele>
        <time>2019-04-13T06:39:17Z</time>
      </trkpt>
      <trkpt lat="43.52374" lon="5.89549">
        <ele>382.08</ele>
        <time>2019-04-13T06:39:21Z</time>
      </trkpt>
      <trkpt lat="43.52395" lon="5.89547">
        <ele>383.29</ele>
        <time>2019-04-13T06:39:26Z</time>
      </trkpt>
      <trkpt lat="43.52415" lon="5.89545">
        <ele>385.4</ele>
        <time>2019-04-13T06:39:31Z</time>
      </trkpt>
      <trkpt lat="43.52434" lon="5.89544">
        <ele>388.11</ele>
        <time>2019-04-13T06:39:35Z</time>
      </trkpt>
      <trkpt lat="43.52453" lon="5.89544">
        <ele>389.36</ele>
        <time>2019-04-13T06:39:39Z</time>
      </trkpt>
      <trkpt lat="43.52472" lon="5.89548">
        <ele>394.42</ele>
        <time>2019-04-13T06:39:44Z</time>
      </trkpt>
      <trkpt lat="43.5249" lon="5.89546">
        <ele>402.18</ele>
        <time>2019-04-13T06:39:48Z</time>
      </trkpt>
      <trkpt lat="43.5251" lon="5.89541">
        <ele>408.77</ele>
        <time>2019-04-13T06:39:52Z</time>
      </trkpt>
      <trkpt lat="43.52532" lon="5.89539">
        <ele>417.35</ele>
        <time>2019-04-13T06:39:57Z</time>
      </trkpt>
      <trkpt lat="43.52554" lon="5.8954">
        <ele>422.68</ele>
        <time>2019-04-13T06:40:01Z</time>
      </trkpt>
      <trkpt lat="43.52576" lon="5.89543">
        <ele>426.88</ele>
        <time>2019-04-13T06:40:05Z</time>
      </trkpt>
      <trkpt lat="43.52599" lon="5.89543">
        <ele>428.13</ele>
        <time>2019-04-13T06:40:10Z</time>
      </trkpt>
      <trkpt lat="43.52619" lon="5.89546">
        <ele>429.14</ele>
        <time>2019-04-13T06:40:14Z</time>
      </trkpt>
      <trkpt lat="43.52641" lon="5.89552">
        <ele>427.83</ele>
        <time>2019-04-13T06:40:18Z</time>
      </trkpt>
      <trkpt lat="43.52662" lon="5.8955">
        <ele>431.78</ele>
        <time>2019-04-13T06:40:22Z</time>
      </trkpt>
      <trkpt lat="43.5268" lon="5.8955">
        <ele>425.29</ele>
        <time>2019-04-13T06:40:25Z</time>
      </trkpt>
      <trkpt lat="43.52698" lon="5.8955">
        <ele>419.59</ele>
        <time>2019-04-13T06:40:28Z</time>
      </trkpt>
      <trkpt lat="43.52718" lon="5.89549">
        <ele>415.09</ele>
        <time>2019-04-13T06:40:32Z</time>
      </trkpt>
      <trkpt lat="43.5274" lon="5.89552">
        <ele>411.1</ele>
        <time>2019-04-13T06:40:36Z</time>
      </trkpt>
      <trkpt lat="43.52758" lon="5.89551">
        <ele>403.65</ele>
        <time>2019-04-13T06:40:40Z</time>
      </trkpt>
      <trkpt lat="43.52776" lon="5.89551">
        <ele>395.18</ele>
        <time>2019-04-13T06:40:44Z</time>
      </trkpt>
      <trkpt lat="43.52795" lon="5.89549">
        <ele>390.76</ele>
        <time>2019-04-13T06:40:49Z</time>
      </trkpt>
      <trkpt lat="43.52817" lon="5.89545">
        <ele>381.45</ele>
        <time>2019-04-13T06:40:54Z</time>
      </trkpt>
      <trkpt lat="43.52834" lon="5.89537">
        <ele>377.97</ele>
        <time>2019-04-13T06:40:58Z</time>
      </trkpt>
      <trkpt lat="43.52853" lon="5.89528">
        <ele>377.19</ele>
        <time>2019-04-13T06:41:03Z</time>
      </trkpt>
      <trkpt lat="43.5287" lon="5.89514">
        <ele>376.32</ele>
        <time>2019-04-13T06:41:10Z</time>
      </trkpt>
      <trkpt lat="43.5289" lon="5.89503">
        <ele>378.04</ele>
        <time>2019-04-13T06:41:16Z</time>
      </trkpt>
      <trkpt lat="43.52908" lon="5.895">
        <ele>381.32</ele>
        <time>2019-04-13T06:41:21Z</time>
      </trkpt>
      <trkpt lat="43.52929" lon="5.89498">
        <ele>379.4</ele>
        <time>2019-04-13T06:41:26Z</time>
      </trkpt>
      <trkpt lat="43.52948" lon="5.89491">
        <ele>383.03</ele>
        <time>2019-04-13T06:41:31Z</time>
      </trkpt>
      <trkpt lat="43.52966" lon="5.89486">
        <ele>384.11</ele>
        <time>2019-04-13T06:41:36Z</time>
      </trkpt>
      <trkpt lat="43.52984" lon="5.89478">
        <ele>383.45</ele>
        <time>2019-04-13T06:41:41Z</time>
      </trkpt>
      <trkpt lat="43.53002" lon="5.89468">
        <ele>384.69</ele>
        <time>2019-04-13T06:41:48Z</time>
      </trkpt>
      <trkpt lat="43.53019" lon="5.89457">
        <ele>386.32</ele>
        <time>2019-04-13T06:41:54Z</time>
      </trkpt>
      <trkpt lat="43.53036" lon="5.89449">
        <ele>389.9</ele>
        <time>2019-04-13T06:42:00Z</time>
      </trkpt>
      <trkpt lat="43.53054" lon="5.89446">
        <ele>386.29</ele>
        <time>2019-04-13T06:42:04Z</time>
      </trkpt>
      <trkpt lat="43.5307" lon="5.89435">
        <ele>380.24</ele>
        <time>2019-04-13T06:42:09Z</time>
      </trkpt>
      <trkpt lat="43.53084" lon="5.89418">
        <ele>381.1</ele>
        <time>2019-04-13T06:42:15Z</time>
      </trkpt>
      <trkpt lat="43.53097" lon="5.89399">
        <ele>383.9</ele>
        <time>2019-04-13T06:42:23Z</time>
      </trkpt>
      <trkpt lat="43.53111" lon="5.89382">
        <ele>382.16</ele>
        <time>2019-04-13T06:42:31Z</time>
      </trkpt>
      <trkpt lat="43.53124" lon="5.89364">
        <ele>382.15</ele>
        <time>2019-04-13T06:42:37Z</time>
      </trkpt>
      <trkpt lat="43.53142" lon="5.89359">
        <ele>383.76</ele>
        <time>2019-04-13T06:42:42Z</time>
      </trkpt>
      <trkpt lat="43.53162" lon="5.89358">
        <ele>387.63</ele>
        <time>2019-04-13T06:42:47Z</time>
      </trkpt>
      <trkpt lat="43.5318" lon="5.89354">
        <ele>389.78</ele>
        <time>2019-04-13T06:42:52Z</time>
      </trkpt>
      <trkpt lat="43.53197" lon="5.89344">
        <ele>383.61</ele>
        <time>2019-04-13T06:42:57Z</time>
      </trkpt>
      <trkpt lat="43.53219" lon="5.89344">
        <ele>383.56</ele>
        <time>2019-04-13T06:43:03Z</time>
      </trkpt>
      <trkpt lat="43.53239" lon="5.89338">
        <ele>378.06</ele>
        <time>2019-04-13T06:43:08Z</time>
      </trkpt>
      <trkpt lat="43.53257" lon="5.89334">
        <ele>376.43</ele>
        <time>2019-04-13T06:43:15Z</time>
      </trkpt>
      <trkpt lat="43.53275" lon="5.89326">
        <ele>374.85</ele>
        <time>2019-04-13T06:43:22Z</time>
      </trkpt>
      <trkpt lat="43.53293" lon="5.89318">
        <ele>375.56</ele>
        <time>2019-04-13T06:43:28Z</time>
      </trkpt>
      <trkpt lat="43.53312" lon="5.8931">
        <ele>370.03</ele>
        <time>2019-04-13T06:43:34Z</time>
      </trkpt>
      <trkpt lat="43.53331" lon="5.893">
        <ele>367.61</ele>
        <time>2019-04-13T06:43:39Z</time>
      </trkpt>
      <trkpt lat="43.53351" lon="5.89291">
        <ele>365.59</ele>
        <time>2019-04-13T06:43:44Z</time>
      </trkpt>
      <trkpt lat="43.53368" lon="5.89304">
        <ele>363.05</ele>
        <time>2019-04-13T06:43:51Z</time>
      </trkpt>
      <trkpt lat="43.53384" lon="5.89321">
        <ele>362.32</ele>
        <time>2019-04-13T06:44:00Z</time>
      </trkpt>
      <trkpt lat="43.534" lon="5.89335">
        <ele>363.76</ele>
        <time>2019-04-13T06:44:10Z</time>
      </trkpt>
      <trkpt lat="43.53419" lon="5.89346">
        <ele>366.29</ele>
        <time>2019-04-13T06:44:18Z</time>
      </trkpt>
      <trkpt lat="43.53439" lon="5.89359">
        <ele>368.25</ele>
        <time>2019-04-13T06:44:26Z</time>
      </trkpt>
      <trkpt lat="43.53453" lon="5.89378">
        <ele>365.04</ele>
        <time>2019-04-13T06:44:29Z</time>
      </trkpt>
      <trkpt lat="43.53471" lon="5.89381">
        <ele>361.75</ele>
        <time>2019-04-13T06:44:32Z</time>
      </trkpt>
      <trkpt lat="43.53489" lon="5.89372">
        <ele>360.72</ele>
        <time>2019-04-13T06:44:35Z</time>
      </trkpt>
      <trkpt lat="43.53512" lon="5.89361">
        <ele>359.27</ele>
        <time>2019-04-13T06:44:38Z</time>
      </trkpt>
      <trkpt lat="43.5353" lon="5.89357">
        <ele>358.45</ele>
        <time>2019-04-13T06:44:40Z</time>
      </trkpt>
      <trkpt lat="43.53549" lon="5.89356">
        <ele>357.8</ele>
        <time>2019-04-13T06:44:42Z</time>
      </trkpt>
      <trkpt lat="43.53572" lon="5.8936">
        <ele>356.86</ele>
        <time>2019-04-13T06:44:45Z</time>
      </trkpt>
      <trkpt lat="43.53595" lon="5.8937">
        <ele>356.12</ele>
        <time>2019-04-13T06:44:49Z</time>
      </trkpt>
      <trkpt lat="43.53614" lon="5.89378">
        <ele>355.95</ele>
        <time>2019-04-13T06:44:53Z</time>
      </trkpt>
      <trkpt lat="43.53634" lon="5.89386">
        <ele>356.24</ele>
        <time>2019-04-13T06:44:58Z</time>
      </trkpt>
      <trkpt lat="43.53652" lon="5.89382">
        <ele>357.02</ele>
        <time>2019-04-13T06:45:02Z</time>
      </trkpt>
      <trkpt lat="43.5367" lon="5.89378">
        <ele>358.91</ele>
        <time>2019-04-13T06:45:08Z</time>
      </trkpt>
      <trkpt lat="43.5369" lon="5.89373">
        <ele>359.08</ele>
        <time>2019-04-13T06:45:14Z</time>
      </trkpt>
      <trkpt lat="43.53709" lon="5.89368">
        <ele>361.2</ele>
        <time>2019-04-13T06:45:20Z</time>
      </trkpt>
      <trkpt lat="43.53728" lon="5.89361">
        <ele>360.74</ele>
        <time>2019-04-13T06:45:25Z</time>
      </trkpt>
      <trkpt lat="43.53746" lon="5.89351">
        <ele>359.23</ele>
        <time>2019-04-13T06:45:30Z</time>
      </trkpt>
      <trkpt lat="43.53764" lon="5.89341">
        <ele>359.76</ele>
        <time>2019-04-13T06:45:35Z</time>
      </trkpt>
      <trkpt lat="43.53783" lon="5.8933">
        <ele>359.66</ele>
        <time>2019-04-13T06:45:40Z</time>
      </trkpt>
      <trkpt lat="43.53802" lon="5.8932">
        <ele>359.04</ele>
        <time>2019-04-13T06:45:45Z</time>
      </trkpt>
      <trkpt lat="43.53825" lon="5.89315">
        <ele>357.11</ele>
        <time>2019-04-13T06:45:49Z</time>
      </trkpt>
      <trkpt lat="43.53843" lon="5.89304">
        <ele>353</ele>
        <time>2019-04-13T06:45:56Z</time>
      </trkpt>
      <trkpt lat="43.53861" lon="5.89294">
        <ele>350.84</ele>
        <time>2019-04-13T06:46:03Z</time>
      </trkpt>
      <trkpt lat="43.5388" lon="5.89294">
        <ele>349.62</ele>
        <time>2019-04-13T06:46:11Z</time>
      </trkpt>
      <trkpt lat="43.53899" lon="5.89294">
        <ele>349.13</ele>
        <time>2019-04-13T06:46:18Z</time>
      </trkpt>
      <trkpt lat="43.53919" lon="5.89294">
        <ele>345.91</ele>
        <time>2019-04-13T06:46:25Z</time>
      </trkpt>
      <trkpt lat="43.5394" lon="5.89296">
        <ele>345.29</ele>
        <time>2019-04-13T06:46:31Z</time>
      </trkpt>
      <trkpt lat="43.53959" lon="5.89303">
        <ele>347.96</ele>
        <time>2019-04-13T06:46:39Z</time>
      </trkpt>
      <trkpt lat="43.53977" lon="5.89309">
        <ele>347.88</ele>
        <time>2019-04-13T06:46:46Z</time>
      </trkpt>
      <trkpt lat="43.53996" lon="5.89315">
        <ele>349.02</ele>
        <time>2019-04-13T06:46:52Z</time>
      </trkpt>
      <trkpt lat="43.54014" lon="5.89324">
        <ele>351.89</ele>
        <time>2019-04-13T06:46:59Z</time>
      </trkpt>
      <trkpt lat="43.54032" lon="5.89331">
        <ele>353.65</ele>
        <time>2019-04-13T06:47:07Z</time>
      </trkpt>
      <trkpt lat="43.54049" lon="5.89342">
        <ele>350.68</ele>
        <time>2019-04-13T06:47:16Z</time>
      </trkpt>
      <trkpt lat="43.54068" lon="5.89351">
        <ele>344.39</ele>
        <time>2019-04-13T06:47:23Z</time>
      </trkpt>
      <trkpt lat="43.54089" lon="5.89347">
        <ele>343.87</ele>
        <time>2019-04-13T06:47:27Z</time>
      </trkpt>
      <trkpt lat="43.54108" lon="5.89337">
        <ele>343.71</ele>
        <time>2019-04-13T06:47:31Z</time>
      </trkpt>
      <trkpt lat="43.54126" lon="5.89325">
        <ele>343.89</ele>
        <time>2019-04-13T06:47:36Z</time>
      </trkpt>
      <trkpt lat="43.54144" lon="5.89313">
        <ele>342.93</ele>
        <time>2019-04-13T06:47:43Z</time>
      </trkpt>
      <trkpt lat="43.54165" lon="5.89307">
        <ele>344.49</ele>
        <time>2019-04-13T06:47:49Z</time>
      </trkpt>
      <trkpt lat="43.54186" lon="5.89307">
        <ele>346.42</ele>
        <time>2019-04-13T06:47:54Z</time>
      </trkpt>
      <trkpt lat="43.54204" lon="5.89311">
        <ele>348.86</ele>
        <time>2019-04-13T06:47:59Z</time>
      </trkpt>
      <trkpt lat="43.54223" lon="5.89319">
        <ele>351.42</ele>
        <time>2019-04-13T06:48:06Z</time>
      </trkpt>
      <trkpt lat="43.54241" lon="5.89326">
        <ele>354.6</ele>
        <time>2019-04-13T06:48:13Z</time>
      </trkpt>
      <trkpt lat="43.54259" lon="5.8933">
        <ele>354.64</ele>
        <time>2019-04-13T06:48:20Z</time>
      </trkpt>
      <trkpt lat="43.54279" lon="5.89335">
        <ele>354.09</ele>
        <time>2019-04-13T06:48:28Z</time>
      </trkpt>
      <trkpt lat="43.54298" lon="5.8934">
        <ele>353.04</ele>
        <time>2019-04-13T06:48:34Z</time>
      </trkpt>
      <trkpt lat="43.54318" lon="5.89343">
        <ele>351.09</ele>
        <time>2019-04-13T06:48:41Z</time>
      </trkpt>
      <trkpt lat="43.54337" lon="5.89344">
        <ele>351.63</ele>
        <time>2019-04-13T06:48:48Z</time>
      </trkpt>
      <trkpt lat="43.54355" lon="5.89346">
        <ele>351.42</ele>
        <time>2019-04-13T06:48:54Z</time>
      </trkpt>
      <trkpt lat="43.54374" lon="5.89345">
        <ele>351.82</ele>
        <time>2019-04-13T06:49:01Z</time>
      </trkpt>
      <trkpt lat="43.54391" lon="5.8934">
        <ele>353.52</ele>
        <time>2019-04-13T06:49:07Z</time>
      </trkpt>
      <trkpt lat="43.54411" lon="5.89337">
        <ele>355.11</ele>
        <time>2019-04-13T06:49:12Z</time>
      </trkpt>
      <trkpt lat="43.54427" lon="5.8935">
        <ele>345.55</ele>
        <time>2019-04-13T06:50:29Z</time>
      </trkpt>
      <trkpt lat="43.54417" lon="5.89374">
        <ele>334.87</ele>
        <time>2019-04-13T06:54:00Z</time>
      </trkpt>
      <trkpt lat="43.54407" lon="5.89397">
        <ele>335.16</ele>
        <time>2019-04-13T06:54:08Z</time>
      </trkpt>
      <trkpt lat="43.54415" lon="5.8942">
        <ele>339.89</ele>
        <time>2019-04-13T06:54:27Z</time>
      </trkpt>
      <trkpt lat="43.54423" lon="5.89445">
        <ele>342.09</ele>
        <time>2019-04-13T06:54:35Z</time>
      </trkpt>
      <trkpt lat="43.54428" lon="5.89477">
        <ele>344.05</ele>
        <time>2019-04-13T06:54:41Z</time>
      </trkpt>
      <trkpt lat="43.54433" lon="5.89502">
        <ele>345.27</ele>
        <time>2019-04-13T06:54:44Z</time>
      </trkpt>
      <trkpt lat="43.54431" lon="5.89527">
        <ele>346.5</ele>
        <time>2019-04-13T06:54:48Z</time>
      </trkpt>
      <trkpt lat="43.54427" lon="5.89551">
        <ele>347.72</ele>
        <time>2019-04-13T06:54:53Z</time>
      </trkpt>
      <trkpt lat="43.54422" lon="5.89576">
        <ele>349.1</ele>
        <time>2019-04-13T06:54:59Z</time>
      </trkpt>
      <trkpt lat="43.54411" lon="5.896">
        <ele>350.52</ele>
        <time>2019-04-13T06:55:06Z</time>
      </trkpt>
      <trkpt lat="43.54401" lon="5.89621">
        <ele>351.82</ele>
        <time>2019-04-13T06:55:12Z</time>
      </trkpt>
      <trkpt lat="43.5439" lon="5.89643">
        <ele>353.22</ele>
        <time>2019-04-13T06:55:19Z</time>
      </trkpt>
      <trkpt lat="43.54379" lon="5.89665">
        <ele>355.25</ele>
        <time>2019-04-13T06:55:26Z</time>
      </trkpt>
      <trkpt lat="43.54379" lon="5.89691">
        <ele>357.32</ele>
        <time>2019-04-13T06:55:35Z</time>
      </trkpt>
      <trkpt lat="43.54396" lon="5.89702">
        <ele>359.41</ele>
        <time>2019-04-13T06:55:44Z</time>
      </trkpt>
      <trkpt lat="43.54415" lon="5.89709">
        <ele>360.54</ele>
        <time>2019-04-13T06:55:51Z</time>
      </trkpt>
      <trkpt lat="43.54433" lon="5.89715">
        <ele>360.5</ele>
        <time>2019-04-13T06:55:58Z</time>
      </trkpt>
      <trkpt lat="43.54451" lon="5.89724">
        <ele>357.42</ele>
        <time>2019-04-13T06:56:07Z</time>
      </trkpt>
      <trkpt lat="43.54469" lon="5.8973">
        <ele>356.64</ele>
        <time>2019-04-13T06:56:14Z</time>
      </trkpt>
      <trkpt lat="43.54484" lon="5.89715">
        <ele>355.99</ele>
        <time>2019-04-13T06:56:27Z</time>
      </trkpt>
      <trkpt lat="43.545" lon="5.89702">
        <ele>355.4</ele>
        <time>2019-04-13T06:56:37Z</time>
      </trkpt>
      <trkpt lat="43.54516" lon="5.89688">
        <ele>354.42</ele>
        <time>2019-04-13T06:56:44Z</time>
      </trkpt>
      <trkpt lat="43.54533" lon="5.89675">
        <ele>353.62</ele>
        <time>2019-04-13T06:56:49Z</time>
      </trkpt>
      <trkpt lat="43.5455" lon="5.8966">
        <ele>353.47</ele>
        <time>2019-04-13T06:56:56Z</time>
      </trkpt>
      <trkpt lat="43.54566" lon="5.89649">
        <ele>353.76</ele>
        <time>2019-04-13T06:57:02Z</time>
      </trkpt>
      <trkpt lat="43.54585" lon="5.89639">
        <ele>355.12</ele>
        <time>2019-04-13T06:57:10Z</time>
      </trkpt>
      <trkpt lat="43.54603" lon="5.89628">
        <ele>356.39</ele>
        <time>2019-04-13T06:57:17Z</time>
      </trkpt>
      <trkpt lat="43.54622" lon="5.89622">
        <ele>358.7</ele>
        <time>2019-04-13T06:57:24Z</time>
      </trkpt>
      <trkpt lat="43.5464" lon="5.89629">
        <ele>362.77</ele>
        <time>2019-04-13T06:57:33Z</time>
      </trkpt>
      <trkpt lat="43.54649" lon="5.89651">
        <ele>366.36</ele>
        <time>2019-04-13T06:57:42Z</time>
      </trkpt>
      <trkpt lat="43.54652" lon="5.89675">
        <ele>368.77</ele>
        <time>2019-04-13T06:57:48Z</time>
      </trkpt>
      <trkpt lat="43.54652" lon="5.897">
        <ele>370.12</ele>
        <time>2019-04-13T06:57:53Z</time>
      </trkpt>
      <trkpt lat="43.54652" lon="5.89727">
        <ele>370.9</ele>
        <time>2019-04-13T06:57:59Z</time>
      </trkpt>
      <trkpt lat="43.54649" lon="5.89753">
        <ele>371.65</ele>
        <time>2019-04-13T06:58:05Z</time>
      </trkpt>
      <trkpt lat="43.54647" lon="5.89779">
        <ele>372.99</ele>
        <time>2019-04-13T06:58:12Z</time>
      </trkpt>
      <trkpt lat="43.5466" lon="5.89798">
        <ele>376.79</ele>
        <time>2019-04-13T06:58:23Z</time>
      </trkpt>
      <trkpt lat="43.54675" lon="5.89816">
        <ele>381.19</ele>
        <time>2019-04-13T06:58:33Z</time>
      </trkpt>
      <trkpt lat="43.54678" lon="5.89843">
        <ele>384.55</ele>
        <time>2019-04-13T06:58:41Z</time>
      </trkpt>
      <trkpt lat="43.54687" lon="5.89869">
        <ele>387.99</ele>
        <time>2019-04-13T06:58:49Z</time>
      </trkpt>
      <trkpt lat="43.54705" lon="5.89876">
        <ele>390.29</ele>
        <time>2019-04-13T06:58:55Z</time>
      </trkpt>
      <trkpt lat="43.54714" lon="5.899">
        <ele>392.57</ele>
        <time>2019-04-13T06:59:02Z</time>
      </trkpt>
      <trkpt lat="43.54716" lon="5.89928">
        <ele>396.05</ele>
        <time>2019-04-13T06:59:11Z</time>
      </trkpt>
      <trkpt lat="43.54723" lon="5.89957">
        <ele>399.92</ele>
        <time>2019-04-13T06:59:24Z</time>
      </trkpt>
      <trkpt lat="43.54736" lon="5.89976">
        <ele>400.66</ele>
        <time>2019-04-13T06:59:38Z</time>
      </trkpt>
      <trkpt lat="43.5475" lon="5.89992">
        <ele>401.07</ele>
        <time>2019-04-13T06:59:44Z</time>
      </trkpt>
      <trkpt lat="43.54768" lon="5.89991">
        <ele>400.19</ele>
        <time>2019-04-13T06:59:58Z</time>
      </trkpt>
      <trkpt lat="43.54787" lon="5.89988">
        <ele>402.12</ele>
        <time>2019-04-13T07:00:12Z</time>
      </trkpt>
      <trkpt lat="43.54806" lon="5.89986">
        <ele>400.98</ele>
        <time>2019-04-13T07:00:24Z</time>
      </trkpt>
      <trkpt lat="43.54824" lon="5.8998">
        <ele>402.12</ele>
        <time>2019-04-13T07:00:35Z</time>
      </trkpt>
      <trkpt lat="43.54843" lon="5.89973">
        <ele>403.25</ele>
        <time>2019-04-13T07:00:50Z</time>
      </trkpt>
      <trkpt lat="43.54862" lon="5.89978">
        <ele>404.42</ele>
        <time>2019-04-13T07:01:03Z</time>
      </trkpt>
      <trkpt lat="43.5488" lon="5.89971">
        <ele>405.12</ele>
        <time>2019-04-13T07:01:15Z</time>
      </trkpt>
      <trkpt lat="43.54898" lon="5.89965">
        <ele>406.62</ele>
        <time>2019-04-13T07:01:29Z</time>
      </trkpt>
      <trkpt lat="43.54915" lon="5.89976">
        <ele>409.65</ele>
        <time>2019-04-13T07:01:42Z</time>
      </trkpt>
      <trkpt lat="43.54931" lon="5.89988">
        <ele>412.98</ele>
        <time>2019-04-13T07:01:54Z</time>
      </trkpt>
      <trkpt lat="43.5495" lon="5.90003">
        <ele>414.6</ele>
        <time>2019-04-13T07:02:01Z</time>
      </trkpt>
      <trkpt lat="43.54968" lon="5.9001">
        <ele>419.09</ele>
        <time>2019-04-13T07:02:07Z</time>
      </trkpt>
      <trkpt lat="43.54984" lon="5.90022">
        <ele>422.84</ele>
        <time>2019-04-13T07:02:13Z</time>
      </trkpt>
      <trkpt lat="43.55003" lon="5.90033">
        <ele>425.98</ele>
        <time>2019-04-13T07:02:21Z</time>
      </trkpt>
      <trkpt lat="43.55021" lon="5.90043">
        <ele>421.73</ele>
        <time>2019-04-13T07:02:31Z</time>
      </trkpt>
      <trkpt lat="43.55037" lon="5.90055">
        <ele>421.93</ele>
        <time>2019-04-13T07:02:38Z</time>
      </trkpt>
      <trkpt lat="43.55056" lon="5.90054">
        <ele>425.54</ele>
        <time>2019-04-13T07:02:49Z</time>
      </trkpt>
      <trkpt lat="43.55074" lon="5.90056">
        <ele>423.06</ele>
        <time>2019-04-13T07:03:02Z</time>
      </trkpt>
      <trkpt lat="43.55092" lon="5.90064">
        <ele>424.49</ele>
        <time>2019-04-13T07:03:19Z</time>
      </trkpt>
      <trkpt lat="43.55103" lon="5.90095">
        <ele>407.45</ele>
        <time>2019-04-13T07:04:20Z</time>
      </trkpt>
      <trkpt lat="43.55121" lon="5.90096">
        <ele>391.09</ele>
        <time>2019-04-13T07:05:28Z</time>
      </trkpt>
      <trkpt lat="43.55141" lon="5.901">
        <ele>391.72</ele>
        <time>2019-04-13T07:05:38Z</time>
      </trkpt>
      <trkpt lat="43.55159" lon="5.90104">
        <ele>397.71</ele>
        <time>2019-04-13T07:05:50Z</time>
      </trkpt>
      <trkpt lat="43.55173" lon="5.90121">
        <ele>402.2</ele>
        <time>2019-04-13T07:05:57Z</time>
      </trkpt>
      <trkpt lat="43.55193" lon="5.90118">
        <ele>408.82</ele>
        <time>2019-04-13T07:06:09Z</time>
      </trkpt>
      <trkpt lat="43.55212" lon="5.90121">
        <ele>414.82</ele>
        <time>2019-04-13T07:06:20Z</time>
      </trkpt>
      <trkpt lat="43.55229" lon="5.90113">
        <ele>419.74</ele>
        <time>2019-04-13T07:06:36Z</time>
      </trkpt>
      <trkpt lat="43.55245" lon="5.90099">
        <ele>424.08</ele>
        <time>2019-04-13T07:06:45Z</time>
      </trkpt>
      <trkpt lat="43.55263" lon="5.90088">
        <ele>428.84</ele>
        <time>2019-04-13T07:06:55Z</time>
      </trkpt>
      <trkpt lat="43.5528" lon="5.9008">
        <ele>434.62</ele>
        <time>2019-04-13T07:07:06Z</time>
      </trkpt>
      <trkpt lat="43.55302" lon="5.90084">
        <ele>437.16</ele>
        <time>2019-04-13T07:07:15Z</time>
      </trkpt>
      <trkpt lat="43.55313" lon="5.90064">
        <ele>441.32</ele>
        <time>2019-04-13T07:07:25Z</time>
      </trkpt>
      <trkpt lat="43.55329" lon="5.90052">
        <ele>447.13</ele>
        <time>2019-04-13T07:07:36Z</time>
      </trkpt>
      <trkpt lat="43.55348" lon="5.90044">
        <ele>450.83</ele>
        <time>2019-04-13T07:07:45Z</time>
      </trkpt>
      <trkpt lat="43.55365" lon="5.9003">
        <ele>452.63</ele>
        <time>2019-04-13T07:07:53Z</time>
      </trkpt>
      <trkpt lat="43.55383" lon="5.90029">
        <ele>454.31</ele>
        <time>2019-04-13T07:08:03Z</time>
      </trkpt>
      <trkpt lat="43.55401" lon="5.9004">
        <ele>453.19</ele>
        <time>2019-04-13T07:08:11Z</time>
      </trkpt>
      <trkpt lat="43.55418" lon="5.90051">
        <ele>449.97</ele>
        <time>2019-04-13T07:08:18Z</time>
      </trkpt>
      <trkpt lat="43.55437" lon="5.90055">
        <ele>451.51</ele>
        <time>2019-04-13T07:08:24Z</time>
      </trkpt>
      <trkpt lat="43.55455" lon="5.9006">
        <ele>451.23</ele>
        <time>2019-04-13T07:08:33Z</time>
      </trkpt>
      <trkpt lat="43.55462" lon="5.90083">
        <ele>437.59</ele>
        <time>2019-04-13T07:09:41Z</time>
      </trkpt>
      <trkpt lat="43.55463" lon="5.9011">
        <ele>429</ele>
        <time>2019-04-13T07:09:49Z</time>
      </trkpt>
      <trkpt lat="43.55456" lon="5.90133">
        <ele>417.12</ele>
        <time>2019-04-13T07:09:56Z</time>
      </trkpt>
      <trkpt lat="43.55443" lon="5.9015">
        <ele>412.64</ele>
        <time>2019-04-13T07:10:03Z</time>
      </trkpt>
      <trkpt lat="43.55426" lon="5.90166">
        <ele>410.28</ele>
        <time>2019-04-13T07:10:09Z</time>
      </trkpt>
      <trkpt lat="43.55411" lon="5.90185">
        <ele>408.72</ele>
        <time>2019-04-13T07:10:15Z</time>
      </trkpt>
      <trkpt lat="43.55395" lon="5.90206">
        <ele>407.37</ele>
        <time>2019-04-13T07:10:20Z</time>
      </trkpt>
      <trkpt lat="43.55382" lon="5.90224">
        <ele>405.94</ele>
        <time>2019-04-13T07:10:24Z</time>
      </trkpt>
      <trkpt lat="43.55367" lon="5.90241">
        <ele>404.55</ele>
        <time>2019-04-13T07:10:29Z</time>
      </trkpt>
      <trkpt lat="43.55353" lon="5.90259">
        <ele>403.12</ele>
        <time>2019-04-13T07:10:34Z</time>
      </trkpt>
      <trkpt lat="43.55341" lon="5.90285">
        <ele>401.51</ele>
        <time>2019-04-13T07:10:39Z</time>
      </trkpt>
      <trkpt lat="43.55328" lon="5.90308">
        <ele>399.26</ele>
        <time>2019-04-13T07:10:44Z</time>
      </trkpt>
      <trkpt lat="43.55315" lon="5.90326">
        <ele>397.72</ele>
        <time>2019-04-13T07:10:48Z</time>
      </trkpt>
      <trkpt lat="43.55299" lon="5.90344">
        <ele>396.62</ele>
        <time>2019-04-13T07:10:53Z</time>
      </trkpt>
      <trkpt lat="43.55287" lon="5.90365">
        <ele>395.02</ele>
        <time>2019-04-13T07:10:57Z</time>
      </trkpt>
      <trkpt lat="43.55275" lon="5.90385">
        <ele>393.23</ele>
        <time>2019-04-13T07:11:01Z</time>
      </trkpt>
      <trkpt lat="43.55266" lon="5.90408">
        <ele>392.31</ele>
        <time>2019-04-13T07:11:06Z</time>
      </trkpt>
      <trkpt lat="43.55252" lon="5.90429">
        <ele>391.48</ele>
        <time>2019-04-13T07:11:11Z</time>
      </trkpt>
      <trkpt lat="43.55233" lon="5.90444">
        <ele>390.26</ele>
        <time>2019-04-13T07:11:16Z</time>
      </trkpt>
      <trkpt lat="43.55216" lon="5.90453">
        <ele>389.72</ele>
        <time>2019-04-13T07:11:20Z</time>
      </trkpt>
      <trkpt lat="43.55199" lon="5.90465">
        <ele>388.99</ele>
        <time>2019-04-13T07:11:24Z</time>
      </trkpt>
      <trkpt lat="43.55212" lon="5.90483">
        <ele>390.05</ele>
        <time>2019-04-13T07:11:42Z</time>
      </trkpt>
      <trkpt lat="43.5523" lon="5.90489">
        <ele>393.16</ele>
        <time>2019-04-13T07:11:48Z</time>
      </trkpt>
      <trkpt lat="43.55249" lon="5.90496">
        <ele>396.24</ele>
        <time>2019-04-13T07:11:54Z</time>
      </trkpt>
      <trkpt lat="43.55267" lon="5.90503">
        <ele>398.05</ele>
        <time>2019-04-13T07:11:59Z</time>
      </trkpt>
      <trkpt lat="43.55284" lon="5.90511">
        <ele>400.98</ele>
        <time>2019-04-13T07:12:05Z</time>
      </trkpt>
      <trkpt lat="43.55302" lon="5.90526">
        <ele>404.74</ele>
        <time>2019-04-13T07:12:13Z</time>
      </trkpt>
      <trkpt lat="43.55316" lon="5.90543">
        <ele>409.61</ele>
        <time>2019-04-13T07:12:21Z</time>
      </trkpt>
      <trkpt lat="43.55331" lon="5.90559">
        <ele>413.59</ele>
        <time>2019-04-13T07:12:27Z</time>
      </trkpt>
      <trkpt lat="43.55349" lon="5.90573">
        <ele>416.72</ele>
        <time>2019-04-13T07:12:32Z</time>
      </trkpt>
      <trkpt lat="43.55366" lon="5.90585">
        <ele>420.92</ele>
        <time>2019-04-13T07:12:40Z</time>
      </trkpt>
      <trkpt lat="43.55372" lon="5.90613">
        <ele>425.54</ele>
        <time>2019-04-13T07:12:49Z</time>
      </trkpt>
      <trkpt lat="43.55367" lon="5.90638">
        <ele>428.45</ele>
        <time>2019-04-13T07:12:56Z</time>
      </trkpt>
      <trkpt lat="43.55368" lon="5.90663">
        <ele>431.07</ele>
        <time>2019-04-13T07:13:04Z</time>
      </trkpt>
      <trkpt lat="43.55377" lon="5.90686">
        <ele>436.35</ele>
        <time>2019-04-13T07:13:18Z</time>
      </trkpt>
      <trkpt lat="43.55382" lon="5.90713">
        <ele>441.59</ele>
        <time>2019-04-13T07:13:29Z</time>
      </trkpt>
      <trkpt lat="43.55391" lon="5.90736">
        <ele>444.89</ele>
        <time>2019-04-13T07:13:39Z</time>
      </trkpt>
      <trkpt lat="43.55396" lon="5.9076">
        <ele>445.99</ele>
        <time>2019-04-13T07:13:46Z</time>
      </trkpt>
      <trkpt lat="43.55397" lon="5.90785">
        <ele>447.2</ele>
        <time>2019-04-13T07:13:55Z</time>
      </trkpt>
      <trkpt lat="43.55402" lon="5.90812">
        <ele>452.24</ele>
        <time>2019-04-13T07:14:09Z</time>
      </trkpt>
      <trkpt lat="43.55406" lon="5.90837">
        <ele>453.26</ele>
        <time>2019-04-13T07:14:16Z</time>
      </trkpt>
      <trkpt lat="43.55422" lon="5.90856">
        <ele>458.28</ele>
        <time>2019-04-13T07:14:28Z</time>
      </trkpt>
      <trkpt lat="43.5544" lon="5.90866">
        <ele>460.92</ele>
        <time>2019-04-13T07:14:35Z</time>
      </trkpt>
      <trkpt lat="43.55452" lon="5.90887">
        <ele>461.48</ele>
        <time>2019-04-13T07:14:42Z</time>
      </trkpt>
      <trkpt lat="43.55468" lon="5.90911">
        <ele>464.13</ele>
        <time>2019-04-13T07:14:49Z</time>
      </trkpt>
      <trkpt lat="43.55485" lon="5.90918">
        <ele>466.13</ele>
        <time>2019-04-13T07:14:53Z</time>
      </trkpt>
      <trkpt lat="43.55504" lon="5.9092">
        <ele>468.45</ele>
        <time>2019-04-13T07:15:00Z</time>
      </trkpt>
      <trkpt lat="43.55521" lon="5.90933">
        <ele>469.28</ele>
        <time>2019-04-13T07:15:08Z</time>
      </trkpt>
      <trkpt lat="43.5554" lon="5.9094">
        <ele>469.18</ele>
        <time>2019-04-13T07:15:17Z</time>
      </trkpt>
      <trkpt lat="43.55557" lon="5.90951">
        <ele>469.27</ele>
        <time>2019-04-13T07:15:29Z</time>
      </trkpt>
      <trkpt lat="43.55572" lon="5.90966">
        <ele>468.4</ele>
        <time>2019-04-13T07:15:40Z</time>
      </trkpt>
      <trkpt lat="43.55587" lon="5.90982">
        <ele>467.48</ele>
        <time>2019-04-13T07:15:47Z</time>
      </trkpt>
      <trkpt lat="43.55605" lon="5.90987">
        <ele>469.89</ele>
        <time>2019-04-13T07:15:59Z</time>
      </trkpt>
      <trkpt lat="43.55622" lon="5.90996">
        <ele>468.16</ele>
        <time>2019-04-13T07:16:15Z</time>
      </trkpt>
      <trkpt lat="43.55641" lon="5.90996">
        <ele>470.5</ele>
        <time>2019-04-13T07:16:27Z</time>
      </trkpt>
      <trkpt lat="43.5566" lon="5.91007">
        <ele>470.59</ele>
        <time>2019-04-13T07:16:35Z</time>
      </trkpt>
      <trkpt lat="43.55679" lon="5.90996">
        <ele>469.24</ele>
        <time>2019-04-13T07:16:43Z</time>
      </trkpt>
      <trkpt lat="43.55696" lon="5.90986">
        <ele>468.54</ele>
        <time>2019-04-13T07:16:49Z</time>
      </trkpt>
      <trkpt lat="43.55715" lon="5.90983">
        <ele>466.49</ele>
        <time>2019-04-13T07:16:56Z</time>
      </trkpt>
      <trkpt lat="43.55734" lon="5.90986">
        <ele>465.75</ele>
        <time>2019-04-13T07:17:05Z</time>
      </trkpt>
      <trkpt lat="43.55752" lon="5.9098">
        <ele>464.25</ele>
        <time>2019-04-13T07:17:17Z</time>
      </trkpt>
      <trkpt lat="43.55771" lon="5.9097">
        <ele>459.43</ele>
        <time>2019-04-13T07:17:33Z</time>
      </trkpt>
      <trkpt lat="43.55787" lon="5.90957">
        <ele>449.28</ele>
        <time>2019-04-13T07:17:45Z</time>
      </trkpt>
      <trkpt lat="43.55803" lon="5.90939">
        <ele>443.25</ele>
        <time>2019-04-13T07:17:56Z</time>
      </trkpt>
      <trkpt lat="43.55817" lon="5.90923">
        <ele>439.98</ele>
        <time>2019-04-13T07:18:08Z</time>
      </trkpt>
      <trkpt lat="43.55831" lon="5.90904">
        <ele>438.51</ele>
        <time>2019-04-13T07:18:17Z</time>
      </trkpt>
      <trkpt lat="43.55845" lon="5.90885">
        <ele>438.39</ele>
        <time>2019-04-13T07:18:23Z</time>
      </trkpt>
      <trkpt lat="43.55863" lon="5.90868">
        <ele>437.92</ele>
        <time>2019-04-13T07:18:30Z</time>
      </trkpt>
      <trkpt lat="43.55877" lon="5.90851">
        <ele>437.99</ele>
        <time>2019-04-13T07:18:37Z</time>
      </trkpt>
      <trkpt lat="43.55892" lon="5.90834">
        <ele>436.76</ele>
        <time>2019-04-13T07:18:42Z</time>
      </trkpt>
      <trkpt lat="43.5591" lon="5.90821">
        <ele>436.55</ele>
        <time>2019-04-13T07:18:49Z</time>
      </trkpt>
      <trkpt lat="43.55925" lon="5.90805">
        <ele>436.94</ele>
        <time>2019-04-13T07:18:55Z</time>
      </trkpt>
      <trkpt lat="43.55941" lon="5.90789">
        <ele>438.7</ele>
        <time>2019-04-13T07:19:01Z</time>
      </trkpt>
      <trkpt lat="43.55957" lon="5.90774">
        <ele>439.27</ele>
        <time>2019-04-13T07:19:08Z</time>
      </trkpt>
      <trkpt lat="43.55973" lon="5.90757">
        <ele>441.02</ele>
        <time>2019-04-13T07:19:16Z</time>
      </trkpt>
      <trkpt lat="43.5599" lon="5.90739">
        <ele>442.68</ele>
        <time>2019-04-13T07:19:23Z</time>
      </trkpt>
      <trkpt lat="43.56004" lon="5.90719">
        <ele>443.36</ele>
        <time>2019-04-13T07:19:29Z</time>
      </trkpt>
      <trkpt lat="43.5602" lon="5.90701">
        <ele>443.59</ele>
        <time>2019-04-13T07:19:35Z</time>
      </trkpt>
      <trkpt lat="43.56038" lon="5.90693">
        <ele>443.62</ele>
        <time>2019-04-13T07:19:40Z</time>
      </trkpt>
      <trkpt lat="43.56051" lon="5.90672">
        <ele>444.56</ele>
        <time>2019-04-13T07:19:48Z</time>
      </trkpt>
      <trkpt lat="43.56048" lon="5.90646">
        <ele>443.48</ele>
        <time>2019-04-13T07:19:56Z</time>
      </trkpt>
      <trkpt lat="43.56047" lon="5.90619">
        <ele>440.89</ele>
        <time>2019-04-13T07:20:04Z</time>
      </trkpt>
      <trkpt lat="43.56051" lon="5.90594">
        <ele>439.43</ele>
        <time>2019-04-13T07:20:11Z</time>
      </trkpt>
      <trkpt lat="43.5606" lon="5.90569">
        <ele>439.77</ele>
        <time>2019-04-13T07:20:17Z</time>
      </trkpt>
      <trkpt lat="43.56063" lon="5.90544">
        <ele>440.1</ele>
        <time>2019-04-13T07:20:24Z</time>
      </trkpt>
      <trkpt lat="43.5607" lon="5.90519">
        <ele>441.02</ele>
        <time>2019-04-13T07:20:32Z</time>
      </trkpt>
      <trkpt lat="43.56081" lon="5.90499">
        <ele>441.62</ele>
        <time>2019-04-13T07:20:40Z</time>
      </trkpt>
      <trkpt lat="43.56092" lon="5.90479">
        <ele>442.66</ele>
        <time>2019-04-13T07:20:47Z</time>
      </trkpt>
      <trkpt lat="43.56107" lon="5.90461">
        <ele>443.25</ele>
        <time>2019-04-13T07:20:53Z</time>
      </trkpt>
      <trkpt lat="43.56123" lon="5.90442">
        <ele>443.27</ele>
        <time>2019-04-13T07:20:57Z</time>
      </trkpt>
      <trkpt lat="43.56139" lon="5.90428">
        <ele>443.44</ele>
        <time>2019-04-13T07:21:04Z</time>
      </trkpt>
      <trkpt lat="43.56157" lon="5.90433">
        <ele>443.32</ele>
        <time>2019-04-13T07:21:12Z</time>
      </trkpt>
      <trkpt lat="43.56175" lon="5.90436">
        <ele>443.13</ele>
        <time>2019-04-13T07:21:19Z</time>
      </trkpt>
      <trkpt lat="43.56194" lon="5.90438">
        <ele>442.96</ele>
        <time>2019-04-13T07:21:32Z</time>
      </trkpt>
      <trkpt lat="43.56212" lon="5.90447">
        <ele>443.16</ele>
        <time>2019-04-13T07:21:42Z</time>
      </trkpt>
      <trkpt lat="43.56231" lon="5.90447">
        <ele>433.42</ele>
        <time>2019-04-13T07:21:57Z</time>
      </trkpt>
      <trkpt lat="43.56247" lon="5.90431">
        <ele>431.4</ele>
        <time>2019-04-13T07:22:09Z</time>
      </trkpt>
      <trkpt lat="43.56259" lon="5.90412">
        <ele>422.31</ele>
        <time>2019-04-13T07:22:18Z</time>
      </trkpt>
      <trkpt lat="43.56276" lon="5.90399">
        <ele>422.74</ele>
        <time>2019-04-13T07:22:23Z</time>
      </trkpt>
      <trkpt lat="43.56295" lon="5.90392">
        <ele>423.39</ele>
        <time>2019-04-13T07:23:24Z</time>
      </trkpt>
      <trkpt lat="43.56311" lon="5.90377">
        <ele>423.57</ele>
        <time>2019-04-13T07:23:36Z</time>
      </trkpt>
      <trkpt lat="43.56323" lon="5.90358">
        <ele>423.85</ele>
        <time>2019-04-13T07:23:48Z</time>
      </trkpt>
      <trkpt lat="43.56335" lon="5.90338">
        <ele>424.27</ele>
        <time>2019-04-13T07:24:01Z</time>
      </trkpt>
      <trkpt lat="43.56347" lon="5.90316">
        <ele>424.56</ele>
        <time>2019-04-13T07:24:09Z</time>
      </trkpt>
      <trkpt lat="43.56358" lon="5.90296">
        <ele>425.6</ele>
        <time>2019-04-13T07:24:15Z</time>
      </trkpt>
      <trkpt lat="43.5637" lon="5.90273">
        <ele>427.31</ele>
        <time>2019-04-13T07:24:22Z</time>
      </trkpt>
      <trkpt lat="43.56384" lon="5.90251">
        <ele>428.42</ele>
        <time>2019-04-13T07:24:28Z</time>
      </trkpt>
      <trkpt lat="43.56396" lon="5.90232">
        <ele>429.12</ele>
        <time>2019-04-13T07:24:35Z</time>
      </trkpt>
      <trkpt lat="43.56403" lon="5.90208">
        <ele>430.44</ele>
        <time>2019-04-13T07:24:41Z</time>
      </trkpt>
      <trkpt lat="43.56415" lon="5.90188">
        <ele>431.96</ele>
        <time>2019-04-13T07:24:49Z</time>
      </trkpt>
      <trkpt lat="43.56431" lon="5.90164">
        <ele>429.23</ele>
        <time>2019-04-13T07:25:32Z</time>
      </trkpt>
      <trkpt lat="43.56449" lon="5.90179">
        <ele>429.57</ele>
        <time>2019-04-13T07:27:30Z</time>
      </trkpt>
      <trkpt lat="43.56431" lon="5.90171">
        <ele>429.89</ele>
        <time>2019-04-13T07:31:47Z</time>
      </trkpt>
      <trkpt lat="43.56413" lon="5.90167">
        <ele>429.27</ele>
        <time>2019-04-13T07:32:33Z</time>
      </trkpt>
      <trkpt lat="43.56428" lon="5.90147">
        <ele>431.69</ele>
        <time>2019-04-13T07:33:36Z</time>
      </trkpt>
      <trkpt lat="43.56434" lon="5.90122">
        <ele>425.27</ele>
        <time>2019-04-13T07:37:02Z</time>
      </trkpt>
      <trkpt lat="43.56452" lon="5.90117">
        <ele>425.45</ele>
        <time>2019-04-13T07:37:12Z</time>
      </trkpt>
      <trkpt lat="43.56471" lon="5.90118">
        <ele>425.96</ele>
        <time>2019-04-13T07:37:21Z</time>
      </trkpt>
      <trkpt lat="43.5649" lon="5.90115">
        <ele>426.94</ele>
        <time>2019-04-13T07:37:28Z</time>
      </trkpt>
      <trkpt lat="43.56509" lon="5.90108">
        <ele>428.02</ele>
        <time>2019-04-13T07:37:35Z</time>
      </trkpt>
      <trkpt lat="43.56527" lon="5.90104">
        <ele>428.2</ele>
        <time>2019-04-13T07:37:41Z</time>
      </trkpt>
      <trkpt lat="43.56548" lon="5.90103">
        <ele>429.32</ele>
        <time>2019-04-13T07:37:47Z</time>
      </trkpt>
      <trkpt lat="43.56567" lon="5.901">
        <ele>430.61</ele>
        <time>2019-04-13T07:37:53Z</time>
      </trkpt>
      <trkpt lat="43.56582" lon="5.90084">
        <ele>431.52</ele>
        <time>2019-04-13T07:38:03Z</time>
      </trkpt>
      <trkpt lat="43.5659" lon="5.90061">
        <ele>433.74</ele>
        <time>2019-04-13T07:38:12Z</time>
      </trkpt>
      <trkpt lat="43.56603" lon="5.9004">
        <ele>434.74</ele>
        <time>2019-04-13T07:38:17Z</time>
      </trkpt>
      <trkpt lat="43.5662" lon="5.90029">
        <ele>435.64</ele>
        <time>2019-04-13T07:38:24Z</time>
      </trkpt>
      <trkpt lat="43.56637" lon="5.90014">
        <ele>435.75</ele>
        <time>2019-04-13T07:38:31Z</time>
      </trkpt>
      <trkpt lat="43.56655" lon="5.90006">
        <ele>436.06</ele>
        <time>2019-04-13T07:38:37Z</time>
      </trkpt>
      <trkpt lat="43.56671" lon="5.89993">
        <ele>436.17</ele>
        <time>2019-04-13T07:38:41Z</time>
      </trkpt>
      <trkpt lat="43.56689" lon="5.89983">
        <ele>436.72</ele>
        <time>2019-04-13T07:38:45Z</time>
      </trkpt>
      <trkpt lat="43.56708" lon="5.89982">
        <ele>436.87</ele>
        <time>2019-04-13T07:38:50Z</time>
      </trkpt>
      <trkpt lat="43.56728" lon="5.89971">
        <ele>436.37</ele>
        <time>2019-04-13T07:38:57Z</time>
      </trkpt>
      <trkpt lat="43.56744" lon="5.89956">
        <ele>437.05</ele>
        <time>2019-04-13T07:39:07Z</time>
      </trkpt>
      <trkpt lat="43.56761" lon="5.89948">
        <ele>437.7</ele>
        <time>2019-04-13T07:39:19Z</time>
      </trkpt>
      <trkpt lat="43.56777" lon="5.89933">
        <ele>439.92</ele>
        <time>2019-04-13T07:39:31Z</time>
      </trkpt>
      <trkpt lat="43.56794" lon="5.89918">
        <ele>441.74</ele>
        <time>2019-04-13T07:39:42Z</time>
      </trkpt>
      <trkpt lat="43.5681" lon="5.89905">
        <ele>444.52</ele>
        <time>2019-04-13T07:39:58Z</time>
      </trkpt>
      <trkpt lat="43.56827" lon="5.89894">
        <ele>446.26</ele>
        <time>2019-04-13T07:40:08Z</time>
      </trkpt>
      <trkpt lat="43.5684" lon="5.89877">
        <ele>446.27</ele>
        <time>2019-04-13T07:40:16Z</time>
      </trkpt>
      <trkpt lat="43.56857" lon="5.89861">
        <ele>446.84</ele>
        <time>2019-04-13T07:40:27Z</time>
      </trkpt>
      <trkpt lat="43.56873" lon="5.89849">
        <ele>449.34</ele>
        <time>2019-04-13T07:40:44Z</time>
      </trkpt>
      <trkpt lat="43.56889" lon="5.89834">
        <ele>450.05</ele>
        <time>2019-04-13T07:40:53Z</time>
      </trkpt>
      <trkpt lat="43.56905" lon="5.89822">
        <ele>451.14</ele>
        <time>2019-04-13T07:41:04Z</time>
      </trkpt>
      <trkpt lat="43.56922" lon="5.89812">
        <ele>453.72</ele>
        <time>2019-04-13T07:41:18Z</time>
      </trkpt>
      <trkpt lat="43.5694" lon="5.89808">
        <ele>455.44</ele>
        <time>2019-04-13T07:41:31Z</time>
      </trkpt>
      <trkpt lat="43.56958" lon="5.898">
        <ele>456.17</ele>
        <time>2019-04-13T07:41:44Z</time>
      </trkpt>
      <trkpt lat="43.56971" lon="5.89783">
        <ele>456.35</ele>
        <time>2019-04-13T07:41:53Z</time>
      </trkpt>
      <trkpt lat="43.56989" lon="5.89773">
        <ele>456.35</ele>
        <time>2019-04-13T07:42:04Z</time>
      </trkpt>
      <trkpt lat="43.57008" lon="5.89771">
        <ele>457.23</ele>
        <time>2019-04-13T07:42:17Z</time>
      </trkpt>
      <trkpt lat="43.57026" lon="5.89776">
        <ele>458.44</ele>
        <time>2019-04-13T07:42:29Z</time>
      </trkpt>
      <trkpt lat="43.57045" lon="5.89775">
        <ele>459.14</ele>
        <time>2019-04-13T07:42:42Z</time>
      </trkpt>
      <trkpt lat="43.57064" lon="5.89767">
        <ele>461.25</ele>
        <time>2019-04-13T07:43:01Z</time>
      </trkpt>
      <trkpt lat="43.57081" lon="5.8976">
        <ele>462.24</ele>
        <time>2019-04-13T07:43:20Z</time>
      </trkpt>
      <trkpt lat="43.57099" lon="5.89767">
        <ele>463.9</ele>
        <time>2019-04-13T07:43:42Z</time>
      </trkpt>
      <trkpt lat="43.57116" lon="5.89775">
        <ele>466.42</ele>
        <time>2019-04-13T07:44:00Z</time>
      </trkpt>
      <trkpt lat="43.57132" lon="5.8979">
        <ele>467.77</ele>
        <time>2019-04-13T07:44:20Z</time>
      </trkpt>
      <trkpt lat="43.5715" lon="5.89793">
        <ele>470.78</ele>
        <time>2019-04-13T07:44:42Z</time>
      </trkpt>
      <trkpt lat="43.57167" lon="5.89802">
        <ele>475.44</ele>
        <time>2019-04-13T07:45:04Z</time>
      </trkpt>
      <trkpt lat="43.57185" lon="5.89801">
        <ele>478.64</ele>
        <time>2019-04-13T07:45:25Z</time>
      </trkpt>
      <trkpt lat="43.57203" lon="5.89808">
        <ele>483.82</ele>
        <time>2019-04-13T07:45:48Z</time>
      </trkpt>
      <trkpt lat="43.5722" lon="5.89818">
        <ele>486.44</ele>
        <time>2019-04-13T07:46:09Z</time>
      </trkpt>
      <trkpt lat="43.57238" lon="5.89809">
        <ele>485.97</ele>
        <time>2019-04-13T07:46:30Z</time>
      </trkpt>
      <trkpt lat="43.57255" lon="5.89819">
        <ele>490.89</ele>
        <time>2019-04-13T07:46:51Z</time>
      </trkpt>
      <trkpt lat="43.57273" lon="5.89822">
        <ele>493.62</ele>
        <time>2019-04-13T07:47:14Z</time>
      </trkpt>
      <trkpt lat="43.57291" lon="5.89832">
        <ele>493.99</ele>
        <time>2019-04-13T07:49:04Z</time>
      </trkpt>
      <trkpt lat="43.57308" lon="5.8982">
        <ele>493.77</ele>
        <time>2019-04-13T07:49:13Z</time>
      </trkpt>
      <trkpt lat="43.57325" lon="5.89807">
        <ele>493.39</ele>
        <time>2019-04-13T07:49:21Z</time>
      </trkpt>
      <trkpt lat="43.57339" lon="5.89787">
        <ele>492.27</ele>
        <time>2019-04-13T07:49:27Z</time>
      </trkpt>
      <trkpt lat="43.57355" lon="5.89775">
        <ele>491.99</ele>
        <time>2019-04-13T07:49:49Z</time>
      </trkpt>
      <trkpt lat="43.57372" lon="5.8976">
        <ele>492.86</ele>
        <time>2019-04-13T07:49:57Z</time>
      </trkpt>
      <trkpt lat="43.57385" lon="5.89742">
        <ele>492.67</ele>
        <time>2019-04-13T07:50:05Z</time>
      </trkpt>
      <trkpt lat="43.57398" lon="5.89721">
        <ele>491.79</ele>
        <time>2019-04-13T07:50:13Z</time>
      </trkpt>
      <trkpt lat="43.57411" lon="5.897">
        <ele>491.59</ele>
        <time>2019-04-13T07:50:19Z</time>
      </trkpt>
      <trkpt lat="43.57429" lon="5.89672">
        <ele>490.03</ele>
        <time>2019-04-13T07:50:24Z</time>
      </trkpt>
      <trkpt lat="43.57448" lon="5.89662">
        <ele>489.27</ele>
        <time>2019-04-13T07:50:28Z</time>
      </trkpt>
      <trkpt lat="43.57464" lon="5.89649">
        <ele>488.67</ele>
        <time>2019-04-13T07:50:33Z</time>
      </trkpt>
      <trkpt lat="43.57483" lon="5.89643">
        <ele>487.27</ele>
        <time>2019-04-13T07:50:42Z</time>
      </trkpt>
      <trkpt lat="43.57501" lon="5.89643">
        <ele>487.09</ele>
        <time>2019-04-13T07:50:53Z</time>
      </trkpt>
      <trkpt lat="43.5752" lon="5.89641">
        <ele>490.25</ele>
        <time>2019-04-13T07:51:04Z</time>
      </trkpt>
      <trkpt lat="43.57539" lon="5.89643">
        <ele>488.45</ele>
        <time>2019-04-13T07:51:42Z</time>
      </trkpt>
      <trkpt lat="43.57558" lon="5.89642">
        <ele>488.27</ele>
        <time>2019-04-13T07:51:54Z</time>
      </trkpt>
      <trkpt lat="43.57574" lon="5.89627">
        <ele>487.52</ele>
        <time>2019-04-13T07:52:14Z</time>
      </trkpt>
      <trkpt lat="43.57579" lon="5.89602">
        <ele>490.01</ele>
        <time>2019-04-13T07:52:29Z</time>
      </trkpt>
      <trkpt lat="43.57585" lon="5.89578">
        <ele>493.49</ele>
        <time>2019-04-13T07:52:41Z</time>
      </trkpt>
      <trkpt lat="43.57593" lon="5.89556">
        <ele>496.76</ele>
        <time>2019-04-13T07:52:53Z</time>
      </trkpt>
      <trkpt lat="43.57602" lon="5.89526">
        <ele>498.71</ele>
        <time>2019-04-13T07:53:35Z</time>
      </trkpt>
      <trkpt lat="43.57613" lon="5.89506">
        <ele>498.27</ele>
        <time>2019-04-13T07:53:46Z</time>
      </trkpt>
      <trkpt lat="43.5763" lon="5.8949">
        <ele>498.57</ele>
        <time>2019-04-13T07:53:55Z</time>
      </trkpt>
      <trkpt lat="43.57645" lon="5.89477">
        <ele>498.45</ele>
        <time>2019-04-13T07:54:01Z</time>
      </trkpt>
      <trkpt lat="43.57664" lon="5.89464">
        <ele>498.35</ele>
        <time>2019-04-13T07:54:07Z</time>
      </trkpt>
      <trkpt lat="43.57683" lon="5.89453">
        <ele>499.62</ele>
        <time>2019-04-13T07:54:13Z</time>
      </trkpt>
      <trkpt lat="43.577" lon="5.89441">
        <ele>500.72</ele>
        <time>2019-04-13T07:54:19Z</time>
      </trkpt>
      <trkpt lat="43.57714" lon="5.89425">
        <ele>501.23</ele>
        <time>2019-04-13T07:54:26Z</time>
      </trkpt>
      <trkpt lat="43.5771" lon="5.89399">
        <ele>503.32</ele>
        <time>2019-04-13T07:54:36Z</time>
      </trkpt>
      <trkpt lat="43.57702" lon="5.89375">
        <ele>507.47</ele>
        <time>2019-04-13T07:54:47Z</time>
      </trkpt>
      <trkpt lat="43.57694" lon="5.89352">
        <ele>510.51</ele>
        <time>2019-04-13T07:54:55Z</time>
      </trkpt>
      <trkpt lat="43.57692" lon="5.89327">
        <ele>515.42</ele>
        <time>2019-04-13T07:55:05Z</time>
      </trkpt>
      <trkpt lat="43.57701" lon="5.89304">
        <ele>521.14</ele>
        <time>2019-04-13T07:55:16Z</time>
      </trkpt>
      <trkpt lat="43.57718" lon="5.89287">
        <ele>523.69</ele>
        <time>2019-04-13T07:55:25Z</time>
      </trkpt>
      <trkpt lat="43.57734" lon="5.89273">
        <ele>524.74</ele>
        <time>2019-04-13T07:55:32Z</time>
      </trkpt>
      <trkpt lat="43.5775" lon="5.89263">
        <ele>526.18</ele>
        <time>2019-04-13T07:55:42Z</time>
      </trkpt>
      <trkpt lat="43.57767" lon="5.89253">
        <ele>526.4</ele>
        <time>2019-04-13T07:55:52Z</time>
      </trkpt>
      <trkpt lat="43.57786" lon="5.89242">
        <ele>526.95</ele>
        <time>2019-04-13T07:56:00Z</time>
      </trkpt>
      <trkpt lat="43.57803" lon="5.89234">
        <ele>527.55</ele>
        <time>2019-04-13T07:56:07Z</time>
      </trkpt>
      <trkpt lat="43.57822" lon="5.89227">
        <ele>525.62</ele>
        <time>2019-04-13T07:56:27Z</time>
      </trkpt>
      <trkpt lat="43.5784" lon="5.8922">
        <ele>524.37</ele>
        <time>2019-04-13T07:56:37Z</time>
      </trkpt>
      <trkpt lat="43.57856" lon="5.89207">
        <ele>524.35</ele>
        <time>2019-04-13T07:56:47Z</time>
      </trkpt>
      <trkpt lat="43.57874" lon="5.89206">
        <ele>526.67</ele>
        <time>2019-04-13T07:57:04Z</time>
      </trkpt>
      <trkpt lat="43.57884" lon="5.89227">
        <ele>532.44</ele>
        <time>2019-04-13T07:57:18Z</time>
      </trkpt>
      <trkpt lat="43.57893" lon="5.89249">
        <ele>537.74</ele>
        <time>2019-04-13T07:57:29Z</time>
      </trkpt>
      <trkpt lat="43.57895" lon="5.89275">
        <ele>543.02</ele>
        <time>2019-04-13T07:57:39Z</time>
      </trkpt>
      <trkpt lat="43.57899" lon="5.89299">
        <ele>550.12</ele>
        <time>2019-04-13T07:57:51Z</time>
      </trkpt>
      <trkpt lat="43.57909" lon="5.89324">
        <ele>557.7</ele>
        <time>2019-04-13T07:58:03Z</time>
      </trkpt>
      <trkpt lat="43.57921" lon="5.89344">
        <ele>564.9</ele>
        <time>2019-04-13T07:58:15Z</time>
      </trkpt>
      <trkpt lat="43.57937" lon="5.89356">
        <ele>571.42</ele>
        <time>2019-04-13T07:58:26Z</time>
      </trkpt>
      <trkpt lat="43.57951" lon="5.89374">
        <ele>577.72</ele>
        <time>2019-04-13T07:58:36Z</time>
      </trkpt>
      <trkpt lat="43.57967" lon="5.89387">
        <ele>582.52</ele>
        <time>2019-04-13T07:58:46Z</time>
      </trkpt>
      <trkpt lat="43.57983" lon="5.89402">
        <ele>586.18</ele>
        <time>2019-04-13T07:58:56Z</time>
      </trkpt>
      <trkpt lat="43.57999" lon="5.89417">
        <ele>589.39</ele>
        <time>2019-04-13T07:59:07Z</time>
      </trkpt>
      <trkpt lat="43.58017" lon="5.89429">
        <ele>586.44</ele>
        <time>2019-04-13T07:59:36Z</time>
      </trkpt>
      <trkpt lat="43.58029" lon="5.8945">
        <ele>576.32</ele>
        <time>2019-04-13T07:59:41Z</time>
      </trkpt>
      <trkpt lat="43.5805" lon="5.89451">
        <ele>570.15</ele>
        <time>2019-04-13T07:59:48Z</time>
      </trkpt>
      <trkpt lat="43.58069" lon="5.89453">
        <ele>562.13</ele>
        <time>2019-04-13T07:59:54Z</time>
      </trkpt>
      <trkpt lat="43.58088" lon="5.89452">
        <ele>554.43</ele>
        <time>2019-04-13T08:00:00Z</time>
      </trkpt>
      <trkpt lat="43.58106" lon="5.8945">
        <ele>546.36</ele>
        <time>2019-04-13T08:00:06Z</time>
      </trkpt>
      <trkpt lat="43.58123" lon="5.8946">
        <ele>541.92</ele>
        <time>2019-04-13T08:00:16Z</time>
      </trkpt>
      <trkpt lat="43.58126" lon="5.89486">
        <ele>536.44</ele>
        <time>2019-04-13T08:00:26Z</time>
      </trkpt>
      <trkpt lat="43.58117" lon="5.8951">
        <ele>528.78</ele>
        <time>2019-04-13T08:00:38Z</time>
      </trkpt>
      <trkpt lat="43.58103" lon="5.89526">
        <ele>526.62</ele>
        <time>2019-04-13T08:00:45Z</time>
      </trkpt>
      <trkpt lat="43.58094" lon="5.8955">
        <ele>524.79</ele>
        <time>2019-04-13T08:00:54Z</time>
      </trkpt>
      <trkpt lat="43.58089" lon="5.89575">
        <ele>524.28</ele>
        <time>2019-04-13T08:01:01Z</time>
      </trkpt>
      <trkpt lat="43.58083" lon="5.89602">
        <ele>523.99</ele>
        <time>2019-04-13T08:01:08Z</time>
      </trkpt>
      <trkpt lat="43.58079" lon="5.89628">
        <ele>524.06</ele>
        <time>2019-04-13T08:01:13Z</time>
      </trkpt>
      <trkpt lat="43.58069" lon="5.89652">
        <ele>523.87</ele>
        <time>2019-04-13T08:01:19Z</time>
      </trkpt>
      <trkpt lat="43.58059" lon="5.89677">
        <ele>524.07</ele>
        <time>2019-04-13T08:01:26Z</time>
      </trkpt>
      <trkpt lat="43.58051" lon="5.897">
        <ele>524.07</ele>
        <time>2019-04-13T08:01:31Z</time>
      </trkpt>
      <trkpt lat="43.58047" lon="5.89728">
        <ele>523.87</ele>
        <time>2019-04-13T08:01:36Z</time>
      </trkpt>
      <trkpt lat="43.58039" lon="5.89755">
        <ele>523.9</ele>
        <time>2019-04-13T08:01:42Z</time>
      </trkpt>
      <trkpt lat="43.58026" lon="5.89773">
        <ele>523.67</ele>
        <time>2019-04-13T08:01:46Z</time>
      </trkpt>
      <trkpt lat="43.58016" lon="5.89797">
        <ele>524.04</ele>
        <time>2019-04-13T08:01:51Z</time>
      </trkpt>
      <trkpt lat="43.58013" lon="5.89824">
        <ele>524.64</ele>
        <time>2019-04-13T08:01:57Z</time>
      </trkpt>
      <trkpt lat="43.58008" lon="5.89851">
        <ele>525.72</ele>
        <time>2019-04-13T08:02:04Z</time>
      </trkpt>
      <trkpt lat="43.58004" lon="5.89878">
        <ele>527.61</ele>
        <time>2019-04-13T08:02:11Z</time>
      </trkpt>
      <trkpt lat="43.57995" lon="5.899">
        <ele>528.74</ele>
        <time>2019-04-13T08:02:18Z</time>
      </trkpt>
      <trkpt lat="43.57986" lon="5.89923">
        <ele>530.1</ele>
        <time>2019-04-13T08:02:25Z</time>
      </trkpt>
      <trkpt lat="43.57982" lon="5.89947">
        <ele>533.19</ele>
        <time>2019-04-13T08:02:35Z</time>
      </trkpt>
      <trkpt lat="43.57975" lon="5.89972">
        <ele>536.27</ele>
        <time>2019-04-13T08:02:44Z</time>
      </trkpt>
      <trkpt lat="43.57972" lon="5.89998">
        <ele>539.39</ele>
        <time>2019-04-13T08:02:52Z</time>
      </trkpt>
      <trkpt lat="43.57961" lon="5.9002">
        <ele>542.45</ele>
        <time>2019-04-13T08:03:00Z</time>
      </trkpt>
      <trkpt lat="43.57953" lon="5.90044">
        <ele>545.4</ele>
        <time>2019-04-13T08:03:09Z</time>
      </trkpt>
      <trkpt lat="43.57947" lon="5.90067">
        <ele>548.07</ele>
        <time>2019-04-13T08:03:18Z</time>
      </trkpt>
      <trkpt lat="43.57939" lon="5.90092">
        <ele>550.69</ele>
        <time>2019-04-13T08:03:27Z</time>
      </trkpt>
      <trkpt lat="43.57934" lon="5.90118">
        <ele>552.82</ele>
        <time>2019-04-13T08:03:36Z</time>
      </trkpt>
      <trkpt lat="43.57927" lon="5.90142">
        <ele>554.17</ele>
        <time>2019-04-13T08:03:43Z</time>
      </trkpt>
      <trkpt lat="43.5792" lon="5.90166">
        <ele>555.75</ele>
        <time>2019-04-13T08:03:50Z</time>
      </trkpt>
      <trkpt lat="43.57914" lon="5.90192">
        <ele>556.56</ele>
        <time>2019-04-13T08:03:58Z</time>
      </trkpt>
      <trkpt lat="43.57904" lon="5.90215">
        <ele>556.76</ele>
        <time>2019-04-13T08:04:07Z</time>
      </trkpt>
      <trkpt lat="43.57895" lon="5.90242">
        <ele>556.07</ele>
        <time>2019-04-13T08:04:15Z</time>
      </trkpt>
      <trkpt lat="43.57886" lon="5.90264">
        <ele>555.67</ele>
        <time>2019-04-13T08:04:21Z</time>
      </trkpt>
      <trkpt lat="43.57877" lon="5.9029">
        <ele>555.15</ele>
        <time>2019-04-13T08:04:27Z</time>
      </trkpt>
      <trkpt lat="43.57875" lon="5.90318">
        <ele>555.4</ele>
        <time>2019-04-13T08:04:32Z</time>
      </trkpt>
      <trkpt lat="43.57874" lon="5.90349">
        <ele>554.5</ele>
        <time>2019-04-13T08:04:37Z</time>
      </trkpt>
      <trkpt lat="43.57873" lon="5.90378">
        <ele>553.82</ele>
        <time>2019-04-13T08:04:41Z</time>
      </trkpt>
      <trkpt lat="43.57872" lon="5.90404">
        <ele>553.75</ele>
        <time>2019-04-13T08:04:45Z</time>
      </trkpt>
      <trkpt lat="43.57871" lon="5.9043">
        <ele>554.16</ele>
        <time>2019-04-13T08:04:49Z</time>
      </trkpt>
      <trkpt lat="43.57871" lon="5.90457">
        <ele>554.27</ele>
        <time>2019-04-13T08:04:53Z</time>
      </trkpt>
      <trkpt lat="43.57871" lon="5.90482">
        <ele>553.81</ele>
        <time>2019-04-13T08:04:57Z</time>
      </trkpt>
      <trkpt lat="43.57867" lon="5.90511">
        <ele>553.12</ele>
        <time>2019-04-13T08:05:01Z</time>
      </trkpt>
      <trkpt lat="43.57862" lon="5.90538">
        <ele>552.22</ele>
        <time>2019-04-13T08:05:05Z</time>
      </trkpt>
      <trkpt lat="43.57845" lon="5.90556">
        <ele>551.46</ele>
        <time>2019-04-13T08:05:09Z</time>
      </trkpt>
      <trkpt lat="43.57841" lon="5.90582">
        <ele>549.17</ele>
        <time>2019-04-13T08:05:14Z</time>
      </trkpt>
      <trkpt lat="43.57837" lon="5.9061">
        <ele>544.73</ele>
        <time>2019-04-13T08:05:20Z</time>
      </trkpt>
      <trkpt lat="43.57835" lon="5.90636">
        <ele>542.43</ele>
        <time>2019-04-13T08:05:24Z</time>
      </trkpt>
      <trkpt lat="43.5783" lon="5.90663">
        <ele>539.34</ele>
        <time>2019-04-13T08:05:28Z</time>
      </trkpt>
      <trkpt lat="43.57821" lon="5.90684">
        <ele>536.89</ele>
        <time>2019-04-13T08:05:33Z</time>
      </trkpt>
      <trkpt lat="43.57809" lon="5.90705">
        <ele>534.04</ele>
        <time>2019-04-13T08:05:39Z</time>
      </trkpt>
      <trkpt lat="43.57794" lon="5.90724">
        <ele>529.77</ele>
        <time>2019-04-13T08:05:47Z</time>
      </trkpt>
      <trkpt lat="43.57781" lon="5.90745">
        <ele>526.71</ele>
        <time>2019-04-13T08:05:53Z</time>
      </trkpt>
      <trkpt lat="43.57768" lon="5.90767">
        <ele>522.45</ele>
        <time>2019-04-13T08:06:03Z</time>
      </trkpt>
      <trkpt lat="43.57751" lon="5.90781">
        <ele>520</ele>
        <time>2019-04-13T08:06:12Z</time>
      </trkpt>
      <trkpt lat="43.57737" lon="5.90798">
        <ele>518.12</ele>
        <time>2019-04-13T08:06:22Z</time>
      </trkpt>
      <trkpt lat="43.57721" lon="5.90811">
        <ele>516.94</ele>
        <time>2019-04-13T08:06:29Z</time>
      </trkpt>
      <trkpt lat="43.57708" lon="5.90828">
        <ele>515.52</ele>
        <time>2019-04-13T08:06:37Z</time>
      </trkpt>
      <trkpt lat="43.57684" lon="5.90847">
        <ele>514.5</ele>
        <time>2019-04-13T08:06:44Z</time>
      </trkpt>
      <trkpt lat="43.57667" lon="5.90863">
        <ele>514</ele>
        <time>2019-04-13T08:06:50Z</time>
      </trkpt>
      <trkpt lat="43.57653" lon="5.90882">
        <ele>512.64</ele>
        <time>2019-04-13T08:06:57Z</time>
      </trkpt>
      <trkpt lat="43.57643" lon="5.90904">
        <ele>511.3</ele>
        <time>2019-04-13T08:07:03Z</time>
      </trkpt>
      <trkpt lat="43.5763" lon="5.90922">
        <ele>510.79</ele>
        <time>2019-04-13T08:07:08Z</time>
      </trkpt>
      <trkpt lat="43.57616" lon="5.90942">
        <ele>510.39</ele>
        <time>2019-04-13T08:07:13Z</time>
      </trkpt>
      <trkpt lat="43.57604" lon="5.90964">
        <ele>509.12</ele>
        <time>2019-04-13T08:07:18Z</time>
      </trkpt>
      <trkpt lat="43.57593" lon="5.90986">
        <ele>508.42</ele>
        <time>2019-04-13T08:07:24Z</time>
      </trkpt>
      <trkpt lat="43.57584" lon="5.91011">
        <ele>508.48</ele>
        <time>2019-04-13T08:07:33Z</time>
      </trkpt>
      <trkpt lat="43.57578" lon="5.91036">
        <ele>508.84</ele>
        <time>2019-04-13T08:07:41Z</time>
      </trkpt>
      <trkpt lat="43.57579" lon="5.91063">
        <ele>510.82</ele>
        <time>2019-04-13T08:07:50Z</time>
      </trkpt>
      <trkpt lat="43.57581" lon="5.9109">
        <ele>514.72</ele>
        <time>2019-04-13T08:08:00Z</time>
      </trkpt>
      <trkpt lat="43.57589" lon="5.91122">
        <ele>523.27</ele>
        <time>2019-04-13T08:08:37Z</time>
      </trkpt>
      <trkpt lat="43.57606" lon="5.91133">
        <ele>522.83</ele>
        <time>2019-04-13T08:08:53Z</time>
      </trkpt>
      <trkpt lat="43.57621" lon="5.9115">
        <ele>523.47</ele>
        <time>2019-04-13T08:09:04Z</time>
      </trkpt>
      <trkpt lat="43.57635" lon="5.91167">
        <ele>522.97</ele>
        <time>2019-04-13T08:09:13Z</time>
      </trkpt>
      <trkpt lat="43.57653" lon="5.91174">
        <ele>523.89</ele>
        <time>2019-04-13T08:09:24Z</time>
      </trkpt>
      <trkpt lat="43.57672" lon="5.9117">
        <ele>525.52</ele>
        <time>2019-04-13T08:09:37Z</time>
      </trkpt>
      <trkpt lat="43.57692" lon="5.91169">
        <ele>525.65</ele>
        <time>2019-04-13T08:09:51Z</time>
      </trkpt>
      <trkpt lat="43.5771" lon="5.91166">
        <ele>528.64</ele>
        <time>2019-04-13T08:10:05Z</time>
      </trkpt>
      <trkpt lat="43.57729" lon="5.91165">
        <ele>530.98</ele>
        <time>2019-04-13T08:10:17Z</time>
      </trkpt>
      <trkpt lat="43.57747" lon="5.91163">
        <ele>529.24</ele>
        <time>2019-04-13T08:10:29Z</time>
      </trkpt>
      <trkpt lat="43.57767" lon="5.91163">
        <ele>529.98</ele>
        <time>2019-04-13T08:10:42Z</time>
      </trkpt>
      <trkpt lat="43.57785" lon="5.91161">
        <ele>531.84</ele>
        <time>2019-04-13T08:10:53Z</time>
      </trkpt>
      <trkpt lat="43.57804" lon="5.91161">
        <ele>537.07</ele>
        <time>2019-04-13T08:11:07Z</time>
      </trkpt>
      <trkpt lat="43.57822" lon="5.91162">
        <ele>542.2</ele>
        <time>2019-04-13T08:11:19Z</time>
      </trkpt>
      <trkpt lat="43.57834" lon="5.91181">
        <ele>548.38</ele>
        <time>2019-04-13T08:11:37Z</time>
      </trkpt>
      <trkpt lat="43.57838" lon="5.91207">
        <ele>556.5</ele>
        <time>2019-04-13T08:11:51Z</time>
      </trkpt>
      <trkpt lat="43.57837" lon="5.91233">
        <ele>559.89</ele>
        <time>2019-04-13T08:11:59Z</time>
      </trkpt>
      <trkpt lat="43.57839" lon="5.91258">
        <ele>561.04</ele>
        <time>2019-04-13T08:12:07Z</time>
      </trkpt>
      <trkpt lat="43.57832" lon="5.91281">
        <ele>562.72</ele>
        <time>2019-04-13T08:12:17Z</time>
      </trkpt>
      <trkpt lat="43.57828" lon="5.91307">
        <ele>563.76</ele>
        <time>2019-04-13T08:12:28Z</time>
      </trkpt>
      <trkpt lat="43.57816" lon="5.91329">
        <ele>564.37</ele>
        <time>2019-04-13T08:12:37Z</time>
      </trkpt>
      <trkpt lat="43.57808" lon="5.91353">
        <ele>566.92</ele>
        <time>2019-04-13T08:12:48Z</time>
      </trkpt>
      <trkpt lat="43.57799" lon="5.91376">
        <ele>567.1</ele>
        <time>2019-04-13T08:12:59Z</time>
      </trkpt>
      <trkpt lat="43.57789" lon="5.91397">
        <ele>567.49</ele>
        <time>2019-04-13T08:13:07Z</time>
      </trkpt>
      <trkpt lat="43.57781" lon="5.91421">
        <ele>566.79</ele>
        <time>2019-04-13T08:13:16Z</time>
      </trkpt>
      <trkpt lat="43.57771" lon="5.91443">
        <ele>563.87</ele>
        <time>2019-04-13T08:13:28Z</time>
      </trkpt>
      <trkpt lat="43.57761" lon="5.91466">
        <ele>559.29</ele>
        <time>2019-04-13T08:13:37Z</time>
      </trkpt>
      <trkpt lat="43.57752" lon="5.9149">
        <ele>555.34</ele>
        <time>2019-04-13T08:13:51Z</time>
      </trkpt>
      <trkpt lat="43.57734" lon="5.91508">
        <ele>546.09</ele>
        <time>2019-04-13T08:14:27Z</time>
      </trkpt>
      <trkpt lat="43.57735" lon="5.91533">
        <ele>528.94</ele>
        <time>2019-04-13T08:18:01Z</time>
      </trkpt>
      <trkpt lat="43.57723" lon="5.91554">
        <ele>530.16</ele>
        <time>2019-04-13T08:18:10Z</time>
      </trkpt>
      <trkpt lat="43.57717" lon="5.91577">
        <ele>531.5</ele>
        <time>2019-04-13T08:18:20Z</time>
      </trkpt>
      <trkpt lat="43.57715" lon="5.91603">
        <ele>533.02</ele>
        <time>2019-04-13T08:18:27Z</time>
      </trkpt>
      <trkpt lat="43.57699" lon="5.91625">
        <ele>533.01</ele>
        <time>2019-04-13T08:18:31Z</time>
      </trkpt>
      <trkpt lat="43.57692" lon="5.91652">
        <ele>532.22</ele>
        <time>2019-04-13T08:18:37Z</time>
      </trkpt>
      <trkpt lat="43.57684" lon="5.91677">
        <ele>530.26</ele>
        <time>2019-04-13T08:18:42Z</time>
      </trkpt>
      <trkpt lat="43.5768" lon="5.91701">
        <ele>528.6</ele>
        <time>2019-04-13T08:18:46Z</time>
      </trkpt>
      <trkpt lat="43.57673" lon="5.91726">
        <ele>524.15</ele>
        <time>2019-04-13T08:18:51Z</time>
      </trkpt>
      <trkpt lat="43.57661" lon="5.91745">
        <ele>519.74</ele>
        <time>2019-04-13T08:18:55Z</time>
      </trkpt>
      <trkpt lat="43.57651" lon="5.91766">
        <ele>516.54</ele>
        <time>2019-04-13T08:19:00Z</time>
      </trkpt>
      <trkpt lat="43.57643" lon="5.91793">
        <ele>512.72</ele>
        <time>2019-04-13T08:19:07Z</time>
      </trkpt>
      <trkpt lat="43.5764" lon="5.9182">
        <ele>510.12</ele>
        <time>2019-04-13T08:19:11Z</time>
      </trkpt>
      <trkpt lat="43.57642" lon="5.91848">
        <ele>507.4</ele>
        <time>2019-04-13T08:19:16Z</time>
      </trkpt>
      <trkpt lat="43.5764" lon="5.91876">
        <ele>504</ele>
        <time>2019-04-13T08:19:22Z</time>
      </trkpt>
      <trkpt lat="43.57636" lon="5.91901">
        <ele>498.46</ele>
        <time>2019-04-13T08:19:28Z</time>
      </trkpt>
      <trkpt lat="43.57625" lon="5.91922">
        <ele>493.43</ele>
        <time>2019-04-13T08:19:33Z</time>
      </trkpt>
      <trkpt lat="43.57613" lon="5.91946">
        <ele>487.21</ele>
        <time>2019-04-13T08:19:39Z</time>
      </trkpt>
      <trkpt lat="43.57603" lon="5.91968">
        <ele>482.94</ele>
        <time>2019-04-13T08:19:45Z</time>
      </trkpt>
      <trkpt lat="43.57606" lon="5.91996">
        <ele>479.26</ele>
        <time>2019-04-13T08:19:50Z</time>
      </trkpt>
      <trkpt lat="43.57614" lon="5.92023">
        <ele>476.13</ele>
        <time>2019-04-13T08:19:54Z</time>
      </trkpt>
      <trkpt lat="43.5761" lon="5.92049">
        <ele>473.46</ele>
        <time>2019-04-13T08:19:59Z</time>
      </trkpt>
      <trkpt lat="43.576" lon="5.92071">
        <ele>470.04</ele>
        <time>2019-04-13T08:20:03Z</time>
      </trkpt>
      <trkpt lat="43.57595" lon="5.92096">
        <ele>466.4</ele>
        <time>2019-04-13T08:20:09Z</time>
      </trkpt>
      <trkpt lat="43.57614" lon="5.92087">
        <ele>464.96</ele>
        <time>2019-04-13T08:20:55Z</time>
      </trkpt>
      <trkpt lat="43.57633" lon="5.92077">
        <ele>465.07</ele>
        <time>2019-04-13T08:21:04Z</time>
      </trkpt>
      <trkpt lat="43.57648" lon="5.9206">
        <ele>465.17</ele>
        <time>2019-04-13T08:21:12Z</time>
      </trkpt>
      <trkpt lat="43.57662" lon="5.92038">
        <ele>465.27</ele>
        <time>2019-04-13T08:21:18Z</time>
      </trkpt>
      <trkpt lat="43.57676" lon="5.92017">
        <ele>465.27</ele>
        <time>2019-04-13T08:21:23Z</time>
      </trkpt>
      <trkpt lat="43.57691" lon="5.92002">
        <ele>465.29</ele>
        <time>2019-04-13T08:21:28Z</time>
      </trkpt>
      <trkpt lat="43.577" lon="5.91981">
        <ele>461.99</ele>
        <time>2019-04-13T08:21:40Z</time>
      </trkpt>
      <trkpt lat="43.57715" lon="5.91965">
        <ele>454.67</ele>
        <time>2019-04-13T08:22:03Z</time>
      </trkpt>
      <trkpt lat="43.5773" lon="5.91952">
        <ele>454.47</ele>
        <time>2019-04-13T08:22:11Z</time>
      </trkpt>
      <trkpt lat="43.57744" lon="5.91935">
        <ele>454.94</ele>
        <time>2019-04-13T08:22:16Z</time>
      </trkpt>
      <trkpt lat="43.57762" lon="5.91917">
        <ele>456.02</ele>
        <time>2019-04-13T08:22:22Z</time>
      </trkpt>
      <trkpt lat="43.57776" lon="5.91901">
        <ele>456.62</ele>
        <time>2019-04-13T08:22:26Z</time>
      </trkpt>
      <trkpt lat="43.5779" lon="5.91883">
        <ele>457.91</ele>
        <time>2019-04-13T08:22:32Z</time>
      </trkpt>
      <trkpt lat="43.57806" lon="5.91866">
        <ele>459.91</ele>
        <time>2019-04-13T08:22:39Z</time>
      </trkpt>
      <trkpt lat="43.57824" lon="5.91853">
        <ele>461.02</ele>
        <time>2019-04-13T08:22:44Z</time>
      </trkpt>
      <trkpt lat="43.57838" lon="5.91837">
        <ele>461.62</ele>
        <time>2019-04-13T08:22:48Z</time>
      </trkpt>
      <trkpt lat="43.57855" lon="5.91819">
        <ele>462.62</ele>
        <time>2019-04-13T08:22:53Z</time>
      </trkpt>
      <trkpt lat="43.57874" lon="5.918">
        <ele>463.3</ele>
        <time>2019-04-13T08:22:57Z</time>
      </trkpt>
      <trkpt lat="43.57891" lon="5.91787">
        <ele>463.92</ele>
        <time>2019-04-13T08:23:00Z</time>
      </trkpt>
      <trkpt lat="43.57905" lon="5.9177">
        <ele>464.26</ele>
        <time>2019-04-13T08:23:03Z</time>
      </trkpt>
      <trkpt lat="43.57924" lon="5.91756">
        <ele>464.11</ele>
        <time>2019-04-13T08:23:06Z</time>
      </trkpt>
      <trkpt lat="43.57942" lon="5.91741">
        <ele>464.17</ele>
        <time>2019-04-13T08:23:09Z</time>
      </trkpt>
      <trkpt lat="43.57956" lon="5.91725">
        <ele>464.25</ele>
        <time>2019-04-13T08:23:12Z</time>
      </trkpt>
      <trkpt lat="43.57971" lon="5.91707">
        <ele>464.56</ele>
        <time>2019-04-13T08:23:16Z</time>
      </trkpt>
      <trkpt lat="43.57987" lon="5.9169">
        <ele>464.13</ele>
        <time>2019-04-13T08:23:21Z</time>
      </trkpt>
      <trkpt lat="43.58" lon="5.9167">
        <ele>464.13</ele>
        <time>2019-04-13T08:23:25Z</time>
      </trkpt>
      <trkpt lat="43.58014" lon="5.91647">
        <ele>463.29</ele>
        <time>2019-04-13T08:23:29Z</time>
      </trkpt>
      <trkpt lat="43.58027" lon="5.91626">
        <ele>463.29</ele>
        <time>2019-04-13T08:23:34Z</time>
      </trkpt>
      <trkpt lat="43.58044" lon="5.91611">
        <ele>463.55</ele>
        <time>2019-04-13T08:23:38Z</time>
      </trkpt>
      <trkpt lat="43.58062" lon="5.91596">
        <ele>462.69</ele>
        <time>2019-04-13T08:23:42Z</time>
      </trkpt>
      <trkpt lat="43.58077" lon="5.91579">
        <ele>462.53</ele>
        <time>2019-04-13T08:23:47Z</time>
      </trkpt>
      <trkpt lat="43.58092" lon="5.9156">
        <ele>461.08</ele>
        <time>2019-04-13T08:23:52Z</time>
      </trkpt>
      <trkpt lat="43.58107" lon="5.91544">
        <ele>460.85</ele>
        <time>2019-04-13T08:23:56Z</time>
      </trkpt>
      <trkpt lat="43.5812" lon="5.91522">
        <ele>459.77</ele>
        <time>2019-04-13T08:24:00Z</time>
      </trkpt>
      <trkpt lat="43.58135" lon="5.91505">
        <ele>458.78</ele>
        <time>2019-04-13T08:24:04Z</time>
      </trkpt>
      <trkpt lat="43.58151" lon="5.91484">
        <ele>458.33</ele>
        <time>2019-04-13T08:24:09Z</time>
      </trkpt>
      <trkpt lat="43.58165" lon="5.91467">
        <ele>457.51</ele>
        <time>2019-04-13T08:24:14Z</time>
      </trkpt>
      <trkpt lat="43.58181" lon="5.91453">
        <ele>453.96</ele>
        <time>2019-04-13T08:24:18Z</time>
      </trkpt>
      <trkpt lat="43.58196" lon="5.91432">
        <ele>449.28</ele>
        <time>2019-04-13T08:24:22Z</time>
      </trkpt>
      <trkpt lat="43.58215" lon="5.91421">
        <ele>445.73</ele>
        <time>2019-04-13T08:24:26Z</time>
      </trkpt>
      <trkpt lat="43.58236" lon="5.91418">
        <ele>441.21</ele>
        <time>2019-04-13T08:24:34Z</time>
      </trkpt>
      <trkpt lat="43.58254" lon="5.9142">
        <ele>438.59</ele>
        <time>2019-04-13T08:24:43Z</time>
      </trkpt>
      <trkpt lat="43.5827" lon="5.91439">
        <ele>438.65</ele>
        <time>2019-04-13T08:24:49Z</time>
      </trkpt>
      <trkpt lat="43.58295" lon="5.91446">
        <ele>440.58</ele>
        <time>2019-04-13T08:24:53Z</time>
      </trkpt>
      <trkpt lat="43.58312" lon="5.91439">
        <ele>441.81</ele>
        <time>2019-04-13T08:24:57Z</time>
      </trkpt>
      <trkpt lat="43.58333" lon="5.91439">
        <ele>441.81</ele>
        <time>2019-04-13T08:25:04Z</time>
      </trkpt>
      <trkpt lat="43.58353" lon="5.9145">
        <ele>439.21</ele>
        <time>2019-04-13T08:25:10Z</time>
      </trkpt>
      <trkpt lat="43.58374" lon="5.91454">
        <ele>433.69</ele>
        <time>2019-04-13T08:25:17Z</time>
      </trkpt>
      <trkpt lat="43.58393" lon="5.91448">
        <ele>428.84</ele>
        <time>2019-04-13T08:25:21Z</time>
      </trkpt>
      <trkpt lat="43.58409" lon="5.91435">
        <ele>424.9</ele>
        <time>2019-04-13T08:25:25Z</time>
      </trkpt>
      <trkpt lat="43.58402" lon="5.91411">
        <ele>418.28</ele>
        <time>2019-04-13T08:25:38Z</time>
      </trkpt>
      <trkpt lat="43.58411" lon="5.91384">
        <ele>416.51</ele>
        <time>2019-04-13T08:25:43Z</time>
      </trkpt>
      <trkpt lat="43.5841" lon="5.91358">
        <ele>412.94</ele>
        <time>2019-04-13T08:25:50Z</time>
      </trkpt>
      <trkpt lat="43.58416" lon="5.91334">
        <ele>408.53</ele>
        <time>2019-04-13T08:26:01Z</time>
      </trkpt>
      <trkpt lat="43.58429" lon="5.91317">
        <ele>406.62</ele>
        <time>2019-04-13T08:26:07Z</time>
      </trkpt>
      <trkpt lat="43.58447" lon="5.91307">
        <ele>402.91</ele>
        <time>2019-04-13T08:26:17Z</time>
      </trkpt>
      <trkpt lat="43.58462" lon="5.91291">
        <ele>400.72</ele>
        <time>2019-04-13T08:26:24Z</time>
      </trkpt>
      <trkpt lat="43.58478" lon="5.91278">
        <ele>399.69</ele>
        <time>2019-04-13T08:26:30Z</time>
      </trkpt>
      <trkpt lat="43.58495" lon="5.91268">
        <ele>398.87</ele>
        <time>2019-04-13T08:26:36Z</time>
      </trkpt>
      <trkpt lat="43.58515" lon="5.91274">
        <ele>399.11</ele>
        <time>2019-04-13T08:26:41Z</time>
      </trkpt>
      <trkpt lat="43.58533" lon="5.91281">
        <ele>396.51</ele>
        <time>2019-04-13T08:26:46Z</time>
      </trkpt>
      <trkpt lat="43.5854" lon="5.9125">
        <ele>382.43</ele>
        <time>2019-04-13T08:27:16Z</time>
      </trkpt>
      <trkpt lat="43.58557" lon="5.91243">
        <ele>376.77</ele>
        <time>2019-04-13T08:27:36Z</time>
      </trkpt>
      <trkpt lat="43.58576" lon="5.91246">
        <ele>376.47</ele>
        <time>2019-04-13T08:27:42Z</time>
      </trkpt>
      <trkpt lat="43.58595" lon="5.91245">
        <ele>376.49</ele>
        <time>2019-04-13T08:27:47Z</time>
      </trkpt>
      <trkpt lat="43.58615" lon="5.91246">
        <ele>377.46</ele>
        <time>2019-04-13T08:27:52Z</time>
      </trkpt>
      <trkpt lat="43.58635" lon="5.91252">
        <ele>381.28</ele>
        <time>2019-04-13T08:27:58Z</time>
      </trkpt>
      <trkpt lat="43.58654" lon="5.91257">
        <ele>384.35</ele>
        <time>2019-04-13T08:28:04Z</time>
      </trkpt>
      <trkpt lat="43.58671" lon="5.91267">
        <ele>388.54</ele>
        <time>2019-04-13T08:28:11Z</time>
      </trkpt>
      <trkpt lat="43.58686" lon="5.91283">
        <ele>392.29</ele>
        <time>2019-04-13T08:28:17Z</time>
      </trkpt>
      <trkpt lat="43.58696" lon="5.91305">
        <ele>396.17</ele>
        <time>2019-04-13T08:28:22Z</time>
      </trkpt>
      <trkpt lat="43.5871" lon="5.9132">
        <ele>400.59</ele>
        <time>2019-04-13T08:28:27Z</time>
      </trkpt>
      <trkpt lat="43.58729" lon="5.91338">
        <ele>406.6</ele>
        <time>2019-04-13T08:28:33Z</time>
      </trkpt>
      <trkpt lat="43.58742" lon="5.91357">
        <ele>413.19</ele>
        <time>2019-04-13T08:28:39Z</time>
      </trkpt>
      <trkpt lat="43.58759" lon="5.91364">
        <ele>420.05</ele>
        <time>2019-04-13T08:28:45Z</time>
      </trkpt>
      <trkpt lat="43.58775" lon="5.91382">
        <ele>427.32</ele>
        <time>2019-04-13T08:28:51Z</time>
      </trkpt>
      <trkpt lat="43.58787" lon="5.91402">
        <ele>429.48</ele>
        <time>2019-04-13T08:28:55Z</time>
      </trkpt>
      <trkpt lat="43.58803" lon="5.91416">
        <ele>437.44</ele>
        <time>2019-04-13T08:29:01Z</time>
      </trkpt>
      <trkpt lat="43.58821" lon="5.91425">
        <ele>443.15</ele>
        <time>2019-04-13T08:29:07Z</time>
      </trkpt>
      <trkpt lat="43.58842" lon="5.91433">
        <ele>435.25</ele>
        <time>2019-04-13T08:29:10Z</time>
      </trkpt>
      <trkpt lat="43.5886" lon="5.91448">
        <ele>436.68</ele>
        <time>2019-04-13T08:29:15Z</time>
      </trkpt>
      <trkpt lat="43.58886" lon="5.91466">
        <ele>430.78</ele>
        <time>2019-04-13T08:29:19Z</time>
      </trkpt>
      <trkpt lat="43.58902" lon="5.91481">
        <ele>423.93</ele>
        <time>2019-04-13T08:29:22Z</time>
      </trkpt>
      <trkpt lat="43.58915" lon="5.915">
        <ele>427.14</ele>
        <time>2019-04-13T08:29:28Z</time>
      </trkpt>
      <trkpt lat="43.58932" lon="5.91518">
        <ele>430.76</ele>
        <time>2019-04-13T08:29:34Z</time>
      </trkpt>
      <trkpt lat="43.5895" lon="5.91534">
        <ele>432.88</ele>
        <time>2019-04-13T08:29:39Z</time>
      </trkpt>
      <trkpt lat="43.58977" lon="5.91555">
        <ele>425.16</ele>
        <time>2019-04-13T08:29:43Z</time>
      </trkpt>
      <trkpt lat="43.58996" lon="5.91566">
        <ele>415.07</ele>
        <time>2019-04-13T08:29:45Z</time>
      </trkpt>
      <trkpt lat="43.59015" lon="5.91578">
        <ele>404.94</ele>
        <time>2019-04-13T08:29:47Z</time>
      </trkpt>
      <trkpt lat="43.59029" lon="5.91595">
        <ele>399.42</ele>
        <time>2019-04-13T08:29:49Z</time>
      </trkpt>
      <trkpt lat="43.59039" lon="5.9162">
        <ele>394.89</ele>
        <time>2019-04-13T08:29:52Z</time>
      </trkpt>
      <trkpt lat="43.5904" lon="5.91652">
        <ele>388.84</ele>
        <time>2019-04-13T08:29:56Z</time>
      </trkpt>
      <trkpt lat="43.59047" lon="5.91676">
        <ele>386.97</ele>
        <time>2019-04-13T08:30:00Z</time>
      </trkpt>
      <trkpt lat="43.59049" lon="5.91702">
        <ele>385.23</ele>
        <time>2019-04-13T08:30:05Z</time>
      </trkpt>
      <trkpt lat="43.59052" lon="5.9173">
        <ele>386.49</ele>
        <time>2019-04-13T08:30:10Z</time>
      </trkpt>
      <trkpt lat="43.59056" lon="5.91754">
        <ele>387.63</ele>
        <time>2019-04-13T08:30:15Z</time>
      </trkpt>
      <trkpt lat="43.59058" lon="5.9178">
        <ele>389.57</ele>
        <time>2019-04-13T08:30:20Z</time>
      </trkpt>
      <trkpt lat="43.59059" lon="5.91807">
        <ele>392.25</ele>
        <time>2019-04-13T08:30:27Z</time>
      </trkpt>
      <trkpt lat="43.5907" lon="5.91826">
        <ele>395.1</ele>
        <time>2019-04-13T08:30:34Z</time>
      </trkpt>
      <trkpt lat="43.59081" lon="5.91846">
        <ele>394.83</ele>
        <time>2019-04-13T08:30:39Z</time>
      </trkpt>
      <trkpt lat="43.59092" lon="5.91872">
        <ele>395.18</ele>
        <time>2019-04-13T08:30:44Z</time>
      </trkpt>
      <trkpt lat="43.59098" lon="5.91897">
        <ele>397.44</ele>
        <time>2019-04-13T08:30:49Z</time>
      </trkpt>
      <trkpt lat="43.591" lon="5.91926">
        <ele>400.12</ele>
        <time>2019-04-13T08:30:54Z</time>
      </trkpt>
      <trkpt lat="43.591" lon="5.91953">
        <ele>403.67</ele>
        <time>2019-04-13T08:30:59Z</time>
      </trkpt>
      <trkpt lat="43.59102" lon="5.91981">
        <ele>407.19</ele>
        <time>2019-04-13T08:31:04Z</time>
      </trkpt>
      <trkpt lat="43.59103" lon="5.92008">
        <ele>411.09</ele>
        <time>2019-04-13T08:31:09Z</time>
      </trkpt>
      <trkpt lat="43.59108" lon="5.92038">
        <ele>414.91</ele>
        <time>2019-04-13T08:31:15Z</time>
      </trkpt>
      <trkpt lat="43.59116" lon="5.92062">
        <ele>414.27</ele>
        <time>2019-04-13T08:31:19Z</time>
      </trkpt>
      <trkpt lat="43.59119" lon="5.92091">
        <ele>416.83</ele>
        <time>2019-04-13T08:31:27Z</time>
      </trkpt>
      <trkpt lat="43.59121" lon="5.92116">
        <ele>419.18</ele>
        <time>2019-04-13T08:31:33Z</time>
      </trkpt>
      <trkpt lat="43.59128" lon="5.9214">
        <ele>420.9</ele>
        <time>2019-04-13T08:31:38Z</time>
      </trkpt>
      <trkpt lat="43.59129" lon="5.92165">
        <ele>427.01</ele>
        <time>2019-04-13T08:31:46Z</time>
      </trkpt>
      <trkpt lat="43.59132" lon="5.92192">
        <ele>428.94</ele>
        <time>2019-04-13T08:31:52Z</time>
      </trkpt>
      <trkpt lat="43.59136" lon="5.92218">
        <ele>431.55</ele>
        <time>2019-04-13T08:31:58Z</time>
      </trkpt>
      <trkpt lat="43.59145" lon="5.92246">
        <ele>434.29</ele>
        <time>2019-04-13T08:32:04Z</time>
      </trkpt>
      <trkpt lat="43.59153" lon="5.92272">
        <ele>437.42</ele>
        <time>2019-04-13T08:32:10Z</time>
      </trkpt>
      <trkpt lat="43.59159" lon="5.92299">
        <ele>442.71</ele>
        <time>2019-04-13T08:32:18Z</time>
      </trkpt>
      <trkpt lat="43.59163" lon="5.92327">
        <ele>444.63</ele>
        <time>2019-04-13T08:32:23Z</time>
      </trkpt>
      <trkpt lat="43.5917" lon="5.92351">
        <ele>441.85</ele>
        <time>2019-04-13T08:32:25Z</time>
      </trkpt>
      <trkpt lat="43.59181" lon="5.92376">
        <ele>437.38</ele>
        <time>2019-04-13T08:32:28Z</time>
      </trkpt>
      <trkpt lat="43.59191" lon="5.92397">
        <ele>434.94</ele>
        <time>2019-04-13T08:32:32Z</time>
      </trkpt>
      <trkpt lat="43.59204" lon="5.92423">
        <ele>424.21</ele>
        <time>2019-04-13T08:32:43Z</time>
      </trkpt>
      <trkpt lat="43.59221" lon="5.9244">
        <ele>402.45</ele>
        <time>2019-04-13T08:33:25Z</time>
      </trkpt>
      <trkpt lat="43.59236" lon="5.92426">
        <ele>384.87</ele>
        <time>2019-04-13T08:33:37Z</time>
      </trkpt>
      <trkpt lat="43.59254" lon="5.92422">
        <ele>367.54</ele>
        <time>2019-04-13T08:33:51Z</time>
      </trkpt>
      <trkpt lat="43.59268" lon="5.92407">
        <ele>306.07</ele>
        <time>2019-04-13T08:39:57Z</time>
      </trkpt>
      <trkpt lat="43.59284" lon="5.92394">
        <ele>309.74</ele>
        <time>2019-04-13T08:40:31Z</time>
      </trkpt>
      <trkpt lat="43.59298" lon="5.92378">
        <ele>312.36</ele>
        <time>2019-04-13T08:41:35Z</time>
      </trkpt>
      <trkpt lat="43.59315" lon="5.92363">
        <ele>312.86</ele>
        <time>2019-04-13T08:41:48Z</time>
      </trkpt>
      <trkpt lat="43.59331" lon="5.92352">
        <ele>313.33</ele>
        <time>2019-04-13T08:41:53Z</time>
      </trkpt>
      <trkpt lat="43.59348" lon="5.92342">
        <ele>314.64</ele>
        <time>2019-04-13T08:41:58Z</time>
      </trkpt>
      <trkpt lat="43.59366" lon="5.92333">
        <ele>314.74</ele>
        <time>2019-04-13T08:42:16Z</time>
      </trkpt>
      <trkpt lat="43.59385" lon="5.92333">
        <ele>315.97</ele>
        <time>2019-04-13T08:42:23Z</time>
      </trkpt>
      <trkpt lat="43.59403" lon="5.92337">
        <ele>315.54</ele>
        <time>2019-04-13T08:42:27Z</time>
      </trkpt>
      <trkpt lat="43.59423" lon="5.92343">
        <ele>317.48</ele>
        <time>2019-04-13T08:42:32Z</time>
      </trkpt>
      <trkpt lat="43.59445" lon="5.92355">
        <ele>320.7</ele>
        <time>2019-04-13T08:42:35Z</time>
      </trkpt>
      <trkpt lat="43.59462" lon="5.92361">
        <ele>322.79</ele>
        <time>2019-04-13T08:42:38Z</time>
      </trkpt>
      <trkpt lat="43.59482" lon="5.92369">
        <ele>326.4</ele>
        <time>2019-04-13T08:42:42Z</time>
      </trkpt>
      <trkpt lat="43.59502" lon="5.92376">
        <ele>329.97</ele>
        <time>2019-04-13T08:42:47Z</time>
      </trkpt>
      <trkpt lat="43.59524" lon="5.92379">
        <ele>332.8</ele>
        <time>2019-04-13T08:42:52Z</time>
      </trkpt>
      <trkpt lat="43.59542" lon="5.92384">
        <ele>334.54</ele>
        <time>2019-04-13T08:42:56Z</time>
      </trkpt>
      <trkpt lat="43.59564" lon="5.92396">
        <ele>334.46</ele>
        <time>2019-04-13T08:43:01Z</time>
      </trkpt>
      <trkpt lat="43.59586" lon="5.92408">
        <ele>335.7</ele>
        <time>2019-04-13T08:43:06Z</time>
      </trkpt>
      <trkpt lat="43.59604" lon="5.92414">
        <ele>336.11</ele>
        <time>2019-04-13T08:43:09Z</time>
      </trkpt>
      <trkpt lat="43.59626" lon="5.92423">
        <ele>336.89</ele>
        <time>2019-04-13T08:43:13Z</time>
      </trkpt>
      <trkpt lat="43.59647" lon="5.92429">
        <ele>337.03</ele>
        <time>2019-04-13T08:43:17Z</time>
      </trkpt>
      <trkpt lat="43.59665" lon="5.92431">
        <ele>335.91</ele>
        <time>2019-04-13T08:43:20Z</time>
      </trkpt>
      <trkpt lat="43.59683" lon="5.92435">
        <ele>335.41</ele>
        <time>2019-04-13T08:43:23Z</time>
      </trkpt>
      <trkpt lat="43.59704" lon="5.92442">
        <ele>333.75</ele>
        <time>2019-04-13T08:43:26Z</time>
      </trkpt>
      <trkpt lat="43.59724" lon="5.92456">
        <ele>330.81</ele>
        <time>2019-04-13T08:43:29Z</time>
      </trkpt>
      <trkpt lat="43.5974" lon="5.92479">
        <ele>328.58</ele>
        <time>2019-04-13T08:43:33Z</time>
      </trkpt>
      <trkpt lat="43.5976" lon="5.92489">
        <ele>323.46</ele>
        <time>2019-04-13T08:43:37Z</time>
      </trkpt>
      <trkpt lat="43.59775" lon="5.92476">
        <ele>322.29</ele>
        <time>2019-04-13T08:43:41Z</time>
      </trkpt>
      <trkpt lat="43.59793" lon="5.92464">
        <ele>319.81</ele>
        <time>2019-04-13T08:43:46Z</time>
      </trkpt>
      <trkpt lat="43.59807" lon="5.92448">
        <ele>317.63</ele>
        <time>2019-04-13T08:44:16Z</time>
      </trkpt>
      <trkpt lat="43.59825" lon="5.92438">
        <ele>304.07</ele>
        <time>2019-04-13T08:45:07Z</time>
      </trkpt>
      <trkpt lat="43.59844" lon="5.92429">
        <ele>303.53</ele>
        <time>2019-04-13T08:45:18Z</time>
      </trkpt>
      <trkpt lat="43.59863" lon="5.92427">
        <ele>300.76</ele>
        <time>2019-04-13T08:45:28Z</time>
      </trkpt>
      <trkpt lat="43.59874" lon="5.92406">
        <ele>295.04</ele>
        <time>2019-04-13T08:45:42Z</time>
      </trkpt>
      <trkpt lat="43.59878" lon="5.9238">
        <ele>293.89</ele>
        <time>2019-04-13T08:45:53Z</time>
      </trkpt>
      <trkpt lat="43.59882" lon="5.92355">
        <ele>294.72</ele>
        <time>2019-04-13T08:46:05Z</time>
      </trkpt>
      <trkpt lat="43.59891" lon="5.92332">
        <ele>297.72</ele>
        <time>2019-04-13T08:46:17Z</time>
      </trkpt>
      <trkpt lat="43.59895" lon="5.92307">
        <ele>300.17</ele>
        <time>2019-04-13T08:46:26Z</time>
      </trkpt>
      <trkpt lat="43.59898" lon="5.92281">
        <ele>302.94</ele>
        <time>2019-04-13T08:46:35Z</time>
      </trkpt>
      <trkpt lat="43.59903" lon="5.92255">
        <ele>305.52</ele>
        <time>2019-04-13T08:46:43Z</time>
      </trkpt>
      <trkpt lat="43.59906" lon="5.92228">
        <ele>309.21</ele>
        <time>2019-04-13T08:46:51Z</time>
      </trkpt>
      <trkpt lat="43.59909" lon="5.922">
        <ele>312.71</ele>
        <time>2019-04-13T08:47:01Z</time>
      </trkpt>
      <trkpt lat="43.5991" lon="5.9217">
        <ele>315.87</ele>
        <time>2019-04-13T08:47:10Z</time>
      </trkpt>
      <trkpt lat="43.59911" lon="5.92144">
        <ele>320.43</ele>
        <time>2019-04-13T08:47:20Z</time>
      </trkpt>
      <trkpt lat="43.59908" lon="5.92119">
        <ele>325.44</ele>
        <time>2019-04-13T08:47:29Z</time>
      </trkpt>
      <trkpt lat="43.59909" lon="5.92092">
        <ele>330.81</ele>
        <time>2019-04-13T08:47:37Z</time>
      </trkpt>
      <trkpt lat="43.59907" lon="5.92066">
        <ele>335.02</ele>
        <time>2019-04-13T08:47:44Z</time>
      </trkpt>
      <trkpt lat="43.59903" lon="5.92036">
        <ele>338.75</ele>
        <time>2019-04-13T08:47:52Z</time>
      </trkpt>
      <trkpt lat="43.59898" lon="5.92012">
        <ele>342.08</ele>
        <time>2019-04-13T08:48:00Z</time>
      </trkpt>
      <trkpt lat="43.59893" lon="5.91985">
        <ele>344.2</ele>
        <time>2019-04-13T08:48:08Z</time>
      </trkpt>
      <trkpt lat="43.59888" lon="5.91961">
        <ele>345.6</ele>
        <time>2019-04-13T08:48:15Z</time>
      </trkpt>
      <trkpt lat="43.59881" lon="5.91936">
        <ele>349.98</ele>
        <time>2019-04-13T08:48:25Z</time>
      </trkpt>
      <trkpt lat="43.5987" lon="5.91913">
        <ele>353.84</ele>
        <time>2019-04-13T08:48:33Z</time>
      </trkpt>
      <trkpt lat="43.59865" lon="5.91886">
        <ele>358.16</ele>
        <time>2019-04-13T08:48:41Z</time>
      </trkpt>
      <trkpt lat="43.59862" lon="5.91858">
        <ele>363.56</ele>
        <time>2019-04-13T08:48:51Z</time>
      </trkpt>
      <trkpt lat="43.59855" lon="5.91834">
        <ele>366.39</ele>
        <time>2019-04-13T08:48:59Z</time>
      </trkpt>
      <trkpt lat="43.59847" lon="5.91809">
        <ele>369.56</ele>
        <time>2019-04-13T08:49:07Z</time>
      </trkpt>
      <trkpt lat="43.59843" lon="5.91782">
        <ele>375.77</ele>
        <time>2019-04-13T08:49:18Z</time>
      </trkpt>
      <trkpt lat="43.59841" lon="5.91756">
        <ele>380.03</ele>
        <time>2019-04-13T08:49:27Z</time>
      </trkpt>
      <trkpt lat="43.59843" lon="5.91731">
        <ele>378.38</ele>
        <time>2019-04-13T08:49:37Z</time>
      </trkpt>
      <trkpt lat="43.59844" lon="5.91703">
        <ele>377.21</ele>
        <time>2019-04-13T08:49:45Z</time>
      </trkpt>
      <trkpt lat="43.59845" lon="5.91677">
        <ele>377.18</ele>
        <time>2019-04-13T08:49:53Z</time>
      </trkpt>
      <trkpt lat="43.59843" lon="5.9165">
        <ele>378.15</ele>
        <time>2019-04-13T08:50:03Z</time>
      </trkpt>
      <trkpt lat="43.59838" lon="5.91626">
        <ele>379.14</ele>
        <time>2019-04-13T08:50:10Z</time>
      </trkpt>
      <trkpt lat="43.59841" lon="5.91598">
        <ele>380.21</ele>
        <time>2019-04-13T08:50:19Z</time>
      </trkpt>
      <trkpt lat="43.5984" lon="5.9157">
        <ele>380.16</ele>
        <time>2019-04-13T08:50:26Z</time>
      </trkpt>
      <trkpt lat="43.59838" lon="5.91543">
        <ele>378.38</ele>
        <time>2019-04-13T08:50:34Z</time>
      </trkpt>
      <trkpt lat="43.59838" lon="5.91518">
        <ele>375.82</ele>
        <time>2019-04-13T08:50:40Z</time>
      </trkpt>
      <trkpt lat="43.5984" lon="5.91489">
        <ele>372.89</ele>
        <time>2019-04-13T08:50:48Z</time>
      </trkpt>
      <trkpt lat="43.59833" lon="5.91463">
        <ele>367.54</ele>
        <time>2019-04-13T08:50:55Z</time>
      </trkpt>
      <trkpt lat="43.59832" lon="5.91436">
        <ele>361.01</ele>
        <time>2019-04-13T08:51:02Z</time>
      </trkpt>
      <trkpt lat="43.59831" lon="5.9141">
        <ele>357.77</ele>
        <time>2019-04-13T08:51:09Z</time>
      </trkpt>
      <trkpt lat="43.5983" lon="5.91382">
        <ele>354.01</ele>
        <time>2019-04-13T08:51:16Z</time>
      </trkpt>
      <trkpt lat="43.59827" lon="5.91353">
        <ele>352.82</ele>
        <time>2019-04-13T08:51:22Z</time>
      </trkpt>
      <trkpt lat="43.59828" lon="5.91327">
        <ele>350.94</ele>
        <time>2019-04-13T08:51:29Z</time>
      </trkpt>
      <trkpt lat="43.59829" lon="5.91301">
        <ele>348.16</ele>
        <time>2019-04-13T08:51:35Z</time>
      </trkpt>
      <trkpt lat="43.5983" lon="5.91272">
        <ele>345.82</ele>
        <time>2019-04-13T08:51:42Z</time>
      </trkpt>
      <trkpt lat="43.59831" lon="5.91246">
        <ele>343.75</ele>
        <time>2019-04-13T08:51:49Z</time>
      </trkpt>
      <trkpt lat="43.59831" lon="5.9122">
        <ele>341.89</ele>
        <time>2019-04-13T08:51:58Z</time>
      </trkpt>
      <trkpt lat="43.59835" lon="5.91195">
        <ele>341.59</ele>
        <time>2019-04-13T08:52:07Z</time>
      </trkpt>
      <trkpt lat="43.5984" lon="5.91171">
        <ele>339.73</ele>
        <time>2019-04-13T08:52:13Z</time>
      </trkpt>
      <trkpt lat="43.59845" lon="5.91145">
        <ele>340.24</ele>
        <time>2019-04-13T08:52:22Z</time>
      </trkpt>
      <trkpt lat="43.59852" lon="5.91121">
        <ele>340.31</ele>
        <time>2019-04-13T08:52:44Z</time>
      </trkpt>
      <trkpt lat="43.59847" lon="5.91097">
        <ele>333.2</ele>
        <time>2019-04-13T08:53:08Z</time>
      </trkpt>
      <trkpt lat="43.59845" lon="5.91072">
        <ele>330.6</ele>
        <time>2019-04-13T08:53:17Z</time>
      </trkpt>
      <trkpt lat="43.59848" lon="5.91044">
        <ele>331.02</ele>
        <time>2019-04-13T08:53:27Z</time>
      </trkpt>
      <trkpt lat="43.5986" lon="5.91024">
        <ele>332.02</ele>
        <time>2019-04-13T08:53:33Z</time>
      </trkpt>
      <trkpt lat="43.59867" lon="5.90995">
        <ele>333</ele>
        <time>2019-04-13T08:53:39Z</time>
      </trkpt>
      <trkpt lat="43.59878" lon="5.90972">
        <ele>333.83</ele>
        <time>2019-04-13T08:53:44Z</time>
      </trkpt>
      <trkpt lat="43.59886" lon="5.90948">
        <ele>334.9</ele>
        <time>2019-04-13T08:53:48Z</time>
      </trkpt>
      <trkpt lat="43.59892" lon="5.90925">
        <ele>336.04</ele>
        <time>2019-04-13T08:53:53Z</time>
      </trkpt>
      <trkpt lat="43.59902" lon="5.90899">
        <ele>336.53</ele>
        <time>2019-04-13T08:53:58Z</time>
      </trkpt>
      <trkpt lat="43.59908" lon="5.90874">
        <ele>337.7</ele>
        <time>2019-04-13T08:54:03Z</time>
      </trkpt>
      <trkpt lat="43.59916" lon="5.90846">
        <ele>339.59</ele>
        <time>2019-04-13T08:54:09Z</time>
      </trkpt>
      <trkpt lat="43.59912" lon="5.90812">
        <ele>337.62</ele>
        <time>2019-04-13T08:54:13Z</time>
      </trkpt>
      <trkpt lat="43.59913" lon="5.90783">
        <ele>333.07</ele>
        <time>2019-04-13T08:54:17Z</time>
      </trkpt>
      <trkpt lat="43.59916" lon="5.90755">
        <ele>329.64</ele>
        <time>2019-04-13T08:54:22Z</time>
      </trkpt>
      <trkpt lat="43.59926" lon="5.9073">
        <ele>326.71</ele>
        <time>2019-04-13T08:54:27Z</time>
      </trkpt>
      <trkpt lat="43.59932" lon="5.90707">
        <ele>325.54</ele>
        <time>2019-04-13T08:54:32Z</time>
      </trkpt>
      <trkpt lat="43.59944" lon="5.90682">
        <ele>324.29</ele>
        <time>2019-04-13T08:54:38Z</time>
      </trkpt>
      <trkpt lat="43.59958" lon="5.90662">
        <ele>324.35</ele>
        <time>2019-04-13T08:54:43Z</time>
      </trkpt>
      <trkpt lat="43.59963" lon="5.90636">
        <ele>324.98</ele>
        <time>2019-04-13T08:54:48Z</time>
      </trkpt>
      <trkpt lat="43.59966" lon="5.9061">
        <ele>325.16</ele>
        <time>2019-04-13T08:54:53Z</time>
      </trkpt>
      <trkpt lat="43.59968" lon="5.90585">
        <ele>324.33</ele>
        <time>2019-04-13T08:54:58Z</time>
      </trkpt>
      <trkpt lat="43.59972" lon="5.9056">
        <ele>323.53</ele>
        <time>2019-04-13T08:55:03Z</time>
      </trkpt>
      <trkpt lat="43.59975" lon="5.90535">
        <ele>323.65</ele>
        <time>2019-04-13T08:55:09Z</time>
      </trkpt>
      <trkpt lat="43.59972" lon="5.90508">
        <ele>323.16</ele>
        <time>2019-04-13T08:55:13Z</time>
      </trkpt>
      <trkpt lat="43.59973" lon="5.90481">
        <ele>321.98</ele>
        <time>2019-04-13T08:55:19Z</time>
      </trkpt>
      <trkpt lat="43.59977" lon="5.90457">
        <ele>321.04</ele>
        <time>2019-04-13T08:55:24Z</time>
      </trkpt>
      <trkpt lat="43.59979" lon="5.9043">
        <ele>319.8</ele>
        <time>2019-04-13T08:55:30Z</time>
      </trkpt>
      <trkpt lat="43.59984" lon="5.90403">
        <ele>318.26</ele>
        <time>2019-04-13T08:55:36Z</time>
      </trkpt>
      <trkpt lat="43.59988" lon="5.90377">
        <ele>317.28</ele>
        <time>2019-04-13T08:55:42Z</time>
      </trkpt>
      <trkpt lat="43.59993" lon="5.90349">
        <ele>316.41</ele>
        <time>2019-04-13T08:55:48Z</time>
      </trkpt>
      <trkpt lat="43.59998" lon="5.90322">
        <ele>315.2</ele>
        <time>2019-04-13T08:55:54Z</time>
      </trkpt>
      <trkpt lat="43.60005" lon="5.90295">
        <ele>316.02</ele>
        <time>2019-04-13T08:56:01Z</time>
      </trkpt>
      <trkpt lat="43.60005" lon="5.90267">
        <ele>316.62</ele>
        <time>2019-04-13T08:56:07Z</time>
      </trkpt>
      <trkpt lat="43.6001" lon="5.90238">
        <ele>317.72</ele>
        <time>2019-04-13T08:56:14Z</time>
      </trkpt>
      <trkpt lat="43.60014" lon="5.90209">
        <ele>319.09</ele>
        <time>2019-04-13T08:56:19Z</time>
      </trkpt>
      <trkpt lat="43.6002" lon="5.90185">
        <ele>320.42</ele>
        <time>2019-04-13T08:56:24Z</time>
      </trkpt>
      <trkpt lat="43.60027" lon="5.90158">
        <ele>321.86</ele>
        <time>2019-04-13T08:56:30Z</time>
      </trkpt>
      <trkpt lat="43.60031" lon="5.90133">
        <ele>323.29</ele>
        <time>2019-04-13T08:56:35Z</time>
      </trkpt>
      <trkpt lat="43.60032" lon="5.90105">
        <ele>325.57</ele>
        <time>2019-04-13T08:56:41Z</time>
      </trkpt>
      <trkpt lat="43.60036" lon="5.90079">
        <ele>327.97</ele>
        <time>2019-04-13T08:56:47Z</time>
      </trkpt>
      <trkpt lat="43.60039" lon="5.90054">
        <ele>330.87</ele>
        <time>2019-04-13T08:56:54Z</time>
      </trkpt>
      <trkpt lat="43.60042" lon="5.90027">
        <ele>334.25</ele>
        <time>2019-04-13T08:57:01Z</time>
      </trkpt>
      <trkpt lat="43.60047" lon="5.90004">
        <ele>336.92</ele>
        <time>2019-04-13T08:57:06Z</time>
      </trkpt>
      <trkpt lat="43.60051" lon="5.89978">
        <ele>340.26</ele>
        <time>2019-04-13T08:57:13Z</time>
      </trkpt>
      <trkpt lat="43.60057" lon="5.89953">
        <ele>343.24</ele>
        <time>2019-04-13T08:57:19Z</time>
      </trkpt>
      <trkpt lat="43.60062" lon="5.89927">
        <ele>346.26</ele>
        <time>2019-04-13T08:57:26Z</time>
      </trkpt>
      <trkpt lat="43.60066" lon="5.89902">
        <ele>349.96</ele>
        <time>2019-04-13T08:57:34Z</time>
      </trkpt>
      <trkpt lat="43.60067" lon="5.89874">
        <ele>353.22</ele>
        <time>2019-04-13T08:57:40Z</time>
      </trkpt>
      <trkpt lat="43.60071" lon="5.89847">
        <ele>356.25</ele>
        <time>2019-04-13T08:57:47Z</time>
      </trkpt>
      <trkpt lat="43.60073" lon="5.8982">
        <ele>359.66</ele>
        <time>2019-04-13T08:57:54Z</time>
      </trkpt>
      <trkpt lat="43.60073" lon="5.89792">
        <ele>363.56</ele>
        <time>2019-04-13T08:58:02Z</time>
      </trkpt>
      <trkpt lat="43.60075" lon="5.89767">
        <ele>368.03</ele>
        <time>2019-04-13T08:58:12Z</time>
      </trkpt>
      <trkpt lat="43.60073" lon="5.89738">
        <ele>372.29</ele>
        <time>2019-04-13T08:58:20Z</time>
      </trkpt>
      <trkpt lat="43.6007" lon="5.89712">
        <ele>376.02</ele>
        <time>2019-04-13T08:58:27Z</time>
      </trkpt>
      <trkpt lat="43.60071" lon="5.89684">
        <ele>378.54</ele>
        <time>2019-04-13T08:58:32Z</time>
      </trkpt>
      <trkpt lat="43.60062" lon="5.8966">
        <ele>383.02</ele>
        <time>2019-04-13T08:58:41Z</time>
      </trkpt>
      <trkpt lat="43.60054" lon="5.89635">
        <ele>387.79</ele>
        <time>2019-04-13T08:58:49Z</time>
      </trkpt>
      <trkpt lat="43.60052" lon="5.89608">
        <ele>392.88</ele>
        <time>2019-04-13T08:58:55Z</time>
      </trkpt>
      <trkpt lat="43.60047" lon="5.89583">
        <ele>395.63</ele>
        <time>2019-04-13T08:59:00Z</time>
      </trkpt>
      <trkpt lat="43.60043" lon="5.89557">
        <ele>398.4</ele>
        <time>2019-04-13T08:59:05Z</time>
      </trkpt>
      <trkpt lat="43.60034" lon="5.89531">
        <ele>399.05</ele>
        <time>2019-04-13T08:59:11Z</time>
      </trkpt>
      <trkpt lat="43.60029" lon="5.89506">
        <ele>404.09</ele>
        <time>2019-04-13T08:59:18Z</time>
      </trkpt>
      <trkpt lat="43.6002" lon="5.89482">
        <ele>408.92</ele>
        <time>2019-04-13T08:59:25Z</time>
      </trkpt>
      <trkpt lat="43.60014" lon="5.89458">
        <ele>410.92</ele>
        <time>2019-04-13T08:59:32Z</time>
      </trkpt>
      <trkpt lat="43.60007" lon="5.89434">
        <ele>413.38</ele>
        <time>2019-04-13T08:59:39Z</time>
      </trkpt>
      <trkpt lat="43.60004" lon="5.89408">
        <ele>415.37</ele>
        <time>2019-04-13T08:59:45Z</time>
      </trkpt>
      <trkpt lat="43.60001" lon="5.89382">
        <ele>416.8</ele>
        <time>2019-04-13T08:59:50Z</time>
      </trkpt>
      <trkpt lat="43.60001" lon="5.89354">
        <ele>420.53</ele>
        <time>2019-04-13T08:59:56Z</time>
      </trkpt>
      <trkpt lat="43.60003" lon="5.89327">
        <ele>425.67</ele>
        <time>2019-04-13T09:00:02Z</time>
      </trkpt>
      <trkpt lat="43.60005" lon="5.89298">
        <ele>427.71</ele>
        <time>2019-04-13T09:00:06Z</time>
      </trkpt>
      <trkpt lat="43.60003" lon="5.89269">
        <ele>426.59</ele>
        <time>2019-04-13T09:00:12Z</time>
      </trkpt>
      <trkpt lat="43.60003" lon="5.89244">
        <ele>425.61</ele>
        <time>2019-04-13T09:00:17Z</time>
      </trkpt>
      <trkpt lat="43.60004" lon="5.89215">
        <ele>422.31</ele>
        <time>2019-04-13T09:00:23Z</time>
      </trkpt>
      <trkpt lat="43.60007" lon="5.89189">
        <ele>420.25</ele>
        <time>2019-04-13T09:00:28Z</time>
      </trkpt>
      <trkpt lat="43.6001" lon="5.89163">
        <ele>416.09</ele>
        <time>2019-04-13T09:00:33Z</time>
      </trkpt>
      <trkpt lat="43.60016" lon="5.89137">
        <ele>413.5</ele>
        <time>2019-04-13T09:00:38Z</time>
      </trkpt>
      <trkpt lat="43.60021" lon="5.8911">
        <ele>410.82</ele>
        <time>2019-04-13T09:00:43Z</time>
      </trkpt>
      <trkpt lat="43.60024" lon="5.89085">
        <ele>407.55</ele>
        <time>2019-04-13T09:00:48Z</time>
      </trkpt>
      <trkpt lat="43.60026" lon="5.8906">
        <ele>404.23</ele>
        <time>2019-04-13T09:00:53Z</time>
      </trkpt>
      <trkpt lat="43.60027" lon="5.89034">
        <ele>401.04</ele>
        <time>2019-04-13T09:00:58Z</time>
      </trkpt>
      <trkpt lat="43.60031" lon="5.89008">
        <ele>398.43</ele>
        <time>2019-04-13T09:01:03Z</time>
      </trkpt>
      <trkpt lat="43.60036" lon="5.88978">
        <ele>396.32</ele>
        <time>2019-04-13T09:01:08Z</time>
      </trkpt>
      <trkpt lat="43.60041" lon="5.88952">
        <ele>394.64</ele>
        <time>2019-04-13T09:01:13Z</time>
      </trkpt>
      <trkpt lat="43.60044" lon="5.88927">
        <ele>392.69</ele>
        <time>2019-04-13T09:01:18Z</time>
      </trkpt>
      <trkpt lat="43.60044" lon="5.88899">
        <ele>389.82</ele>
        <time>2019-04-13T09:01:24Z</time>
      </trkpt>
      <trkpt lat="43.60045" lon="5.8887">
        <ele>387.28</ele>
        <time>2019-04-13T09:01:30Z</time>
      </trkpt>
      <trkpt lat="43.60049" lon="5.88842">
        <ele>386.08</ele>
        <time>2019-04-13T09:01:36Z</time>
      </trkpt>
      <trkpt lat="43.60053" lon="5.88813">
        <ele>385.08</ele>
        <time>2019-04-13T09:01:41Z</time>
      </trkpt>
      <trkpt lat="43.60051" lon="5.88784">
        <ele>383.52</ele>
        <time>2019-04-13T09:01:47Z</time>
      </trkpt>
      <trkpt lat="43.60052" lon="5.88755">
        <ele>382.22</ele>
        <time>2019-04-13T09:01:53Z</time>
      </trkpt>
      <trkpt lat="43.60051" lon="5.88728">
        <ele>379.75</ele>
        <time>2019-04-13T09:01:58Z</time>
      </trkpt>
      <trkpt lat="43.60049" lon="5.88702">
        <ele>378.1</ele>
        <time>2019-04-13T09:02:04Z</time>
      </trkpt>
      <trkpt lat="43.60048" lon="5.88673">
        <ele>376.87</ele>
        <time>2019-04-13T09:02:11Z</time>
      </trkpt>
      <trkpt lat="43.60046" lon="5.88646">
        <ele>377.22</ele>
        <time>2019-04-13T09:02:17Z</time>
      </trkpt>
      <trkpt lat="43.60047" lon="5.88619">
        <ele>377.93</ele>
        <time>2019-04-13T09:02:24Z</time>
      </trkpt>
      <trkpt lat="43.60054" lon="5.88595">
        <ele>374.72</ele>
        <time>2019-04-13T09:02:57Z</time>
      </trkpt>
      <trkpt lat="43.60047" lon="5.8857">
        <ele>354.67</ele>
        <time>2019-04-13T09:06:38Z</time>
      </trkpt>
      <trkpt lat="43.60028" lon="5.88576">
        <ele>327.31</ele>
        <time>2019-04-13T09:10:10Z</time>
      </trkpt>
      <trkpt lat="43.60008" lon="5.88573">
        <ele>326.69</ele>
        <time>2019-04-13T09:10:17Z</time>
      </trkpt>
      <trkpt lat="43.59988" lon="5.88568">
        <ele>325.66</ele>
        <time>2019-04-13T09:10:23Z</time>
      </trkpt>
      <trkpt lat="43.59969" lon="5.88564">
        <ele>323.85</ele>
        <time>2019-04-13T09:10:42Z</time>
      </trkpt>
      <trkpt lat="43.59954" lon="5.8855">
        <ele>325.82</ele>
        <time>2019-04-13T09:11:06Z</time>
      </trkpt>
      <trkpt lat="43.59937" lon="5.88539">
        <ele>329.97</ele>
        <time>2019-04-13T09:11:18Z</time>
      </trkpt>
      <trkpt lat="43.59922" lon="5.88523">
        <ele>335.22</ele>
        <time>2019-04-13T09:11:33Z</time>
      </trkpt>
      <trkpt lat="43.59905" lon="5.88511">
        <ele>340.86</ele>
        <time>2019-04-13T09:11:45Z</time>
      </trkpt>
      <trkpt lat="43.59887" lon="5.88505">
        <ele>344.39</ele>
        <time>2019-04-13T09:12:01Z</time>
      </trkpt>
      <trkpt lat="43.59868" lon="5.88503">
        <ele>347.68</ele>
        <time>2019-04-13T09:12:11Z</time>
      </trkpt>
      <trkpt lat="43.59849" lon="5.88504">
        <ele>349.52</ele>
        <time>2019-04-13T09:12:23Z</time>
      </trkpt>
      <trkpt lat="43.5983" lon="5.88508">
        <ele>352.38</ele>
        <time>2019-04-13T09:12:35Z</time>
      </trkpt>
      <trkpt lat="43.59812" lon="5.88512">
        <ele>353.34</ele>
        <time>2019-04-13T09:12:43Z</time>
      </trkpt>
      <trkpt lat="43.59794" lon="5.88505">
        <ele>352.45</ele>
        <time>2019-04-13T09:13:41Z</time>
      </trkpt>
      <trkpt lat="43.59785" lon="5.88481">
        <ele>352.15</ele>
        <time>2019-04-13T09:13:51Z</time>
      </trkpt>
      <trkpt lat="43.59766" lon="5.88477">
        <ele>351.79</ele>
        <time>2019-04-13T09:14:03Z</time>
      </trkpt>
      <trkpt lat="43.59747" lon="5.88484">
        <ele>352.44</ele>
        <time>2019-04-13T09:14:14Z</time>
      </trkpt>
      <trkpt lat="43.59729" lon="5.88493">
        <ele>355</ele>
        <time>2019-04-13T09:14:26Z</time>
      </trkpt>
      <trkpt lat="43.59712" lon="5.88507">
        <ele>355.64</ele>
        <time>2019-04-13T09:14:38Z</time>
      </trkpt>
      <trkpt lat="43.59693" lon="5.88513">
        <ele>358.12</ele>
        <time>2019-04-13T09:14:50Z</time>
      </trkpt>
      <trkpt lat="43.59674" lon="5.8851">
        <ele>359.36</ele>
        <time>2019-04-13T09:15:00Z</time>
      </trkpt>
      <trkpt lat="43.59655" lon="5.88507">
        <ele>359.89</ele>
        <time>2019-04-13T09:15:10Z</time>
      </trkpt>
      <trkpt lat="43.59637" lon="5.88502">
        <ele>359.2</ele>
        <time>2019-04-13T09:15:26Z</time>
      </trkpt>
      <trkpt lat="43.59618" lon="5.88496">
        <ele>359.15</ele>
        <time>2019-04-13T09:15:36Z</time>
      </trkpt>
      <trkpt lat="43.596" lon="5.88486">
        <ele>359.5</ele>
        <time>2019-04-13T09:15:45Z</time>
      </trkpt>
      <trkpt lat="43.59582" lon="5.88474">
        <ele>359.42</ele>
        <time>2019-04-13T09:15:54Z</time>
      </trkpt>
      <trkpt lat="43.59566" lon="5.88462">
        <ele>356.68</ele>
        <time>2019-04-13T09:16:09Z</time>
      </trkpt>
      <trkpt lat="43.59549" lon="5.88448">
        <ele>355.87</ele>
        <time>2019-04-13T09:16:16Z</time>
      </trkpt>
      <trkpt lat="43.5953" lon="5.88435">
        <ele>356.85</ele>
        <time>2019-04-13T09:16:23Z</time>
      </trkpt>
      <trkpt lat="43.59514" lon="5.88424">
        <ele>358.33</ele>
        <time>2019-04-13T09:16:29Z</time>
      </trkpt>
      <trkpt lat="43.59497" lon="5.88413">
        <ele>359.07</ele>
        <time>2019-04-13T09:16:35Z</time>
      </trkpt>
      <trkpt lat="43.59478" lon="5.88403">
        <ele>358.9</ele>
        <time>2019-04-13T09:16:42Z</time>
      </trkpt>
      <trkpt lat="43.59459" lon="5.88395">
        <ele>361.3</ele>
        <time>2019-04-13T09:16:49Z</time>
      </trkpt>
      <trkpt lat="43.59441" lon="5.88389">
        <ele>362.13</ele>
        <time>2019-04-13T09:16:55Z</time>
      </trkpt>
      <trkpt lat="43.59422" lon="5.88383">
        <ele>362.18</ele>
        <time>2019-04-13T09:17:02Z</time>
      </trkpt>
      <trkpt lat="43.59402" lon="5.88381">
        <ele>363.74</ele>
        <time>2019-04-13T09:17:09Z</time>
      </trkpt>
      <trkpt lat="43.59382" lon="5.88379">
        <ele>367.14</ele>
        <time>2019-04-13T09:17:17Z</time>
      </trkpt>
      <trkpt lat="43.59364" lon="5.88374">
        <ele>372.14</ele>
        <time>2019-04-13T09:17:24Z</time>
      </trkpt>
      <trkpt lat="43.59347" lon="5.88366">
        <ele>374.68</ele>
        <time>2019-04-13T09:17:32Z</time>
      </trkpt>
      <trkpt lat="43.5933" lon="5.88349">
        <ele>376.79</ele>
        <time>2019-04-13T09:17:40Z</time>
      </trkpt>
      <trkpt lat="43.59313" lon="5.88333">
        <ele>377.24</ele>
        <time>2019-04-13T09:17:46Z</time>
      </trkpt>
      <trkpt lat="43.593" lon="5.88314">
        <ele>377.88</ele>
        <time>2019-04-13T09:17:52Z</time>
      </trkpt>
      <trkpt lat="43.59286" lon="5.88295">
        <ele>373.96</ele>
        <time>2019-04-13T09:17:57Z</time>
      </trkpt>
      <trkpt lat="43.59266" lon="5.88279">
        <ele>361.29</ele>
        <time>2019-04-13T09:18:34Z</time>
      </trkpt>
      <trkpt lat="43.59253" lon="5.8826">
        <ele>356.79</ele>
        <time>2019-04-13T09:19:37Z</time>
      </trkpt>
      <trkpt lat="43.5924" lon="5.8824">
        <ele>361.22</ele>
        <time>2019-04-13T09:19:47Z</time>
      </trkpt>
      <trkpt lat="43.5924" lon="5.88214">
        <ele>366.3</ele>
        <time>2019-04-13T09:19:56Z</time>
      </trkpt>
      <trkpt lat="43.5923" lon="5.88192">
        <ele>375.69</ele>
        <time>2019-04-13T09:20:06Z</time>
      </trkpt>
      <trkpt lat="43.59211" lon="5.88193">
        <ele>376.81</ele>
        <time>2019-04-13T09:20:13Z</time>
      </trkpt>
      <trkpt lat="43.59193" lon="5.88203">
        <ele>375.12</ele>
        <time>2019-04-13T09:20:21Z</time>
      </trkpt>
      <trkpt lat="43.59173" lon="5.88203">
        <ele>374.95</ele>
        <time>2019-04-13T09:20:29Z</time>
      </trkpt>
      <trkpt lat="43.59154" lon="5.88199">
        <ele>373.57</ele>
        <time>2019-04-13T09:20:38Z</time>
      </trkpt>
      <trkpt lat="43.59136" lon="5.88188">
        <ele>373.55</ele>
        <time>2019-04-13T09:20:46Z</time>
      </trkpt>
      <trkpt lat="43.5912" lon="5.88175">
        <ele>375.02</ele>
        <time>2019-04-13T09:20:55Z</time>
      </trkpt>
      <trkpt lat="43.59104" lon="5.88159">
        <ele>374.32</ele>
        <time>2019-04-13T09:21:03Z</time>
      </trkpt>
      <trkpt lat="43.59089" lon="5.88143">
        <ele>374.31</ele>
        <time>2019-04-13T09:21:12Z</time>
      </trkpt>
      <trkpt lat="43.59077" lon="5.88122">
        <ele>377.66</ele>
        <time>2019-04-13T09:21:21Z</time>
      </trkpt>
      <trkpt lat="43.59066" lon="5.88101">
        <ele>381.21</ele>
        <time>2019-04-13T09:21:30Z</time>
      </trkpt>
      <trkpt lat="43.59053" lon="5.88081">
        <ele>384.82</ele>
        <time>2019-04-13T09:21:39Z</time>
      </trkpt>
      <trkpt lat="43.59035" lon="5.88085">
        <ele>390.24</ele>
        <time>2019-04-13T09:21:50Z</time>
      </trkpt>
      <trkpt lat="43.59018" lon="5.88098">
        <ele>394.55</ele>
        <time>2019-04-13T09:22:00Z</time>
      </trkpt>
      <trkpt lat="43.59" lon="5.88107">
        <ele>397.89</ele>
        <time>2019-04-13T09:22:09Z</time>
      </trkpt>
      <trkpt lat="43.58983" lon="5.88119">
        <ele>402.37</ele>
        <time>2019-04-13T09:22:20Z</time>
      </trkpt>
      <trkpt lat="43.58966" lon="5.88128">
        <ele>406.07</ele>
        <time>2019-04-13T09:22:29Z</time>
      </trkpt>
      <trkpt lat="43.58948" lon="5.88136">
        <ele>409.46</ele>
        <time>2019-04-13T09:22:37Z</time>
      </trkpt>
      <trkpt lat="43.58929" lon="5.8814">
        <ele>414.14</ele>
        <time>2019-04-13T09:22:46Z</time>
      </trkpt>
      <trkpt lat="43.58911" lon="5.88146">
        <ele>419.04</ele>
        <time>2019-04-13T09:22:55Z</time>
      </trkpt>
      <trkpt lat="43.58898" lon="5.88163">
        <ele>423.82</ele>
        <time>2019-04-13T09:23:04Z</time>
      </trkpt>
      <trkpt lat="43.58885" lon="5.88183">
        <ele>426.31</ele>
        <time>2019-04-13T09:23:12Z</time>
      </trkpt>
      <trkpt lat="43.58871" lon="5.882">
        <ele>428.31</ele>
        <time>2019-04-13T09:23:20Z</time>
      </trkpt>
      <trkpt lat="43.58858" lon="5.88218">
        <ele>430.57</ele>
        <time>2019-04-13T09:23:28Z</time>
      </trkpt>
      <trkpt lat="43.58839" lon="5.88231">
        <ele>429.11</ele>
        <time>2019-04-13T09:23:36Z</time>
      </trkpt>
      <trkpt lat="43.58818" lon="5.88234">
        <ele>425.74</ele>
        <time>2019-04-13T09:23:41Z</time>
      </trkpt>
      <trkpt lat="43.58802" lon="5.88246">
        <ele>418.97</ele>
        <time>2019-04-13T09:23:46Z</time>
      </trkpt>
      <trkpt lat="43.58799" lon="5.88272">
        <ele>408.93</ele>
        <time>2019-04-13T09:23:56Z</time>
      </trkpt>
      <trkpt lat="43.58817" lon="5.88282">
        <ele>403.62</ele>
        <time>2019-04-13T09:24:04Z</time>
      </trkpt>
      <trkpt lat="43.58835" lon="5.88288">
        <ele>401.03</ele>
        <time>2019-04-13T09:24:13Z</time>
      </trkpt>
      <trkpt lat="43.58853" lon="5.88293">
        <ele>397</ele>
        <time>2019-04-13T09:24:20Z</time>
      </trkpt>
      <trkpt lat="43.58869" lon="5.88305">
        <ele>393.83</ele>
        <time>2019-04-13T09:24:28Z</time>
      </trkpt>
      <trkpt lat="43.58885" lon="5.88318">
        <ele>393.76</ele>
        <time>2019-04-13T09:24:35Z</time>
      </trkpt>
      <trkpt lat="43.58903" lon="5.88333">
        <ele>393.51</ele>
        <time>2019-04-13T09:24:43Z</time>
      </trkpt>
      <trkpt lat="43.58914" lon="5.88354">
        <ele>394</ele>
        <time>2019-04-13T09:24:51Z</time>
      </trkpt>
      <trkpt lat="43.58923" lon="5.88376">
        <ele>394.09</ele>
        <time>2019-04-13T09:24:59Z</time>
      </trkpt>
      <trkpt lat="43.58905" lon="5.88384">
        <ele>405.36</ele>
        <time>2019-04-13T09:25:24Z</time>
      </trkpt>
      <trkpt lat="43.58887" lon="5.88374">
        <ele>413.44</ele>
        <time>2019-04-13T09:25:39Z</time>
      </trkpt>
      <trkpt lat="43.5887" lon="5.88361">
        <ele>419.94</ele>
        <time>2019-04-13T09:25:49Z</time>
      </trkpt>
      <trkpt lat="43.58854" lon="5.8835">
        <ele>424.41</ele>
        <time>2019-04-13T09:25:58Z</time>
      </trkpt>
      <trkpt lat="43.58835" lon="5.88354">
        <ele>424.78</ele>
        <time>2019-04-13T09:26:06Z</time>
      </trkpt>
      <trkpt lat="43.58821" lon="5.88374">
        <ele>423.51</ele>
        <time>2019-04-13T09:26:15Z</time>
      </trkpt>
      <trkpt lat="43.58811" lon="5.88398">
        <ele>423.5</ele>
        <time>2019-04-13T09:26:24Z</time>
      </trkpt>
      <trkpt lat="43.58793" lon="5.88388">
        <ele>426.19</ele>
        <time>2019-04-13T09:26:37Z</time>
      </trkpt>
      <trkpt lat="43.58773" lon="5.8838">
        <ele>429.93</ele>
        <time>2019-04-13T09:26:45Z</time>
      </trkpt>
      <trkpt lat="43.58753" lon="5.88376">
        <ele>431.6</ele>
        <time>2019-04-13T09:26:51Z</time>
      </trkpt>
      <trkpt lat="43.58734" lon="5.88374">
        <ele>432.98</ele>
        <time>2019-04-13T09:26:57Z</time>
      </trkpt>
      <trkpt lat="43.58716" lon="5.88374">
        <ele>434.52</ele>
        <time>2019-04-13T09:27:04Z</time>
      </trkpt>
      <trkpt lat="43.587" lon="5.88361">
        <ele>435.63</ele>
        <time>2019-04-13T09:27:13Z</time>
      </trkpt>
      <trkpt lat="43.58713" lon="5.88343">
        <ele>438.46</ele>
        <time>2019-04-13T09:27:24Z</time>
      </trkpt>
      <trkpt lat="43.58717" lon="5.88319">
        <ele>437.92</ele>
        <time>2019-04-13T09:27:31Z</time>
      </trkpt>
      <trkpt lat="43.587" lon="5.88304">
        <ele>434.83</ele>
        <time>2019-04-13T09:27:40Z</time>
      </trkpt>
      <trkpt lat="43.58683" lon="5.88297">
        <ele>423.76</ele>
        <time>2019-04-13T09:30:16Z</time>
      </trkpt>
      <trkpt lat="43.58664" lon="5.883">
        <ele>425.51</ele>
        <time>2019-04-13T09:30:25Z</time>
      </trkpt>
      <trkpt lat="43.58647" lon="5.88306">
        <ele>427.54</ele>
        <time>2019-04-13T09:30:44Z</time>
      </trkpt>
      <trkpt lat="43.58628" lon="5.88309">
        <ele>427.97</ele>
        <time>2019-04-13T09:30:51Z</time>
      </trkpt>
      <trkpt lat="43.5861" lon="5.88312">
        <ele>429.52</ele>
        <time>2019-04-13T09:30:58Z</time>
      </trkpt>
      <trkpt lat="43.58591" lon="5.88314">
        <ele>431.64</ele>
        <time>2019-04-13T09:31:05Z</time>
      </trkpt>
      <trkpt lat="43.58573" lon="5.88316">
        <ele>434.22</ele>
        <time>2019-04-13T09:31:12Z</time>
      </trkpt>
      <trkpt lat="43.58553" lon="5.88317">
        <ele>435.7</ele>
        <time>2019-04-13T09:31:19Z</time>
      </trkpt>
      <trkpt lat="43.58533" lon="5.88325">
        <ele>438.19</ele>
        <time>2019-04-13T09:31:26Z</time>
      </trkpt>
      <trkpt lat="43.58516" lon="5.88337">
        <ele>440.39</ele>
        <time>2019-04-13T09:31:32Z</time>
      </trkpt>
      <trkpt lat="43.58498" lon="5.88342">
        <ele>443.28</ele>
        <time>2019-04-13T09:31:38Z</time>
      </trkpt>
      <trkpt lat="43.5848" lon="5.88349">
        <ele>446.17</ele>
        <time>2019-04-13T09:31:44Z</time>
      </trkpt>
      <trkpt lat="43.58461" lon="5.88356">
        <ele>448.97</ele>
        <time>2019-04-13T09:31:50Z</time>
      </trkpt>
      <trkpt lat="43.58442" lon="5.88356">
        <ele>450.87</ele>
        <time>2019-04-13T09:31:56Z</time>
      </trkpt>
      <trkpt lat="43.58423" lon="5.8835">
        <ele>452.63</ele>
        <time>2019-04-13T09:32:03Z</time>
      </trkpt>
      <trkpt lat="43.58404" lon="5.88341">
        <ele>452.55</ele>
        <time>2019-04-13T09:32:10Z</time>
      </trkpt>
      <trkpt lat="43.58384" lon="5.88338">
        <ele>453.9</ele>
        <time>2019-04-13T09:32:18Z</time>
      </trkpt>
      <trkpt lat="43.58365" lon="5.88332">
        <ele>455.63</ele>
        <time>2019-04-13T09:32:27Z</time>
      </trkpt>
      <trkpt lat="43.58347" lon="5.88329">
        <ele>454.77</ele>
        <time>2019-04-13T09:32:35Z</time>
      </trkpt>
      <trkpt lat="43.58352" lon="5.88303">
        <ele>448.16</ele>
        <time>2019-04-13T09:33:42Z</time>
      </trkpt>
      <trkpt lat="43.58336" lon="5.88284">
        <ele>447.16</ele>
        <time>2019-04-13T09:33:47Z</time>
      </trkpt>
      <trkpt lat="43.58318" lon="5.88268">
        <ele>445.72</ele>
        <time>2019-04-13T09:33:51Z</time>
      </trkpt>
      <trkpt lat="43.58303" lon="5.88254">
        <ele>444.81</ele>
        <time>2019-04-13T09:33:55Z</time>
      </trkpt>
      <trkpt lat="43.58294" lon="5.88231">
        <ele>444.67</ele>
        <time>2019-04-13T09:34:02Z</time>
      </trkpt>
      <trkpt lat="43.58277" lon="5.88221">
        <ele>443.47</ele>
        <time>2019-04-13T09:34:21Z</time>
      </trkpt>
      <trkpt lat="43.58259" lon="5.8821">
        <ele>444.03</ele>
        <time>2019-04-13T09:34:31Z</time>
      </trkpt>
      <trkpt lat="43.58245" lon="5.88192">
        <ele>447.43</ele>
        <time>2019-04-13T09:34:42Z</time>
      </trkpt>
      <trkpt lat="43.5823" lon="5.88178">
        <ele>450.81</ele>
        <time>2019-04-13T09:34:51Z</time>
      </trkpt>
      <trkpt lat="43.58212" lon="5.88168">
        <ele>452.43</ele>
        <time>2019-04-13T09:35:00Z</time>
      </trkpt>
      <trkpt lat="43.58196" lon="5.88156">
        <ele>456.17</ele>
        <time>2019-04-13T09:35:11Z</time>
      </trkpt>
      <trkpt lat="43.58182" lon="5.88141">
        <ele>459.61</ele>
        <time>2019-04-13T09:35:22Z</time>
      </trkpt>
      <trkpt lat="43.58169" lon="5.88123">
        <ele>461.72</ele>
        <time>2019-04-13T09:35:32Z</time>
      </trkpt>
      <trkpt lat="43.58153" lon="5.88107">
        <ele>463.12</ele>
        <time>2019-04-13T09:35:42Z</time>
      </trkpt>
      <trkpt lat="43.58136" lon="5.88096">
        <ele>463.88</ele>
        <time>2019-04-13T09:35:51Z</time>
      </trkpt>
      <trkpt lat="43.58122" lon="5.88079">
        <ele>465.22</ele>
        <time>2019-04-13T09:36:02Z</time>
      </trkpt>
      <trkpt lat="43.58108" lon="5.88063">
        <ele>465.69</ele>
        <time>2019-04-13T09:36:13Z</time>
      </trkpt>
      <trkpt lat="43.58094" lon="5.88047">
        <ele>465.59</ele>
        <time>2019-04-13T09:36:24Z</time>
      </trkpt>
      <trkpt lat="43.58077" lon="5.88039">
        <ele>465.57</ele>
        <time>2019-04-13T09:36:35Z</time>
      </trkpt>
      <trkpt lat="43.5806" lon="5.88025">
        <ele>467.59</ele>
        <time>2019-04-13T09:36:45Z</time>
      </trkpt>
      <trkpt lat="43.58043" lon="5.88011">
        <ele>468.55</ele>
        <time>2019-04-13T09:36:54Z</time>
      </trkpt>
      <trkpt lat="43.58027" lon="5.87998">
        <ele>468.94</ele>
        <time>2019-04-13T09:37:02Z</time>
      </trkpt>
      <trkpt lat="43.58012" lon="5.87983">
        <ele>470.12</ele>
        <time>2019-04-13T09:37:12Z</time>
      </trkpt>
      <trkpt lat="43.57996" lon="5.87967">
        <ele>472.51</ele>
        <time>2019-04-13T09:37:21Z</time>
      </trkpt>
      <trkpt lat="43.57983" lon="5.8795">
        <ele>475.35</ele>
        <time>2019-04-13T09:37:29Z</time>
      </trkpt>
      <trkpt lat="43.5797" lon="5.87931">
        <ele>476.29</ele>
        <time>2019-04-13T09:37:39Z</time>
      </trkpt>
      <trkpt lat="43.57951" lon="5.87922">
        <ele>475.51</ele>
        <time>2019-04-13T09:37:46Z</time>
      </trkpt>
      <trkpt lat="43.57937" lon="5.87905">
        <ele>475.17</ele>
        <time>2019-04-13T09:37:54Z</time>
      </trkpt>
      <trkpt lat="43.5793" lon="5.87882">
        <ele>474.84</ele>
        <time>2019-04-13T09:38:04Z</time>
      </trkpt>
      <trkpt lat="43.57914" lon="5.87869">
        <ele>475.25</ele>
        <time>2019-04-13T09:39:21Z</time>
      </trkpt>
      <trkpt lat="43.57901" lon="5.8785">
        <ele>474.67</ele>
        <time>2019-04-13T09:39:31Z</time>
      </trkpt>
      <trkpt lat="43.57889" lon="5.8783">
        <ele>475.16</ele>
        <time>2019-04-13T09:39:38Z</time>
      </trkpt>
      <trkpt lat="43.57874" lon="5.8781">
        <ele>475.65</ele>
        <time>2019-04-13T09:39:45Z</time>
      </trkpt>
      <trkpt lat="43.57861" lon="5.87792">
        <ele>476.04</ele>
        <time>2019-04-13T09:39:51Z</time>
      </trkpt>
      <trkpt lat="43.57848" lon="5.87773">
        <ele>475.83</ele>
        <time>2019-04-13T09:39:57Z</time>
      </trkpt>
      <trkpt lat="43.57833" lon="5.87755">
        <ele>473.54</ele>
        <time>2019-04-13T09:40:04Z</time>
      </trkpt>
      <trkpt lat="43.57817" lon="5.87738">
        <ele>471.98</ele>
        <time>2019-04-13T09:40:12Z</time>
      </trkpt>
      <trkpt lat="43.578" lon="5.87728">
        <ele>462.99</ele>
        <time>2019-04-13T09:40:37Z</time>
      </trkpt>
      <trkpt lat="43.57799" lon="5.87752">
        <ele>462.34</ele>
        <time>2019-04-13T09:40:44Z</time>
      </trkpt>
      <trkpt lat="43.57797" lon="5.87782">
        <ele>463.04</ele>
        <time>2019-04-13T09:40:49Z</time>
      </trkpt>
      <trkpt lat="43.57796" lon="5.87807">
        <ele>463.53</ele>
        <time>2019-04-13T09:40:53Z</time>
      </trkpt>
      <trkpt lat="43.57794" lon="5.87834">
        <ele>463.78</ele>
        <time>2019-04-13T09:40:57Z</time>
      </trkpt>
      <trkpt lat="43.57792" lon="5.87863">
        <ele>464.24</ele>
        <time>2019-04-13T09:41:01Z</time>
      </trkpt>
      <trkpt lat="43.57789" lon="5.87894">
        <ele>464.19</ele>
        <time>2019-04-13T09:41:05Z</time>
      </trkpt>
      <trkpt lat="43.57788" lon="5.87924">
        <ele>464.55</ele>
        <time>2019-04-13T09:41:09Z</time>
      </trkpt>
      <trkpt lat="43.57787" lon="5.87953">
        <ele>465.38</ele>
        <time>2019-04-13T09:41:13Z</time>
      </trkpt>
      <trkpt lat="43.57784" lon="5.8798">
        <ele>465.47</ele>
        <time>2019-04-13T09:41:17Z</time>
      </trkpt>
      <trkpt lat="43.57781" lon="5.88006">
        <ele>466.68</ele>
        <time>2019-04-13T09:41:22Z</time>
      </trkpt>
      <trkpt lat="43.57777" lon="5.88032">
        <ele>467.76</ele>
        <time>2019-04-13T09:41:29Z</time>
      </trkpt>
      <trkpt lat="43.57759" lon="5.88024">
        <ele>467.96</ele>
        <time>2019-04-13T09:41:48Z</time>
      </trkpt>
      <trkpt lat="43.57752" lon="5.87998">
        <ele>470.23</ele>
        <time>2019-04-13T09:41:57Z</time>
      </trkpt>
      <trkpt lat="43.57743" lon="5.87976">
        <ele>472.58</ele>
        <time>2019-04-13T09:42:03Z</time>
      </trkpt>
      <trkpt lat="43.57729" lon="5.87957">
        <ele>476.13</ele>
        <time>2019-04-13T09:42:10Z</time>
      </trkpt>
      <trkpt lat="43.57711" lon="5.87943">
        <ele>475.26</ele>
        <time>2019-04-13T09:42:16Z</time>
      </trkpt>
      <trkpt lat="43.57688" lon="5.8794">
        <ele>472.95</ele>
        <time>2019-04-13T09:42:21Z</time>
      </trkpt>
      <trkpt lat="43.57669" lon="5.87945">
        <ele>471.87</ele>
        <time>2019-04-13T09:42:25Z</time>
      </trkpt>
      <trkpt lat="43.57648" lon="5.87951">
        <ele>469.1</ele>
        <time>2019-04-13T09:42:29Z</time>
      </trkpt>
      <trkpt lat="43.5763" lon="5.87962">
        <ele>466.62</ele>
        <time>2019-04-13T09:42:33Z</time>
      </trkpt>
      <trkpt lat="43.57612" lon="5.87977">
        <ele>464.87</ele>
        <time>2019-04-13T09:42:37Z</time>
      </trkpt>
      <trkpt lat="43.57596" lon="5.87993">
        <ele>463.54</ele>
        <time>2019-04-13T09:42:40Z</time>
      </trkpt>
      <trkpt lat="43.57579" lon="5.8801">
        <ele>462.23</ele>
        <time>2019-04-13T09:42:43Z</time>
      </trkpt>
      <trkpt lat="43.57563" lon="5.88031">
        <ele>460.05</ele>
        <time>2019-04-13T09:42:46Z</time>
      </trkpt>
      <trkpt lat="43.57552" lon="5.88051">
        <ele>458.76</ele>
        <time>2019-04-13T09:42:48Z</time>
      </trkpt>
      <trkpt lat="43.57541" lon="5.88081">
        <ele>456.82</ele>
        <time>2019-04-13T09:42:51Z</time>
      </trkpt>
      <trkpt lat="43.57528" lon="5.88112">
        <ele>454.67</ele>
        <time>2019-04-13T09:42:54Z</time>
      </trkpt>
      <trkpt lat="43.5751" lon="5.88133">
        <ele>452.44</ele>
        <time>2019-04-13T09:42:57Z</time>
      </trkpt>
      <trkpt lat="43.5749" lon="5.88145">
        <ele>450.7</ele>
        <time>2019-04-13T09:43:00Z</time>
      </trkpt>
      <trkpt lat="43.57468" lon="5.88156">
        <ele>448.86</ele>
        <time>2019-04-13T09:43:03Z</time>
      </trkpt>
      <trkpt lat="43.57446" lon="5.88169">
        <ele>447.49</ele>
        <time>2019-04-13T09:43:06Z</time>
      </trkpt>
      <trkpt lat="43.57425" lon="5.88187">
        <ele>444.34</ele>
        <time>2019-04-13T09:43:09Z</time>
      </trkpt>
      <trkpt lat="43.57405" lon="5.88208">
        <ele>441.08</ele>
        <time>2019-04-13T09:43:12Z</time>
      </trkpt>
      <trkpt lat="43.57382" lon="5.88224">
        <ele>438.08</ele>
        <time>2019-04-13T09:43:15Z</time>
      </trkpt>
      <trkpt lat="43.57358" lon="5.88232">
        <ele>436.17</ele>
        <time>2019-04-13T09:43:18Z</time>
      </trkpt>
      <trkpt lat="43.5734" lon="5.8824">
        <ele>434.38</ele>
        <time>2019-04-13T09:43:22Z</time>
      </trkpt>
      <trkpt lat="43.57322" lon="5.8825">
        <ele>430.83</ele>
        <time>2019-04-13T09:43:30Z</time>
      </trkpt>
      <trkpt lat="43.57303" lon="5.88258">
        <ele>430.46</ele>
        <time>2019-04-13T09:43:36Z</time>
      </trkpt>
      <trkpt lat="43.57285" lon="5.88265">
        <ele>429.7</ele>
        <time>2019-04-13T09:43:41Z</time>
      </trkpt>
      <trkpt lat="43.57266" lon="5.88277">
        <ele>429.02</ele>
        <time>2019-04-13T09:43:46Z</time>
      </trkpt>
      <trkpt lat="43.57248" lon="5.88284">
        <ele>427.55</ele>
        <time>2019-04-13T09:43:50Z</time>
      </trkpt>
      <trkpt lat="43.5723" lon="5.88288">
        <ele>426.75</ele>
        <time>2019-04-13T09:43:53Z</time>
      </trkpt>
      <trkpt lat="43.57211" lon="5.88294">
        <ele>426.09</ele>
        <time>2019-04-13T09:43:56Z</time>
      </trkpt>
      <trkpt lat="43.57191" lon="5.88302">
        <ele>424.79</ele>
        <time>2019-04-13T09:44:00Z</time>
      </trkpt>
      <trkpt lat="43.5717" lon="5.88306">
        <ele>423.82</ele>
        <time>2019-04-13T09:44:04Z</time>
      </trkpt>
      <trkpt lat="43.57149" lon="5.88309">
        <ele>423.47</ele>
        <time>2019-04-13T09:44:08Z</time>
      </trkpt>
      <trkpt lat="43.57128" lon="5.88317">
        <ele>423.46</ele>
        <time>2019-04-13T09:44:12Z</time>
      </trkpt>
      <trkpt lat="43.57108" lon="5.88331">
        <ele>422.77</ele>
        <time>2019-04-13T09:44:16Z</time>
      </trkpt>
      <trkpt lat="43.57088" lon="5.8834">
        <ele>423.52</ele>
        <time>2019-04-13T09:44:20Z</time>
      </trkpt>
      <trkpt lat="43.57066" lon="5.88349">
        <ele>424.52</ele>
        <time>2019-04-13T09:44:24Z</time>
      </trkpt>
      <trkpt lat="43.57051" lon="5.88362">
        <ele>424.47</ele>
        <time>2019-04-13T09:44:27Z</time>
      </trkpt>
      <trkpt lat="43.57029" lon="5.88376">
        <ele>424.06</ele>
        <time>2019-04-13T09:44:31Z</time>
      </trkpt>
      <trkpt lat="43.57008" lon="5.88387">
        <ele>424.08</ele>
        <time>2019-04-13T09:44:35Z</time>
      </trkpt>
      <trkpt lat="43.5699" lon="5.884">
        <ele>422.68</ele>
        <time>2019-04-13T09:44:39Z</time>
      </trkpt>
      <trkpt lat="43.5697" lon="5.8841">
        <ele>422.1</ele>
        <time>2019-04-13T09:44:43Z</time>
      </trkpt>
      <trkpt lat="43.56951" lon="5.88421">
        <ele>421.81</ele>
        <time>2019-04-13T09:44:47Z</time>
      </trkpt>
      <trkpt lat="43.56931" lon="5.88432">
        <ele>421.41</ele>
        <time>2019-04-13T09:44:51Z</time>
      </trkpt>
      <trkpt lat="43.56911" lon="5.88445">
        <ele>421.45</ele>
        <time>2019-04-13T09:44:55Z</time>
      </trkpt>
      <trkpt lat="43.56894" lon="5.88453">
        <ele>421.65</ele>
        <time>2019-04-13T09:44:59Z</time>
      </trkpt>
      <trkpt lat="43.56875" lon="5.88463">
        <ele>421.71</ele>
        <time>2019-04-13T09:45:04Z</time>
      </trkpt>
      <trkpt lat="43.56856" lon="5.88472">
        <ele>421.29</ele>
        <time>2019-04-13T09:45:08Z</time>
      </trkpt>
      <trkpt lat="43.56834" lon="5.88484">
        <ele>421.45</ele>
        <time>2019-04-13T09:45:12Z</time>
      </trkpt>
      <trkpt lat="43.56813" lon="5.88495">
        <ele>421.68</ele>
        <time>2019-04-13T09:45:16Z</time>
      </trkpt>
      <trkpt lat="43.56792" lon="5.88504">
        <ele>421.27</ele>
        <time>2019-04-13T09:45:20Z</time>
      </trkpt>
      <trkpt lat="43.56772" lon="5.88516">
        <ele>422.03</ele>
        <time>2019-04-13T09:45:24Z</time>
      </trkpt>
      <trkpt lat="43.56753" lon="5.88527">
        <ele>422.89</ele>
        <time>2019-04-13T09:45:28Z</time>
      </trkpt>
      <trkpt lat="43.56734" lon="5.88537">
        <ele>424.25</ele>
        <time>2019-04-13T09:45:32Z</time>
      </trkpt>
      <trkpt lat="43.56717" lon="5.88547">
        <ele>425.41</ele>
        <time>2019-04-13T09:45:36Z</time>
      </trkpt>
      <trkpt lat="43.567" lon="5.88556">
        <ele>425.19</ele>
        <time>2019-04-13T09:45:40Z</time>
      </trkpt>
      <trkpt lat="43.56682" lon="5.88565">
        <ele>424.84</ele>
        <time>2019-04-13T09:45:46Z</time>
      </trkpt>
      <trkpt lat="43.56665" lon="5.88576">
        <ele>424.52</ele>
        <time>2019-04-13T09:45:52Z</time>
      </trkpt>
      <trkpt lat="43.56648" lon="5.88585">
        <ele>418.09</ele>
        <time>2019-04-13T09:46:38Z</time>
      </trkpt>
      <trkpt lat="43.56627" lon="5.88586">
        <ele>417.89</ele>
        <time>2019-04-13T09:46:43Z</time>
      </trkpt>
      <trkpt lat="43.56608" lon="5.88588">
        <ele>417.88</ele>
        <time>2019-04-13T09:46:47Z</time>
      </trkpt>
      <trkpt lat="43.56588" lon="5.88593">
        <ele>417.65</ele>
        <time>2019-04-13T09:46:52Z</time>
      </trkpt>
      <trkpt lat="43.56567" lon="5.88597">
        <ele>417.69</ele>
        <time>2019-04-13T09:46:57Z</time>
      </trkpt>
      <trkpt lat="43.56548" lon="5.88601">
        <ele>417.41</ele>
        <time>2019-04-13T09:47:01Z</time>
      </trkpt>
      <trkpt lat="43.56531" lon="5.8861">
        <ele>417.34</ele>
        <time>2019-04-13T09:47:05Z</time>
      </trkpt>
      <trkpt lat="43.56513" lon="5.88617">
        <ele>417.39</ele>
        <time>2019-04-13T09:47:09Z</time>
      </trkpt>
      <trkpt lat="43.56495" lon="5.88626">
        <ele>417.47</ele>
        <time>2019-04-13T09:47:13Z</time>
      </trkpt>
      <trkpt lat="43.56476" lon="5.88635">
        <ele>417.96</ele>
        <time>2019-04-13T09:47:17Z</time>
      </trkpt>
      <trkpt lat="43.56459" lon="5.88653">
        <ele>418.82</ele>
        <time>2019-04-13T09:47:22Z</time>
      </trkpt>
      <trkpt lat="43.56441" lon="5.88668">
        <ele>418.75</ele>
        <time>2019-04-13T09:47:28Z</time>
      </trkpt>
      <trkpt lat="43.56421" lon="5.88673">
        <ele>418.59</ele>
        <time>2019-04-13T09:47:34Z</time>
      </trkpt>
      <trkpt lat="43.56399" lon="5.88674">
        <ele>417.83</ele>
        <time>2019-04-13T09:47:39Z</time>
      </trkpt>
      <trkpt lat="43.56381" lon="5.88678">
        <ele>418.26</ele>
        <time>2019-04-13T09:47:43Z</time>
      </trkpt>
      <trkpt lat="43.56363" lon="5.88689">
        <ele>417.81</ele>
        <time>2019-04-13T09:47:48Z</time>
      </trkpt>
      <trkpt lat="43.56344" lon="5.88701">
        <ele>417.14</ele>
        <time>2019-04-13T09:47:53Z</time>
      </trkpt>
      <trkpt lat="43.56326" lon="5.88707">
        <ele>413.66</ele>
        <time>2019-04-13T09:49:43Z</time>
      </trkpt>
      <trkpt lat="43.56304" lon="5.88705">
        <ele>413.59</ele>
        <time>2019-04-13T09:49:49Z</time>
      </trkpt>
      <trkpt lat="43.56282" lon="5.88703">
        <ele>412.92</ele>
        <time>2019-04-13T09:49:54Z</time>
      </trkpt>
      <trkpt lat="43.56264" lon="5.88697">
        <ele>412.07</ele>
        <time>2019-04-13T09:49:58Z</time>
      </trkpt>
      <trkpt lat="43.56246" lon="5.88693">
        <ele>411.51</ele>
        <time>2019-04-13T09:50:02Z</time>
      </trkpt>
      <trkpt lat="43.56226" lon="5.88686">
        <ele>410.43</ele>
        <time>2019-04-13T09:50:06Z</time>
      </trkpt>
      <trkpt lat="43.56206" lon="5.88681">
        <ele>409.3</ele>
        <time>2019-04-13T09:50:10Z</time>
      </trkpt>
      <trkpt lat="43.56184" lon="5.88683">
        <ele>408.34</ele>
        <time>2019-04-13T09:50:14Z</time>
      </trkpt>
      <trkpt lat="43.56166" lon="5.88685">
        <ele>406.96</ele>
        <time>2019-04-13T09:50:17Z</time>
      </trkpt>
      <trkpt lat="43.56147" lon="5.88686">
        <ele>405.55</ele>
        <time>2019-04-13T09:50:20Z</time>
      </trkpt>
      <trkpt lat="43.56128" lon="5.8869">
        <ele>404.72</ele>
        <time>2019-04-13T09:50:23Z</time>
      </trkpt>
      <trkpt lat="43.56109" lon="5.88695">
        <ele>404.14</ele>
        <time>2019-04-13T09:50:26Z</time>
      </trkpt>
      <trkpt lat="43.56086" lon="5.88704">
        <ele>402.58</ele>
        <time>2019-04-13T09:50:30Z</time>
      </trkpt>
      <trkpt lat="43.56067" lon="5.8871">
        <ele>400.44</ele>
        <time>2019-04-13T09:50:38Z</time>
      </trkpt>
      <trkpt lat="43.56049" lon="5.88698">
        <ele>400.01</ele>
        <time>2019-04-13T09:50:56Z</time>
      </trkpt>
      <trkpt lat="43.5603" lon="5.887">
        <ele>399.29</ele>
        <time>2019-04-13T09:51:04Z</time>
      </trkpt>
      <trkpt lat="43.56011" lon="5.88708">
        <ele>398.92</ele>
        <time>2019-04-13T09:51:25Z</time>
      </trkpt>
      <trkpt lat="43.5599" lon="5.88704">
        <ele>399.43</ele>
        <time>2019-04-13T09:51:32Z</time>
      </trkpt>
      <trkpt lat="43.55973" lon="5.88693">
        <ele>400.16</ele>
        <time>2019-04-13T09:51:38Z</time>
      </trkpt>
      <trkpt lat="43.55954" lon="5.88679">
        <ele>400.44</ele>
        <time>2019-04-13T09:51:45Z</time>
      </trkpt>
      <trkpt lat="43.55936" lon="5.8867">
        <ele>400.59</ele>
        <time>2019-04-13T09:51:50Z</time>
      </trkpt>
      <trkpt lat="43.55919" lon="5.88663">
        <ele>401.02</ele>
        <time>2019-04-13T09:51:54Z</time>
      </trkpt>
      <trkpt lat="43.55902" lon="5.8865">
        <ele>402.31</ele>
        <time>2019-04-13T09:51:59Z</time>
      </trkpt>
      <trkpt lat="43.55885" lon="5.88639">
        <ele>402.18</ele>
        <time>2019-04-13T09:52:04Z</time>
      </trkpt>
      <trkpt lat="43.55867" lon="5.88626">
        <ele>403.22</ele>
        <time>2019-04-13T09:52:10Z</time>
      </trkpt>
      <trkpt lat="43.5585" lon="5.88608">
        <ele>403.17</ele>
        <time>2019-04-13T09:52:16Z</time>
      </trkpt>
      <trkpt lat="43.55833" lon="5.88592">
        <ele>401.98</ele>
        <time>2019-04-13T09:52:20Z</time>
      </trkpt>
      <trkpt lat="43.55814" lon="5.88585">
        <ele>400.85</ele>
        <time>2019-04-13T09:52:23Z</time>
      </trkpt>
      <trkpt lat="43.55792" lon="5.88576">
        <ele>399.84</ele>
        <time>2019-04-13T09:52:26Z</time>
      </trkpt>
      <trkpt lat="43.55776" lon="5.88557">
        <ele>397.72</ele>
        <time>2019-04-13T09:52:30Z</time>
      </trkpt>
      <trkpt lat="43.55768" lon="5.8853">
        <ele>396.23</ele>
        <time>2019-04-13T09:52:34Z</time>
      </trkpt>
      <trkpt lat="43.55759" lon="5.885">
        <ele>395.24</ele>
        <time>2019-04-13T09:52:38Z</time>
      </trkpt>
      <trkpt lat="43.55754" lon="5.88471">
        <ele>393.86</ele>
        <time>2019-04-13T09:52:42Z</time>
      </trkpt>
      <trkpt lat="43.55748" lon="5.88443">
        <ele>392.74</ele>
        <time>2019-04-13T09:52:46Z</time>
      </trkpt>
      <trkpt lat="43.55745" lon="5.88417">
        <ele>391.33</ele>
        <time>2019-04-13T09:52:50Z</time>
      </trkpt>
      <trkpt lat="43.5574" lon="5.8839">
        <ele>389.74</ele>
        <time>2019-04-13T09:52:55Z</time>
      </trkpt>
      <trkpt lat="43.55726" lon="5.8837">
        <ele>388.5</ele>
        <time>2019-04-13T09:53:01Z</time>
      </trkpt>
      <trkpt lat="43.55715" lon="5.88345">
        <ele>388.27</ele>
        <time>2019-04-13T09:53:07Z</time>
      </trkpt>
      <trkpt lat="43.55706" lon="5.88317">
        <ele>388.1</ele>
        <time>2019-04-13T09:53:12Z</time>
      </trkpt>
      <trkpt lat="43.557" lon="5.88294">
        <ele>387.54</ele>
        <time>2019-04-13T09:53:16Z</time>
      </trkpt>
      <trkpt lat="43.55686" lon="5.88269">
        <ele>385.63</ele>
        <time>2019-04-13T09:53:21Z</time>
      </trkpt>
      <trkpt lat="43.55672" lon="5.88249">
        <ele>383.47</ele>
        <time>2019-04-13T09:53:25Z</time>
      </trkpt>
      <trkpt lat="43.55669" lon="5.88221">
        <ele>382.92</ele>
        <time>2019-04-13T09:53:29Z</time>
      </trkpt>
      <trkpt lat="43.55665" lon="5.88195">
        <ele>382.12</ele>
        <time>2019-04-13T09:53:33Z</time>
      </trkpt>
      <trkpt lat="43.55661" lon="5.88167">
        <ele>380.37</ele>
        <time>2019-04-13T09:53:38Z</time>
      </trkpt>
      <trkpt lat="43.55652" lon="5.88141">
        <ele>380.01</ele>
        <time>2019-04-13T09:53:43Z</time>
      </trkpt>
      <trkpt lat="43.55642" lon="5.88115">
        <ele>379.91</ele>
        <time>2019-04-13T09:53:48Z</time>
      </trkpt>
      <trkpt lat="43.55629" lon="5.88097">
        <ele>379.07</ele>
        <time>2019-04-13T09:53:53Z</time>
      </trkpt>
      <trkpt lat="43.55606" lon="5.88092">
        <ele>377.62</ele>
        <time>2019-04-13T09:53:58Z</time>
      </trkpt>
      <trkpt lat="43.55588" lon="5.88086">
        <ele>377.1</ele>
        <time>2019-04-13T09:54:02Z</time>
      </trkpt>
      <trkpt lat="43.55572" lon="5.88066">
        <ele>377.71</ele>
        <time>2019-04-13T09:54:07Z</time>
      </trkpt>
      <trkpt lat="43.55558" lon="5.88046">
        <ele>378.88</ele>
        <time>2019-04-13T09:54:12Z</time>
      </trkpt>
      <trkpt lat="43.55549" lon="5.88021">
        <ele>379.68</ele>
        <time>2019-04-13T09:54:17Z</time>
      </trkpt>
      <trkpt lat="43.55541" lon="5.87996">
        <ele>381.37</ele>
        <time>2019-04-13T09:54:22Z</time>
      </trkpt>
      <trkpt lat="43.55534" lon="5.8797">
        <ele>382.75</ele>
        <time>2019-04-13T09:54:27Z</time>
      </trkpt>
      <trkpt lat="43.55528" lon="5.87941">
        <ele>383.56</ele>
        <time>2019-04-13T09:54:32Z</time>
      </trkpt>
      <trkpt lat="43.55529" lon="5.87914">
        <ele>385.77</ele>
        <time>2019-04-13T09:54:39Z</time>
      </trkpt>
      <trkpt lat="43.55533" lon="5.87887">
        <ele>387.22</ele>
        <time>2019-04-13T09:54:45Z</time>
      </trkpt>
      <trkpt lat="43.55542" lon="5.87864">
        <ele>388.24</ele>
        <time>2019-04-13T09:54:51Z</time>
      </trkpt>
      <trkpt lat="43.55554" lon="5.87842">
        <ele>387.96</ele>
        <time>2019-04-13T09:54:56Z</time>
      </trkpt>
      <trkpt lat="43.55563" lon="5.87816">
        <ele>387.31</ele>
        <time>2019-04-13T09:55:00Z</time>
      </trkpt>
      <trkpt lat="43.55572" lon="5.87793">
        <ele>386.97</ele>
        <time>2019-04-13T09:55:04Z</time>
      </trkpt>
      <trkpt lat="43.55582" lon="5.8777">
        <ele>387.17</ele>
        <time>2019-04-13T09:55:09Z</time>
      </trkpt>
      <trkpt lat="43.55591" lon="5.87748">
        <ele>387.35</ele>
        <time>2019-04-13T09:55:14Z</time>
      </trkpt>
      <trkpt lat="43.55598" lon="5.87724">
        <ele>388.31</ele>
        <time>2019-04-13T09:55:19Z</time>
      </trkpt>
      <trkpt lat="43.55603" lon="5.87698">
        <ele>388.85</ele>
        <time>2019-04-13T09:55:23Z</time>
      </trkpt>
      <trkpt lat="43.55606" lon="5.87667">
        <ele>389.29</ele>
        <time>2019-04-13T09:55:28Z</time>
      </trkpt>
      <trkpt lat="43.5561" lon="5.8764">
        <ele>389.92</ele>
        <time>2019-04-13T09:55:33Z</time>
      </trkpt>
      <trkpt lat="43.55606" lon="5.87615">
        <ele>390.84</ele>
        <time>2019-04-13T09:55:38Z</time>
      </trkpt>
      <trkpt lat="43.55599" lon="5.87589">
        <ele>390.04</ele>
        <time>2019-04-13T09:55:45Z</time>
      </trkpt>
      <trkpt lat="43.55599" lon="5.87562">
        <ele>392.57</ele>
        <time>2019-04-13T09:55:53Z</time>
      </trkpt>
      <trkpt lat="43.55594" lon="5.87539">
        <ele>395.82</ele>
        <time>2019-04-13T09:56:02Z</time>
      </trkpt>
      <trkpt lat="43.55589" lon="5.87512">
        <ele>393.96</ele>
        <time>2019-04-13T09:56:09Z</time>
      </trkpt>
      <trkpt lat="43.55577" lon="5.87491">
        <ele>390.59</ele>
        <time>2019-04-13T09:56:18Z</time>
      </trkpt>
      <trkpt lat="43.55559" lon="5.87487">
        <ele>384.73</ele>
        <time>2019-04-13T09:56:27Z</time>
      </trkpt>
      <trkpt lat="43.55542" lon="5.87498">
        <ele>380.94</ele>
        <time>2019-04-13T09:56:39Z</time>
      </trkpt>
      <trkpt lat="43.55524" lon="5.875">
        <ele>377.48</ele>
        <time>2019-04-13T09:56:51Z</time>
      </trkpt>
      <trkpt lat="43.55504" lon="5.875">
        <ele>375.1</ele>
        <time>2019-04-13T09:57:02Z</time>
      </trkpt>
      <trkpt lat="43.5549" lon="5.87485">
        <ele>374.23</ele>
        <time>2019-04-13T09:57:15Z</time>
      </trkpt>
      <trkpt lat="43.55473" lon="5.87474">
        <ele>374.77</ele>
        <time>2019-04-13T09:57:26Z</time>
      </trkpt>
      <trkpt lat="43.55455" lon="5.87468">
        <ele>375.25</ele>
        <time>2019-04-13T09:57:36Z</time>
      </trkpt>
      <trkpt lat="43.5544" lon="5.87454">
        <ele>375.79</ele>
        <time>2019-04-13T09:57:51Z</time>
      </trkpt>
      <trkpt lat="43.55421" lon="5.87443">
        <ele>376.44</ele>
        <time>2019-04-13T09:58:04Z</time>
      </trkpt>
      <trkpt lat="43.55403" lon="5.87443">
        <ele>376.25</ele>
        <time>2019-04-13T09:58:11Z</time>
      </trkpt>
      <trkpt lat="43.55384" lon="5.87436">
        <ele>377.54</ele>
        <time>2019-04-13T09:58:19Z</time>
      </trkpt>
      <trkpt lat="43.55365" lon="5.87428">
        <ele>377.98</ele>
        <time>2019-04-13T09:58:27Z</time>
      </trkpt>
      <trkpt lat="43.55347" lon="5.8742">
        <ele>377.73</ele>
        <time>2019-04-13T09:58:35Z</time>
      </trkpt>
      <trkpt lat="43.55327" lon="5.87416">
        <ele>377.29</ele>
        <time>2019-04-13T09:58:42Z</time>
      </trkpt>
      <trkpt lat="43.55311" lon="5.87403">
        <ele>377.84</ele>
        <time>2019-04-13T09:58:50Z</time>
      </trkpt>
      <trkpt lat="43.55298" lon="5.87383">
        <ele>379.1</ele>
        <time>2019-04-13T09:58:59Z</time>
      </trkpt>
      <trkpt lat="43.5528" lon="5.87373">
        <ele>380.76</ele>
        <time>2019-04-13T09:59:08Z</time>
      </trkpt>
      <trkpt lat="43.55265" lon="5.87388">
        <ele>380.5</ele>
        <time>2019-04-13T09:59:17Z</time>
      </trkpt>
      <trkpt lat="43.55247" lon="5.87398">
        <ele>374.57</ele>
        <time>2019-04-13T10:02:47Z</time>
      </trkpt>
      <trkpt lat="43.55233" lon="5.87416">
        <ele>374.97</ele>
        <time>2019-04-13T10:02:58Z</time>
      </trkpt>
      <trkpt lat="43.55216" lon="5.87429">
        <ele>375.53</ele>
        <time>2019-04-13T10:03:09Z</time>
      </trkpt>
      <trkpt lat="43.55201" lon="5.87446">
        <ele>376.95</ele>
        <time>2019-04-13T10:03:20Z</time>
      </trkpt>
      <trkpt lat="43.55185" lon="5.87463">
        <ele>377.85</ele>
        <time>2019-04-13T10:03:31Z</time>
      </trkpt>
      <trkpt lat="43.5517" lon="5.87479">
        <ele>379.12</ele>
        <time>2019-04-13T10:03:42Z</time>
      </trkpt>
      <trkpt lat="43.55157" lon="5.87497">
        <ele>380.45</ele>
        <time>2019-04-13T10:03:53Z</time>
      </trkpt>
      <trkpt lat="43.55143" lon="5.87516">
        <ele>382.7</ele>
        <time>2019-04-13T10:04:04Z</time>
      </trkpt>
      <trkpt lat="43.55128" lon="5.87531">
        <ele>385.49</ele>
        <time>2019-04-13T10:04:15Z</time>
      </trkpt>
      <trkpt lat="43.55114" lon="5.87549">
        <ele>388.99</ele>
        <time>2019-04-13T10:04:26Z</time>
      </trkpt>
      <trkpt lat="43.55099" lon="5.87563">
        <ele>392.27</ele>
        <time>2019-04-13T10:04:36Z</time>
      </trkpt>
      <trkpt lat="43.55084" lon="5.8758">
        <ele>395.22</ele>
        <time>2019-04-13T10:04:46Z</time>
      </trkpt>
      <trkpt lat="43.5507" lon="5.87595">
        <ele>397.1</ele>
        <time>2019-04-13T10:04:54Z</time>
      </trkpt>
      <trkpt lat="43.55054" lon="5.8761">
        <ele>399.73</ele>
        <time>2019-04-13T10:05:04Z</time>
      </trkpt>
      <trkpt lat="43.55038" lon="5.87624">
        <ele>401.89</ele>
        <time>2019-04-13T10:05:12Z</time>
      </trkpt>
      <trkpt lat="43.55021" lon="5.87637">
        <ele>404.67</ele>
        <time>2019-04-13T10:05:23Z</time>
      </trkpt>
      <trkpt lat="43.55005" lon="5.8765">
        <ele>404.95</ele>
        <time>2019-04-13T10:05:38Z</time>
      </trkpt>
      <trkpt lat="43.54985" lon="5.87653">
        <ele>403.21</ele>
        <time>2019-04-13T10:05:58Z</time>
      </trkpt>
      <trkpt lat="43.54967" lon="5.87657">
        <ele>403.37</ele>
        <time>2019-04-13T10:06:06Z</time>
      </trkpt>
      <trkpt lat="43.54949" lon="5.87665">
        <ele>403.56</ele>
        <time>2019-04-13T10:06:13Z</time>
      </trkpt>
      <trkpt lat="43.54927" lon="5.87672">
        <ele>402.86</ele>
        <time>2019-04-13T10:06:19Z</time>
      </trkpt>
      <trkpt lat="43.54906" lon="5.87673">
        <ele>402.63</ele>
        <time>2019-04-13T10:06:24Z</time>
      </trkpt>
      <trkpt lat="43.54887" lon="5.87678">
        <ele>402.65</ele>
        <time>2019-04-13T10:06:29Z</time>
      </trkpt>
      <trkpt lat="43.54868" lon="5.87684">
        <ele>400.61</ele>
        <time>2019-04-13T10:06:34Z</time>
      </trkpt>
      <trkpt lat="43.54847" lon="5.87678">
        <ele>398.39</ele>
        <time>2019-04-13T10:06:40Z</time>
      </trkpt>
      <trkpt lat="43.54829" lon="5.87668">
        <ele>397.58</ele>
        <time>2019-04-13T10:06:45Z</time>
      </trkpt>
      <trkpt lat="43.54809" lon="5.87662">
        <ele>396.88</ele>
        <time>2019-04-13T10:06:51Z</time>
      </trkpt>
      <trkpt lat="43.54791" lon="5.87665">
        <ele>396.79</ele>
        <time>2019-04-13T10:06:57Z</time>
      </trkpt>
      <trkpt lat="43.5477" lon="5.87672">
        <ele>396.65</ele>
        <time>2019-04-13T10:07:03Z</time>
      </trkpt>
      <trkpt lat="43.54751" lon="5.8768">
        <ele>397.46</ele>
        <time>2019-04-13T10:07:09Z</time>
      </trkpt>
      <trkpt lat="43.54733" lon="5.87694">
        <ele>397.94</ele>
        <time>2019-04-13T10:07:17Z</time>
      </trkpt>
      <trkpt lat="43.54723" lon="5.87715">
        <ele>398.6</ele>
        <time>2019-04-13T10:07:25Z</time>
      </trkpt>
      <trkpt lat="43.54714" lon="5.87737">
        <ele>398.59</ele>
        <time>2019-04-13T10:07:32Z</time>
      </trkpt>
      <trkpt lat="43.54706" lon="5.87762">
        <ele>400.26</ele>
        <time>2019-04-13T10:07:41Z</time>
      </trkpt>
      <trkpt lat="43.54701" lon="5.87786">
        <ele>399.28</ele>
        <time>2019-04-13T10:07:48Z</time>
      </trkpt>
      <trkpt lat="43.54692" lon="5.87808">
        <ele>399.03</ele>
        <time>2019-04-13T10:07:56Z</time>
      </trkpt>
      <trkpt lat="43.54684" lon="5.87831">
        <ele>400.89</ele>
        <time>2019-04-13T10:08:03Z</time>
      </trkpt>
      <trkpt lat="43.54672" lon="5.8785">
        <ele>402.07</ele>
        <time>2019-04-13T10:08:10Z</time>
      </trkpt>
      <trkpt lat="43.54656" lon="5.87866">
        <ele>401.07</ele>
        <time>2019-04-13T10:09:23Z</time>
      </trkpt>
      <trkpt lat="43.54674" lon="5.87869">
        <ele>399.48</ele>
        <time>2019-04-13T10:11:20Z</time>
      </trkpt>
      <trkpt lat="43.54657" lon="5.8788">
        <ele>399.07</ele>
        <time>2019-04-13T10:11:36Z</time>
      </trkpt>
      <trkpt lat="43.54643" lon="5.87899">
        <ele>399.27</ele>
        <time>2019-04-13T10:11:44Z</time>
      </trkpt>
      <trkpt lat="43.54631" lon="5.87921">
        <ele>398.06</ele>
        <time>2019-04-13T10:11:51Z</time>
      </trkpt>
      <trkpt lat="43.54612" lon="5.87932">
        <ele>397.1</ele>
        <time>2019-04-13T10:11:57Z</time>
      </trkpt>
      <trkpt lat="43.54597" lon="5.87951">
        <ele>396.08</ele>
        <time>2019-04-13T10:12:02Z</time>
      </trkpt>
      <trkpt lat="43.54582" lon="5.87964">
        <ele>396.21</ele>
        <time>2019-04-13T10:12:08Z</time>
      </trkpt>
      <trkpt lat="43.54568" lon="5.87981">
        <ele>394.16</ele>
        <time>2019-04-13T10:12:37Z</time>
      </trkpt>
      <trkpt lat="43.5455" lon="5.87986">
        <ele>394.82</ele>
        <time>2019-04-13T10:12:53Z</time>
      </trkpt>
      <trkpt lat="43.54535" lon="5.88001">
        <ele>396.52</ele>
        <time>2019-04-13T10:13:03Z</time>
      </trkpt>
      <trkpt lat="43.54524" lon="5.88021">
        <ele>398.66</ele>
        <time>2019-04-13T10:13:11Z</time>
      </trkpt>
      <trkpt lat="43.54513" lon="5.88041">
        <ele>398.94</ele>
        <time>2019-04-13T10:13:20Z</time>
      </trkpt>
      <trkpt lat="43.54499" lon="5.88059">
        <ele>400.03</ele>
        <time>2019-04-13T10:13:30Z</time>
      </trkpt>
      <trkpt lat="43.54486" lon="5.8808">
        <ele>400.83</ele>
        <time>2019-04-13T10:13:38Z</time>
      </trkpt>
      <trkpt lat="43.54469" lon="5.88097">
        <ele>401.43</ele>
        <time>2019-04-13T10:13:44Z</time>
      </trkpt>
      <trkpt lat="43.54456" lon="5.88115">
        <ele>402.24</ele>
        <time>2019-04-13T10:13:50Z</time>
      </trkpt>
      <trkpt lat="43.54446" lon="5.88136">
        <ele>402.53</ele>
        <time>2019-04-13T10:13:56Z</time>
      </trkpt>
      <trkpt lat="43.54444" lon="5.88161">
        <ele>401.05</ele>
        <time>2019-04-13T10:14:00Z</time>
      </trkpt>
      <trkpt lat="43.54429" lon="5.88181">
        <ele>399.7</ele>
        <time>2019-04-13T10:14:05Z</time>
      </trkpt>
      <trkpt lat="43.5441" lon="5.8819">
        <ele>398.32</ele>
        <time>2019-04-13T10:14:10Z</time>
      </trkpt>
      <trkpt lat="43.54394" lon="5.88205">
        <ele>397.41</ele>
        <time>2019-04-13T10:14:14Z</time>
      </trkpt>
      <trkpt lat="43.54379" lon="5.88221">
        <ele>397.87</ele>
        <time>2019-04-13T10:14:18Z</time>
      </trkpt>
      <trkpt lat="43.54361" lon="5.88237">
        <ele>396.68</ele>
        <time>2019-04-13T10:14:23Z</time>
      </trkpt>
      <trkpt lat="43.54343" lon="5.88247">
        <ele>394.89</ele>
        <time>2019-04-13T10:14:29Z</time>
      </trkpt>
      <trkpt lat="43.54325" lon="5.88259">
        <ele>395.06</ele>
        <time>2019-04-13T10:14:35Z</time>
      </trkpt>
      <trkpt lat="43.54308" lon="5.88269">
        <ele>395.61</ele>
        <time>2019-04-13T10:14:40Z</time>
      </trkpt>
      <trkpt lat="43.54291" lon="5.88281">
        <ele>394.88</ele>
        <time>2019-04-13T10:14:45Z</time>
      </trkpt>
      <trkpt lat="43.54274" lon="5.88294">
        <ele>394.74</ele>
        <time>2019-04-13T10:14:50Z</time>
      </trkpt>
      <trkpt lat="43.54254" lon="5.88309">
        <ele>395.06</ele>
        <time>2019-04-13T10:14:55Z</time>
      </trkpt>
      <trkpt lat="43.54237" lon="5.8832">
        <ele>393.94</ele>
        <time>2019-04-13T10:14:59Z</time>
      </trkpt>
      <trkpt lat="43.54218" lon="5.8833">
        <ele>392.23</ele>
        <time>2019-04-13T10:15:03Z</time>
      </trkpt>
      <trkpt lat="43.54197" lon="5.88336">
        <ele>391.22</ele>
        <time>2019-04-13T10:15:07Z</time>
      </trkpt>
      <trkpt lat="43.54178" lon="5.88337">
        <ele>389.46</ele>
        <time>2019-04-13T10:15:11Z</time>
      </trkpt>
      <trkpt lat="43.54157" lon="5.88344">
        <ele>387.91</ele>
        <time>2019-04-13T10:15:15Z</time>
      </trkpt>
      <trkpt lat="43.5414" lon="5.88357">
        <ele>386.36</ele>
        <time>2019-04-13T10:15:19Z</time>
      </trkpt>
      <trkpt lat="43.54124" lon="5.8837">
        <ele>385.16</ele>
        <time>2019-04-13T10:15:23Z</time>
      </trkpt>
      <trkpt lat="43.54105" lon="5.88387">
        <ele>383.9</ele>
        <time>2019-04-13T10:15:27Z</time>
      </trkpt>
      <trkpt lat="43.54087" lon="5.88406">
        <ele>382.99</ele>
        <time>2019-04-13T10:15:31Z</time>
      </trkpt>
      <trkpt lat="43.54068" lon="5.8842">
        <ele>381.44</ele>
        <time>2019-04-13T10:15:36Z</time>
      </trkpt>
      <trkpt lat="43.5405" lon="5.88429">
        <ele>379.72</ele>
        <time>2019-04-13T10:15:41Z</time>
      </trkpt>
      <trkpt lat="43.54032" lon="5.88441">
        <ele>378.74</ele>
        <time>2019-04-13T10:15:46Z</time>
      </trkpt>
      <trkpt lat="43.54013" lon="5.88449">
        <ele>376.3</ele>
        <time>2019-04-13T10:15:52Z</time>
      </trkpt>
      <trkpt lat="43.53992" lon="5.88462">
        <ele>374.14</ele>
        <time>2019-04-13T10:15:57Z</time>
      </trkpt>
      <trkpt lat="43.53972" lon="5.88466">
        <ele>373.61</ele>
        <time>2019-04-13T10:16:01Z</time>
      </trkpt>
      <trkpt lat="43.53952" lon="5.88461">
        <ele>372.94</ele>
        <time>2019-04-13T10:16:05Z</time>
      </trkpt>
      <trkpt lat="43.53935" lon="5.88449">
        <ele>372.25</ele>
        <time>2019-04-13T10:16:09Z</time>
      </trkpt>
      <trkpt lat="43.53917" lon="5.88444">
        <ele>371.91</ele>
        <time>2019-04-13T10:16:13Z</time>
      </trkpt>
      <trkpt lat="43.53898" lon="5.88441">
        <ele>371.46</ele>
        <time>2019-04-13T10:16:18Z</time>
      </trkpt>
      <trkpt lat="43.53879" lon="5.88436">
        <ele>368.75</ele>
        <time>2019-04-13T10:16:27Z</time>
      </trkpt>
      <trkpt lat="43.53857" lon="5.88444">
        <ele>367.8</ele>
        <time>2019-04-13T10:16:32Z</time>
      </trkpt>
      <trkpt lat="43.53837" lon="5.88443">
        <ele>367.1</ele>
        <time>2019-04-13T10:16:36Z</time>
      </trkpt>
      <trkpt lat="43.53818" lon="5.88435">
        <ele>366.66</ele>
        <time>2019-04-13T10:16:41Z</time>
      </trkpt>
      <trkpt lat="43.53799" lon="5.88424">
        <ele>365.79</ele>
        <time>2019-04-13T10:16:46Z</time>
      </trkpt>
      <trkpt lat="43.53782" lon="5.88432">
        <ele>365.57</ele>
        <time>2019-04-13T10:16:50Z</time>
      </trkpt>
      <trkpt lat="43.53764" lon="5.8844">
        <ele>364.32</ele>
        <time>2019-04-13T10:16:55Z</time>
      </trkpt>
      <trkpt lat="43.53751" lon="5.88462">
        <ele>363.59</ele>
        <time>2019-04-13T10:17:01Z</time>
      </trkpt>
      <trkpt lat="43.53741" lon="5.88487">
        <ele>365.86</ele>
        <time>2019-04-13T10:17:09Z</time>
      </trkpt>
      <trkpt lat="43.53728" lon="5.88507">
        <ele>365.79</ele>
        <time>2019-04-13T10:17:14Z</time>
      </trkpt>
      <trkpt lat="43.53711" lon="5.88526">
        <ele>365.59</ele>
        <time>2019-04-13T10:17:18Z</time>
      </trkpt>
      <trkpt lat="43.53699" lon="5.88544">
        <ele>365.29</ele>
        <time>2019-04-13T10:17:21Z</time>
      </trkpt>
      <trkpt lat="43.53682" lon="5.88559">
        <ele>365.09</ele>
        <time>2019-04-13T10:17:25Z</time>
      </trkpt>
      <trkpt lat="43.53667" lon="5.88575">
        <ele>364.24</ele>
        <time>2019-04-13T10:17:29Z</time>
      </trkpt>
      <trkpt lat="43.53647" lon="5.8859">
        <ele>363.36</ele>
        <time>2019-04-13T10:17:33Z</time>
      </trkpt>
      <trkpt lat="43.53631" lon="5.88606">
        <ele>362.6</ele>
        <time>2019-04-13T10:17:37Z</time>
      </trkpt>
      <trkpt lat="43.53613" lon="5.8862">
        <ele>361.84</ele>
        <time>2019-04-13T10:17:41Z</time>
      </trkpt>
      <trkpt lat="43.53596" lon="5.88627">
        <ele>361.22</ele>
        <time>2019-04-13T10:17:45Z</time>
      </trkpt>
      <trkpt lat="43.53575" lon="5.88631">
        <ele>360.31</ele>
        <time>2019-04-13T10:17:50Z</time>
      </trkpt>
      <trkpt lat="43.53556" lon="5.88635">
        <ele>358.66</ele>
        <time>2019-04-13T10:17:56Z</time>
      </trkpt>
      <trkpt lat="43.53545" lon="5.88658">
        <ele>357.57</ele>
        <time>2019-04-13T10:18:04Z</time>
      </trkpt>
      <trkpt lat="43.53531" lon="5.88677">
        <ele>355.84</ele>
        <time>2019-04-13T10:18:11Z</time>
      </trkpt>
      <trkpt lat="43.53517" lon="5.88695">
        <ele>354.23</ele>
        <time>2019-04-13T10:18:17Z</time>
      </trkpt>
      <trkpt lat="43.53502" lon="5.88715">
        <ele>353.96</ele>
        <time>2019-04-13T10:18:23Z</time>
      </trkpt>
      <trkpt lat="43.53486" lon="5.88727">
        <ele>354.84</ele>
        <time>2019-04-13T10:18:29Z</time>
      </trkpt>
      <trkpt lat="43.53468" lon="5.88735">
        <ele>355.94</ele>
        <time>2019-04-13T10:18:37Z</time>
      </trkpt>
      <trkpt lat="43.5345" lon="5.88734">
        <ele>363.9</ele>
        <time>2019-04-13T10:20:32Z</time>
      </trkpt>
      <trkpt lat="43.53431" lon="5.88734">
        <ele>364.17</ele>
        <time>2019-04-13T10:20:39Z</time>
      </trkpt>
      <trkpt lat="43.53412" lon="5.88729">
        <ele>363.62</ele>
        <time>2019-04-13T10:20:44Z</time>
      </trkpt>
      <trkpt lat="43.53394" lon="5.88721">
        <ele>362.92</ele>
        <time>2019-04-13T10:20:48Z</time>
      </trkpt>
      <trkpt lat="43.53375" lon="5.88713">
        <ele>362.41</ele>
        <time>2019-04-13T10:20:52Z</time>
      </trkpt>
      <trkpt lat="43.53355" lon="5.88703">
        <ele>361.82</ele>
        <time>2019-04-13T10:20:56Z</time>
      </trkpt>
      <trkpt lat="43.53336" lon="5.88695">
        <ele>361.02</ele>
        <time>2019-04-13T10:21:00Z</time>
      </trkpt>
      <trkpt lat="43.53319" lon="5.88683">
        <ele>360.12</ele>
        <time>2019-04-13T10:21:04Z</time>
      </trkpt>
      <trkpt lat="43.53302" lon="5.88672">
        <ele>359.32</ele>
        <time>2019-04-13T10:21:08Z</time>
      </trkpt>
      <trkpt lat="43.53284" lon="5.88677">
        <ele>358.6</ele>
        <time>2019-04-13T10:21:12Z</time>
      </trkpt>
      <trkpt lat="43.53277" lon="5.88701">
        <ele>357.83</ele>
        <time>2019-04-13T10:21:16Z</time>
      </trkpt>
      <trkpt lat="43.53272" lon="5.88729">
        <ele>356.61</ele>
        <time>2019-04-13T10:21:21Z</time>
      </trkpt>
      <trkpt lat="43.53255" lon="5.88746">
        <ele>356.53</ele>
        <time>2019-04-13T10:21:28Z</time>
      </trkpt>
      <trkpt lat="43.53238" lon="5.88759">
        <ele>356.87</ele>
        <time>2019-04-13T10:21:38Z</time>
      </trkpt>
      <trkpt lat="43.53222" lon="5.88773">
        <ele>357.54</ele>
        <time>2019-04-13T10:21:48Z</time>
      </trkpt>
      <trkpt lat="43.53206" lon="5.88763">
        <ele>361.24</ele>
        <time>2019-04-13T10:22:04Z</time>
      </trkpt>
      <trkpt lat="43.53188" lon="5.88759">
        <ele>361.85</ele>
        <time>2019-04-13T10:22:16Z</time>
      </trkpt>
      <trkpt lat="43.53169" lon="5.88756">
        <ele>362.52</ele>
        <time>2019-04-13T10:22:25Z</time>
      </trkpt>
      <trkpt lat="43.53149" lon="5.88752">
        <ele>364.04</ele>
        <time>2019-04-13T10:22:36Z</time>
      </trkpt>
      <trkpt lat="43.53132" lon="5.8876">
        <ele>364.78</ele>
        <time>2019-04-13T10:22:43Z</time>
      </trkpt>
      <trkpt lat="43.53113" lon="5.88766">
        <ele>365.81</ele>
        <time>2019-04-13T10:22:53Z</time>
      </trkpt>
      <trkpt lat="43.53095" lon="5.88772">
        <ele>367.7</ele>
        <time>2019-04-13T10:23:04Z</time>
      </trkpt>
      <trkpt lat="43.53075" lon="5.88777">
        <ele>369.54</ele>
        <time>2019-04-13T10:23:12Z</time>
      </trkpt>
      <trkpt lat="43.53056" lon="5.88775">
        <ele>370.27</ele>
        <time>2019-04-13T10:23:21Z</time>
      </trkpt>
      <trkpt lat="43.53039" lon="5.88768">
        <ele>371.82</ele>
        <time>2019-04-13T10:23:40Z</time>
      </trkpt>
      <trkpt lat="43.5302" lon="5.88771">
        <ele>373.82</ele>
        <time>2019-04-13T10:23:54Z</time>
      </trkpt>
      <trkpt lat="43.53" lon="5.88772">
        <ele>375.85</ele>
        <time>2019-04-13T10:24:06Z</time>
      </trkpt>
      <trkpt lat="43.52982" lon="5.88769">
        <ele>376.92</ele>
        <time>2019-04-13T10:24:15Z</time>
      </trkpt>
      <trkpt lat="43.5296" lon="5.88768">
        <ele>377.84</ele>
        <time>2019-04-13T10:24:23Z</time>
      </trkpt>
      <trkpt lat="43.52941" lon="5.88768">
        <ele>378.82</ele>
        <time>2019-04-13T10:24:31Z</time>
      </trkpt>
      <trkpt lat="43.52921" lon="5.8877">
        <ele>379.96</ele>
        <time>2019-04-13T10:24:41Z</time>
      </trkpt>
      <trkpt lat="43.52903" lon="5.88767">
        <ele>381.62</ele>
        <time>2019-04-13T10:24:51Z</time>
      </trkpt>
      <trkpt lat="43.52885" lon="5.88767">
        <ele>384.21</ele>
        <time>2019-04-13T10:25:02Z</time>
      </trkpt>
      <trkpt lat="43.52867" lon="5.88774">
        <ele>387.53</ele>
        <time>2019-04-13T10:25:12Z</time>
      </trkpt>
      <trkpt lat="43.52849" lon="5.88783">
        <ele>390.97</ele>
        <time>2019-04-13T10:25:25Z</time>
      </trkpt>
      <trkpt lat="43.5283" lon="5.88788">
        <ele>393.72</ele>
        <time>2019-04-13T10:25:35Z</time>
      </trkpt>
      <trkpt lat="43.52815" lon="5.88804">
        <ele>397.59</ele>
        <time>2019-04-13T10:25:46Z</time>
      </trkpt>
      <trkpt lat="43.52803" lon="5.88823">
        <ele>392.5</ele>
        <time>2019-04-13T10:28:14Z</time>
      </trkpt>
      <trkpt lat="43.52785" lon="5.88824">
        <ele>393.42</ele>
        <time>2019-04-13T10:28:24Z</time>
      </trkpt>
      <trkpt lat="43.52766" lon="5.88821">
        <ele>395.52</ele>
        <time>2019-04-13T10:28:34Z</time>
      </trkpt>
      <trkpt lat="43.52749" lon="5.88811">
        <ele>398.27</ele>
        <time>2019-04-13T10:28:43Z</time>
      </trkpt>
      <trkpt lat="43.52729" lon="5.88804">
        <ele>401.55</ele>
        <time>2019-04-13T10:28:52Z</time>
      </trkpt>
      <trkpt lat="43.5271" lon="5.88805">
        <ele>402.12</ele>
        <time>2019-04-13T10:28:59Z</time>
      </trkpt>
      <trkpt lat="43.52689" lon="5.88815">
        <ele>401.02</ele>
        <time>2019-04-13T10:29:04Z</time>
      </trkpt>
      <trkpt lat="43.52667" lon="5.88823">
        <ele>399.12</ele>
        <time>2019-04-13T10:29:08Z</time>
      </trkpt>
      <trkpt lat="43.52653" lon="5.8884">
        <ele>398.28</ele>
        <time>2019-04-13T10:29:11Z</time>
      </trkpt>
      <trkpt lat="43.52641" lon="5.88863">
        <ele>397.17</ele>
        <time>2019-04-13T10:29:14Z</time>
      </trkpt>
      <trkpt lat="43.52625" lon="5.88877">
        <ele>396.68</ele>
        <time>2019-04-13T10:29:17Z</time>
      </trkpt>
      <trkpt lat="43.52607" lon="5.88889">
        <ele>396.29</ele>
        <time>2019-04-13T10:29:21Z</time>
      </trkpt>
      <trkpt lat="43.5259" lon="5.88901">
        <ele>395.97</ele>
        <time>2019-04-13T10:29:25Z</time>
      </trkpt>
      <trkpt lat="43.52571" lon="5.88912">
        <ele>395.31</ele>
        <time>2019-04-13T10:29:28Z</time>
      </trkpt>
      <trkpt lat="43.52555" lon="5.88927">
        <ele>394.7</ele>
        <time>2019-04-13T10:29:31Z</time>
      </trkpt>
      <trkpt lat="43.52538" lon="5.88943">
        <ele>394.28</ele>
        <time>2019-04-13T10:29:34Z</time>
      </trkpt>
      <trkpt lat="43.52522" lon="5.88954">
        <ele>393.89</ele>
        <time>2019-04-13T10:29:37Z</time>
      </trkpt>
      <trkpt lat="43.52503" lon="5.88962">
        <ele>393.13</ele>
        <time>2019-04-13T10:29:40Z</time>
      </trkpt>
      <trkpt lat="43.52482" lon="5.88971">
        <ele>391.89</ele>
        <time>2019-04-13T10:29:43Z</time>
      </trkpt>
      <trkpt lat="43.52464" lon="5.88979">
        <ele>391.2</ele>
        <time>2019-04-13T10:29:46Z</time>
      </trkpt>
      <trkpt lat="43.52445" lon="5.88988">
        <ele>390.62</ele>
        <time>2019-04-13T10:29:49Z</time>
      </trkpt>
      <trkpt lat="43.52427" lon="5.88997">
        <ele>389.84</ele>
        <time>2019-04-13T10:29:52Z</time>
      </trkpt>
      <trkpt lat="43.52409" lon="5.89004">
        <ele>389.48</ele>
        <time>2019-04-13T10:29:55Z</time>
      </trkpt>
      <trkpt lat="43.52389" lon="5.89012">
        <ele>389.09</ele>
        <time>2019-04-13T10:29:59Z</time>
      </trkpt>
      <trkpt lat="43.52372" lon="5.89023">
        <ele>387.61</ele>
        <time>2019-04-13T10:30:03Z</time>
      </trkpt>
      <trkpt lat="43.52351" lon="5.89028">
        <ele>386.24</ele>
        <time>2019-04-13T10:30:07Z</time>
      </trkpt>
      <trkpt lat="43.52329" lon="5.89022">
        <ele>386.09</ele>
        <time>2019-04-13T10:30:11Z</time>
      </trkpt>
      <trkpt lat="43.52307" lon="5.89017">
        <ele>385.36</ele>
        <time>2019-04-13T10:30:15Z</time>
      </trkpt>
      <trkpt lat="43.52287" lon="5.89017">
        <ele>385.02</ele>
        <time>2019-04-13T10:30:18Z</time>
      </trkpt>
      <trkpt lat="43.52268" lon="5.89017">
        <ele>384.95</ele>
        <time>2019-04-13T10:30:21Z</time>
      </trkpt>
      <trkpt lat="43.52244" lon="5.89019">
        <ele>384.89</ele>
        <time>2019-04-13T10:30:25Z</time>
      </trkpt>
      <trkpt lat="43.52222" lon="5.89019">
        <ele>384.35</ele>
        <time>2019-04-13T10:30:29Z</time>
      </trkpt>
      <trkpt lat="43.52202" lon="5.89018">
        <ele>384.35</ele>
        <time>2019-04-13T10:30:32Z</time>
      </trkpt>
      <trkpt lat="43.5218" lon="5.89015">
        <ele>383.86</ele>
        <time>2019-04-13T10:30:36Z</time>
      </trkpt>
      <trkpt lat="43.52162" lon="5.89012">
        <ele>382.8</ele>
        <time>2019-04-13T10:30:39Z</time>
      </trkpt>
      <trkpt lat="43.52142" lon="5.89009">
        <ele>381.82</ele>
        <time>2019-04-13T10:30:42Z</time>
      </trkpt>
      <trkpt lat="43.52123" lon="5.89007">
        <ele>380.7</ele>
        <time>2019-04-13T10:30:45Z</time>
      </trkpt>
      <trkpt lat="43.52102" lon="5.89004">
        <ele>380.19</ele>
        <time>2019-04-13T10:30:49Z</time>
      </trkpt>
      <trkpt lat="43.52082" lon="5.89001">
        <ele>379.81</ele>
        <time>2019-04-13T10:30:53Z</time>
      </trkpt>
      <trkpt lat="43.52063" lon="5.88997">
        <ele>379.21</ele>
        <time>2019-04-13T10:30:57Z</time>
      </trkpt>
      <trkpt lat="43.52044" lon="5.88992">
        <ele>377.75</ele>
        <time>2019-04-13T10:31:01Z</time>
      </trkpt>
      <trkpt lat="43.52024" lon="5.88988">
        <ele>376.52</ele>
        <time>2019-04-13T10:31:05Z</time>
      </trkpt>
      <trkpt lat="43.52004" lon="5.88982">
        <ele>375.6</ele>
        <time>2019-04-13T10:31:09Z</time>
      </trkpt>
      <trkpt lat="43.51983" lon="5.88977">
        <ele>374.42</ele>
        <time>2019-04-13T10:31:13Z</time>
      </trkpt>
      <trkpt lat="43.51966" lon="5.8897">
        <ele>374.19</ele>
        <time>2019-04-13T10:31:16Z</time>
      </trkpt>
      <trkpt lat="43.51947" lon="5.88954">
        <ele>372.5</ele>
        <time>2019-04-13T10:31:20Z</time>
      </trkpt>
      <trkpt lat="43.51931" lon="5.88931">
        <ele>370.33</ele>
        <time>2019-04-13T10:31:24Z</time>
      </trkpt>
      <trkpt lat="43.51912" lon="5.88916">
        <ele>369.44</ele>
        <time>2019-04-13T10:31:28Z</time>
      </trkpt>
      <trkpt lat="43.51893" lon="5.88903">
        <ele>368.49</ele>
        <time>2019-04-13T10:31:32Z</time>
      </trkpt>
      <trkpt lat="43.51876" lon="5.88886">
        <ele>368.07</ele>
        <time>2019-04-13T10:31:36Z</time>
      </trkpt>
      <trkpt lat="43.51858" lon="5.88871">
        <ele>367.63</ele>
        <time>2019-04-13T10:31:40Z</time>
      </trkpt>
      <trkpt lat="43.51837" lon="5.88869">
        <ele>366.42</ele>
        <time>2019-04-13T10:31:46Z</time>
      </trkpt>
      <trkpt lat="43.5182" lon="5.88876">
        <ele>365.25</ele>
        <time>2019-04-13T10:31:52Z</time>
      </trkpt>
      <trkpt lat="43.51802" lon="5.88884">
        <ele>363.75</ele>
        <time>2019-04-13T10:31:58Z</time>
      </trkpt>
      <trkpt lat="43.51783" lon="5.88882">
        <ele>362.15</ele>
        <time>2019-04-13T10:32:03Z</time>
      </trkpt>
      <trkpt lat="43.51764" lon="5.88885">
        <ele>361.24</ele>
        <time>2019-04-13T10:32:07Z</time>
      </trkpt>
      <trkpt lat="43.51746" lon="5.88903">
        <ele>359.8</ele>
        <time>2019-04-13T10:32:13Z</time>
      </trkpt>
      <trkpt lat="43.51731" lon="5.88919">
        <ele>359.56</ele>
        <time>2019-04-13T10:32:18Z</time>
      </trkpt>
      <trkpt lat="43.51711" lon="5.88923">
        <ele>358.94</ele>
        <time>2019-04-13T10:32:23Z</time>
      </trkpt>
      <trkpt lat="43.51692" lon="5.8893">
        <ele>359.05</ele>
        <time>2019-04-13T10:32:26Z</time>
      </trkpt>
      <trkpt lat="43.51675" lon="5.88939">
        <ele>359.07</ele>
        <time>2019-04-13T10:32:29Z</time>
      </trkpt>
      <trkpt lat="43.51656" lon="5.88946">
        <ele>358.42</ele>
        <time>2019-04-13T10:32:33Z</time>
      </trkpt>
      <trkpt lat="43.51638" lon="5.88944">
        <ele>357.7</ele>
        <time>2019-04-13T10:32:36Z</time>
      </trkpt>
      <trkpt lat="43.51613" lon="5.88944">
        <ele>356.14</ele>
        <time>2019-04-13T10:32:40Z</time>
      </trkpt>
      <trkpt lat="43.51594" lon="5.88937">
        <ele>355.83</ele>
        <time>2019-04-13T10:32:43Z</time>
      </trkpt>
      <trkpt lat="43.51574" lon="5.88934">
        <ele>355.04</ele>
        <time>2019-04-13T10:32:47Z</time>
      </trkpt>
      <trkpt lat="43.51554" lon="5.88936">
        <ele>354.08</ele>
        <time>2019-04-13T10:32:51Z</time>
      </trkpt>
      <trkpt lat="43.51534" lon="5.88935">
        <ele>353.58</ele>
        <time>2019-04-13T10:32:54Z</time>
      </trkpt>
      <trkpt lat="43.51514" lon="5.88921">
        <ele>353.2</ele>
        <time>2019-04-13T10:32:58Z</time>
      </trkpt>
      <trkpt lat="43.51497" lon="5.8891">
        <ele>352.73</ele>
        <time>2019-04-13T10:33:01Z</time>
      </trkpt>
      <trkpt lat="43.51479" lon="5.88892">
        <ele>352.47</ele>
        <time>2019-04-13T10:33:05Z</time>
      </trkpt>
      <trkpt lat="43.51461" lon="5.88887">
        <ele>352.01</ele>
        <time>2019-04-13T10:33:09Z</time>
      </trkpt>
      <trkpt lat="43.51443" lon="5.88878">
        <ele>351.01</ele>
        <time>2019-04-13T10:33:16Z</time>
      </trkpt>
      <trkpt lat="43.5143" lon="5.8886">
        <ele>349.75</ele>
        <time>2019-04-13T10:33:21Z</time>
      </trkpt>
      <trkpt lat="43.51413" lon="5.88852">
        <ele>349.01</ele>
        <time>2019-04-13T10:33:26Z</time>
      </trkpt>
      <trkpt lat="43.51392" lon="5.88851">
        <ele>347.56</ele>
        <time>2019-04-13T10:33:32Z</time>
      </trkpt>
      <trkpt lat="43.51386" lon="5.88825">
        <ele>345.33</ele>
        <time>2019-04-13T10:33:39Z</time>
      </trkpt>
      <trkpt lat="43.5138" lon="5.88799">
        <ele>345.09</ele>
        <time>2019-04-13T10:33:43Z</time>
      </trkpt>
      <trkpt lat="43.51361" lon="5.88802">
        <ele>343.68</ele>
        <time>2019-04-13T10:33:52Z</time>
      </trkpt>
      <trkpt lat="43.51343" lon="5.88808">
        <ele>342.7</ele>
        <time>2019-04-13T10:33:57Z</time>
      </trkpt>
      <trkpt lat="43.51322" lon="5.88808">
        <ele>342.09</ele>
        <time>2019-04-13T10:34:02Z</time>
      </trkpt>
      <trkpt lat="43.51303" lon="5.88803">
        <ele>341.04</ele>
        <time>2019-04-13T10:34:07Z</time>
      </trkpt>
      <trkpt lat="43.51286" lon="5.88793">
        <ele>339.87</ele>
        <time>2019-04-13T10:34:11Z</time>
      </trkpt>
      <trkpt lat="43.51267" lon="5.88778">
        <ele>339.41</ele>
        <time>2019-04-13T10:34:15Z</time>
      </trkpt>
      <trkpt lat="43.51247" lon="5.88773">
        <ele>339.07</ele>
        <time>2019-04-13T10:34:18Z</time>
      </trkpt>
      <trkpt lat="43.51231" lon="5.88756">
        <ele>338.89</ele>
        <time>2019-04-13T10:34:22Z</time>
      </trkpt>
      <trkpt lat="43.51215" lon="5.88744">
        <ele>338.69</ele>
        <time>2019-04-13T10:34:26Z</time>
      </trkpt>
      <trkpt lat="43.51197" lon="5.88735">
        <ele>338.67</ele>
        <time>2019-04-13T10:34:30Z</time>
      </trkpt>
      <trkpt lat="43.51178" lon="5.88726">
        <ele>337.89</ele>
        <time>2019-04-13T10:34:34Z</time>
      </trkpt>
      <trkpt lat="43.51164" lon="5.88709">
        <ele>336.59</ele>
        <time>2019-04-13T10:34:38Z</time>
      </trkpt>
      <trkpt lat="43.51145" lon="5.88692">
        <ele>335.16</ele>
        <time>2019-04-13T10:34:42Z</time>
      </trkpt>
      <trkpt lat="43.51128" lon="5.88682">
        <ele>334.77</ele>
        <time>2019-04-13T10:34:46Z</time>
      </trkpt>
      <trkpt lat="43.51122" lon="5.88656">
        <ele>333.35</ele>
        <time>2019-04-13T10:34:51Z</time>
      </trkpt>
      <trkpt lat="43.51113" lon="5.88634">
        <ele>331.86</ele>
        <time>2019-04-13T10:34:55Z</time>
      </trkpt>
      <trkpt lat="43.51098" lon="5.88608">
        <ele>330.3</ele>
        <time>2019-04-13T10:34:59Z</time>
      </trkpt>
      <trkpt lat="43.51085" lon="5.88591">
        <ele>329.09</ele>
        <time>2019-04-13T10:35:02Z</time>
      </trkpt>
      <trkpt lat="43.51074" lon="5.8857">
        <ele>327.67</ele>
        <time>2019-04-13T10:35:05Z</time>
      </trkpt>
      <trkpt lat="43.51055" lon="5.88555">
        <ele>325.23</ele>
        <time>2019-04-13T10:35:08Z</time>
      </trkpt>
      <trkpt lat="43.51041" lon="5.88539">
        <ele>322.83</ele>
        <time>2019-04-13T10:35:11Z</time>
      </trkpt>
      <trkpt lat="43.51024" lon="5.88525">
        <ele>321.65</ele>
        <time>2019-04-13T10:35:14Z</time>
      </trkpt>
      <trkpt lat="43.51003" lon="5.88519">
        <ele>320.27</ele>
        <time>2019-04-13T10:35:17Z</time>
      </trkpt>
      <trkpt lat="43.50984" lon="5.88508">
        <ele>317.94</ele>
        <time>2019-04-13T10:35:21Z</time>
      </trkpt>
      <trkpt lat="43.50964" lon="5.88502">
        <ele>316.44</ele>
        <time>2019-04-13T10:35:26Z</time>
      </trkpt>
      <trkpt lat="43.50946" lon="5.88495">
        <ele>315.24</ele>
        <time>2019-04-13T10:35:29Z</time>
      </trkpt>
      <trkpt lat="43.50932" lon="5.88475">
        <ele>313.84</ele>
        <time>2019-04-13T10:35:33Z</time>
      </trkpt>
      <trkpt lat="43.50916" lon="5.88462">
        <ele>311.21</ele>
        <time>2019-04-13T10:35:36Z</time>
      </trkpt>
      <trkpt lat="43.50895" lon="5.88456">
        <ele>308.94</ele>
        <time>2019-04-13T10:35:39Z</time>
      </trkpt>
      <trkpt lat="43.50874" lon="5.88448">
        <ele>306.07</ele>
        <time>2019-04-13T10:35:42Z</time>
      </trkpt>
      <trkpt lat="43.50857" lon="5.88434">
        <ele>303.63</ele>
        <time>2019-04-13T10:35:45Z</time>
      </trkpt>
      <trkpt lat="43.50846" lon="5.88407">
        <ele>300.38</ele>
        <time>2019-04-13T10:35:49Z</time>
      </trkpt>
      <trkpt lat="43.50832" lon="5.88386">
        <ele>298.29</ele>
        <time>2019-04-13T10:35:53Z</time>
      </trkpt>
      <trkpt lat="43.50832" lon="5.88358">
        <ele>296</ele>
        <time>2019-04-13T10:35:57Z</time>
      </trkpt>
      <trkpt lat="43.50828" lon="5.88333">
        <ele>294.5</ele>
        <time>2019-04-13T10:36:00Z</time>
      </trkpt>
      <trkpt lat="43.50819" lon="5.88311">
        <ele>292.41</ele>
        <time>2019-04-13T10:36:03Z</time>
      </trkpt>
      <trkpt lat="43.5081" lon="5.88286">
        <ele>289.36</ele>
        <time>2019-04-13T10:36:07Z</time>
      </trkpt>
      <trkpt lat="43.50792" lon="5.88276">
        <ele>284.8</ele>
        <time>2019-04-13T10:36:13Z</time>
      </trkpt>
      <trkpt lat="43.50773" lon="5.88306">
        <ele>280.73</ele>
        <time>2019-04-13T10:36:20Z</time>
      </trkpt>
      <trkpt lat="43.50758" lon="5.88332">
        <ele>279</ele>
        <time>2019-04-13T10:36:24Z</time>
      </trkpt>
      <trkpt lat="43.50743" lon="5.88355">
        <ele>278.12</ele>
        <time>2019-04-13T10:36:27Z</time>
      </trkpt>
      <trkpt lat="43.50733" lon="5.88377">
        <ele>277.34</ele>
        <time>2019-04-13T10:36:30Z</time>
      </trkpt>
      <trkpt lat="43.50716" lon="5.88399">
        <ele>275.81</ele>
        <time>2019-04-13T10:36:33Z</time>
      </trkpt>
      <trkpt lat="43.50695" lon="5.88414">
        <ele>273.85</ele>
        <time>2019-04-13T10:36:36Z</time>
      </trkpt>
      <trkpt lat="43.50675" lon="5.88421">
        <ele>271.49</ele>
        <time>2019-04-13T10:36:39Z</time>
      </trkpt>
      <trkpt lat="43.50653" lon="5.88431">
        <ele>268.35</ele>
        <time>2019-04-13T10:36:43Z</time>
      </trkpt>
      <trkpt lat="43.50634" lon="5.88436">
        <ele>266.44</ele>
        <time>2019-04-13T10:36:46Z</time>
      </trkpt>
      <trkpt lat="43.50616" lon="5.88443">
        <ele>264.89</ele>
        <time>2019-04-13T10:36:49Z</time>
      </trkpt>
      <trkpt lat="43.506" lon="5.88456">
        <ele>263.29</ele>
        <time>2019-04-13T10:36:52Z</time>
      </trkpt>
      <trkpt lat="43.50584" lon="5.88472">
        <ele>262.57</ele>
        <time>2019-04-13T10:36:54Z</time>
      </trkpt>
      <trkpt lat="43.5057" lon="5.88489">
        <ele>262.04</ele>
        <time>2019-04-13T10:36:56Z</time>
      </trkpt>
      <trkpt lat="43.50553" lon="5.88513">
        <ele>260.32</ele>
        <time>2019-04-13T10:36:59Z</time>
      </trkpt>
      <trkpt lat="43.50537" lon="5.88533">
        <ele>258.97</ele>
        <time>2019-04-13T10:37:02Z</time>
      </trkpt>
      <trkpt lat="43.50519" lon="5.88548">
        <ele>257.32</ele>
        <time>2019-04-13T10:37:05Z</time>
      </trkpt>
      <trkpt lat="43.50503" lon="5.88562">
        <ele>255.79</ele>
        <time>2019-04-13T10:37:08Z</time>
      </trkpt>
      <trkpt lat="43.50484" lon="5.88577">
        <ele>253.6</ele>
        <time>2019-04-13T10:37:12Z</time>
      </trkpt>
      <trkpt lat="43.50465" lon="5.88591">
        <ele>251.95</ele>
        <time>2019-04-13T10:37:16Z</time>
      </trkpt>
      <trkpt lat="43.50449" lon="5.88602">
        <ele>250.51</ele>
        <time>2019-04-13T10:37:19Z</time>
      </trkpt>
      <trkpt lat="43.50428" lon="5.88611">
        <ele>248.1</ele>
        <time>2019-04-13T10:37:23Z</time>
      </trkpt>
      <trkpt lat="43.5041" lon="5.88621">
        <ele>245.79</ele>
        <time>2019-04-13T10:37:28Z</time>
      </trkpt>
      <trkpt lat="43.50392" lon="5.88635">
        <ele>243.86</ele>
        <time>2019-04-13T10:37:33Z</time>
      </trkpt>
      <trkpt lat="43.50375" lon="5.88654">
        <ele>244.8</ele>
        <time>2019-04-13T10:37:38Z</time>
      </trkpt>
      <trkpt lat="43.50365" lon="5.88676">
        <ele>245.61</ele>
        <time>2019-04-13T10:37:43Z</time>
      </trkpt>
      <trkpt lat="43.50364" lon="5.88702">
        <ele>244.45</ele>
        <time>2019-04-13T10:39:01Z</time>
      </trkpt>
    </trkseg>
  </trk>
</gpx>